[[{"header":{"parameterUnit":"m.s-1","parameterCategory":1,"la1":31.0,"la2":29.5877,"lo1":-88.7671,"lo2":-86.6584,"dy":0.0162,"dx":0.0185,"nx":115,"ny":88,"refTime":"2023-08-23T18:00:00:Z","depth":0,"parameterNumber":2,"parameterNumberName":"U-component_of_WINDS"},"data":[0.0,0.0,0.0,0.0,0.0,0.0,0.0,0.0,0.0,0.0,0.0,0.0,0.0,0.0,0.0,0.0,0.0,0.0,0.0,0.0,0.0,0.0,0.0,0.0,0.0,0.0,0.0,0.0,0.0,0.0,0.0,0.0,0.0,0.0,0.0,0.0,0.0,0.0,0.0,0.0,0.0,0.0,0.0,0.0,0.0,0.0,0.0,0.0,0.0,0.0,0.0,0.0,0.0,0.0,0.0,0.0,0.0,0.0,0.0,0.0,0.0,0.0,0.0,0.0,0.0,0.0,0.0,0.0,0.0,0.0,0.0,0.0,0.0,0.0,0.0,0.0,0.0,0.0,0.0,0.0,0.0,0.0,0.0,0.0,0.0,0.0,0.0,0.0,0.0,0.0,0.0,0.0,0.0,0.0,0.0,0.0,0.0,0.0,0.0,0.0,0.0,0.0,0.0,0.0,0.0,0.0,0.0,0.0,0.0,0.0,0.0,0.0,0.0,0.0,0.0,0.0,0.0,0.0,0.0,0.0,0.0,0.0,0.0,0.0,0.0,0.0,0.0,0.0,0.0,0.0,0.0,0.0,0.0,0.0,0.0,0.0,0.0,0.0,0.0,0.0,0.0,0.0,0.0,0.0,0.0,0.0,0.0,0.0,0.0,0.0,0.0,0.0,0.0,0.0,0.0,0.0,0.0,0.0,0.0,0.0,0.0,0.0,0.0,0.0,0.0,0.0,0.0,0.0,0.0,0.0,0.0,0.0,0.0,0.0,0.0,0.0,0.0,0.0,0.0,0.0,0.0,0.0,0.0,0.0,0.0,0.0,0.0,0.0,0.0,0.0,0.0,0.0,0.0,0.0,0.0,0.0,0.0,0.0,0.0,0.0,0.0,0.0,0.0,0.0,0.0,0.0,0.0,0.0,0.0,0.0,0.0,0.0,0.0,0.0,0.0,0.0,0.0,0.0,0.0,0.0,0.0,0.0,0.0,0.0,0.0,0.0,0.0,0.0,0.0,0.0,0.0,0.0,0.0,0.0,0.0,0.0,0.0,0.0,0.0,0.0,0.0,0.0,0.0,0.0,0.0,0.0,0.0,0.0,0.0,0.0,0.0,0.0,0.0,0.0,0.0,0.0,0.0,0.0,0.0,0.0,0.0,0.0,0.0,0.0,0.0,0.0,0.0,0.0,0.0,0.0,0.0,0.0,0.0,0.0,0.0,0.0,0.0,0.0,0.0,0.0,0.0,0.0,0.0,0.0,0.0,0.0,0.0,0.0,0.0,0.0,0.0,0.0,0.0,0.0,0.0,0.0,0.0,0.0,0.0,0.0,0.0,0.0,0.0,0.0,0.0,0.0,0.0,0.0,0.0,0.0,0.0,0.0,0.0,0.0,0.0,0.0,0.0,0.0,0.0,0.0,0.0,0.0,0.0,0.0,0.0,0.0,0.0,0.0,0.0,0.0,0.0,0.0,0.0,0.0,0.0,0.0,0.0,0.0,0.0,0.0,0.0,0.0,0.0,0.0,0.0,0.0,0.0,0.0,0.0,0.0,0.0,0.0,0.0,0.0,0.0,0.0,0.0,0.0,0.0,0.0,0.0,0.0,0.0,0.0,0.0,0.0,0.0,0.0,0.0,0.0,0.0,0.0,0.0,0.0,0.0,0.0,0.0,0.0,0.0,0.0,0.0,0.0,0.0,0.0,0.0,0.0,0.0,0.0,0.0,0.0,0.0,0.0,0.0,0.0,0.0,0.0,0.0,0.0,0.0,0.0,0.0,0.0,0.0,0.0,0.0,0.0,0.0,0.0,0.0,0.0,0.0,0.0,0.0,0.0,0.0,0.0,0.0,0.0,0.0,0.0,0.0,0.0,0.0,0.0,0.0,0.0,0.0,0.0,0.0,0.0,0.0,0.0,0.0,0.0,0.0,0.0,0.0,0.0,0.0,0.0,0.0,0.0,0.0,0.0,0.0,0.0,0.0,0.0,0.0,0.0,0.0,0.0,0.0,0.0,0.0,0.0,0.0,0.0,0.0,0.0,0.0,0.0,0.0,0.0,0.0,0.0,0.0,0.0,0.0,0.0,0.0,0.0,0.0,0.0,0.0,0.0,0.0,0.0,0.0,0.0,0.0,0.0,0.0,0.0,0.0,0.0,0.0,0.0,0.0,0.0,0.0,0.0,0.0,0.0,0.0,0.0,0.0,0.0,0.0,0.0,0.0,0.0,0.0,0.0,0.0,0.0,0.0,0.0,0.0,0.0,0.0,0.0,0.0,0.0,0.0,0.0,0.0,0.0,0.0,0.0,0.0,0.0,0.0,0.0,0.0,0.0,0.0,0.0,0.0,0.0,0.0,0.0,0.0,0.0,0.0,0.0,0.0,0.0,0.0,0.0,0.0,0.0,0.0,0.0,0.0,0.0,0.0,0.0,0.0,0.0,0.0,0.0,0.0,0.0,0.0,0.0,0.0,0.0,0.0,0.0,0.0,0.0,0.0,0.0,0.0,0.0,0.0,0.0,0.0,0.0,0.0,0.0,0.0,0.0,0.0,0.0,0.0,0.0,0.0,0.0,0.0,0.0,0.0,0.0,0.0,0.0,0.0,0.0,0.0,0.0,0.0,0.0,0.0,0.0,0.0,0.0,0.0,0.0,0.0,0.0,0.0,0.0,0.0,0.0,0.0,0.0,0.0,0.0,0.0,0.0,0.0,0.0,0.0,0.0,0.0,0.0,0.0,0.0,0.0,0.0,0.0,0.0,0.0,0.0,0.0,0.0,0.0,0.0,0.0,0.0,0.0,0.0,0.0,0.0,0.0,0.0,0.0,0.0,0.0,0.0,0.0,0.0,0.0,0.0,0.0,0.0,0.0,0.0,0.0,0.0,0.0,0.0,0.0,0.0,0.0,0.0,0.0,0.0,0.0,0.0,0.0,0.0,0.0,0.0,0.0,0.0,0.0,0.0,0.0,0.0,0.0,0.0,0.0,0.0,0.0,0.0,0.0,0.0,0.0,0.0,0.0,0.0,0.0,0.0,0.0,0.0,0.0,0.0,0.0,0.0,0.0,0.0,0.0,0.0,0.0,0.0,0.0,0.0,0.0,0.0,0.0,0.0,0.0,0.0,0.0,0.0,0.0,0.0,0.0,0.0,0.0,0.0,0.0,0.0,0.0,0.0,0.0,0.0,0.0,0.0,0.0,0.0,0.0,0.0,0.0,0.0,0.0,0.0,0.0,0.0,0.0,0.0,0.0,0.0,0.0,0.0,0.0,0.0,0.0,0.0,0.0,0.0,0.0,0.0,0.0,0.0,0.0,0.0,0.0,0.0,0.0,0.0,0.0,0.0,0.0,0.0,0.0,0.0,0.0,0.0,0.0,0.0,0.0,0.0,0.0,0.0,0.0,0.0,0.0,0.0,0.0,0.0,0.0,0.0,0.0,0.0,0.0,0.0,0.0,0.0,0.0,0.0,0.0,0.0,0.0,0.0,0.0,0.0,0.0,0.0,0.0,0.0,0.0,0.0,0.0,0.0,0.0,0.0,0.0,0.0,0.0,0.0,0.0,0.0,0.0,0.0,0.0,0.0,0.0,0.0,0.0,0.0,0.0,0.0,0.0,0.0,0.0,0.0,0.0,0.0,0.0,0.0,0.0,0.0,0.0,0.0,0.0,0.0,0.0,0.0,0.0,0.0,0.0,0.0,0.0,0.0,0.0,0.0,0.0,0.0,0.0,0.0,0.0,0.0,0.0,0.0,0.0,0.0,0.0,0.0,0.0,0.0,0.0,0.0,0.0,0.0,0.0,0.0,0.0,0.0,0.0,0.0,0.0,0.0,0.0,0.0,0.0,0.0,0.0,0.0,0.0,0.0,0.0,0.0,0.0,0.0,0.0,0.0,0.0,0.0,0.0,0.0,0.0,0.0,0.0,0.0,0.0,0.0,0.0,0.0,0.0,0.0,0.0,0.0,0.0,0.0,0.0,0.0,0.0,0.0,0.0,0.0,0.0,0.0,0.0,0.0,0.0,0.0,0.0,0.0,0.0,0.0,0.0,0.0,0.0,0.0,0.0,0.0,0.0,0.0,0.0,0.0,0.0,0.0,0.0,0.0,0.0,0.0,0.0,0.0,0.0,0.0,0.0,0.0,0.0,0.0,0.0,0.0,0.0,0.0,0.0,0.0,0.0,0.0,0.0,0.0,0.0,0.0,0.0,0.0,0.0,0.0,0.0,0.0,0.0,0.0,0.0,0.0,0.0,0.0,0.0,0.0,0.0,0.0,0.0,0.0,-2.0416,0.0,0.0,0.0,0.0,0.0,0.0,0.0,0.0,0.0,0.0,0.0,0.0,0.0,0.0,0.0,0.0,0.0,0.0,0.0,0.0,0.0,0.0,0.0,0.0,0.0,0.0,0.0,0.0,0.0,0.0,0.0,0.0,0.0,0.0,0.0,0.0,0.0,0.0,0.0,0.0,0.0,0.0,0.0,0.0,0.0,0.0,0.0,0.0,0.0,0.0,0.0,0.0,0.0,0.0,0.0,0.0,0.0,0.0,0.0,0.0,0.0,0.0,0.0,0.0,0.0,0.0,0.0,0.0,0.0,0.0,0.0,0.0,0.0,0.0,0.0,0.0,0.0,0.0,0.0,0.0,0.0,0.0,0.0,0.0,0.0,0.0,0.0,0.0,0.0,0.0,0.0,0.0,0.0,0.0,0.0,0.0,0.0,0.0,0.0,0.0,0.0,0.0,0.0,0.0,0.0,0.0,0.0,0.0,0.0,0.0,-1.9984,-2.0135,-2.0207,-2.0283,-2.0344,0.0,0.0,0.0,0.0,0.0,0.0,0.0,0.0,0.0,0.0,0.0,0.0,0.0,0.0,0.0,0.0,0.0,0.0,0.0,0.0,0.0,0.0,0.0,0.0,0.0,0.0,0.0,0.0,0.0,0.0,0.0,0.0,0.0,0.0,0.0,0.0,0.0,0.0,0.0,0.0,0.0,0.0,0.0,0.0,0.0,0.0,0.0,0.0,0.0,0.0,0.0,0.0,0.0,0.0,0.0,0.0,0.0,0.0,0.0,0.0,0.0,0.0,0.0,0.0,0.0,0.0,0.0,0.0,0.0,0.0,0.0,0.0,0.0,0.0,0.0,0.0,0.0,0.0,0.0,0.0,0.0,0.0,0.0,0.0,0.0,0.0,0.0,0.0,0.0,0.0,0.0,0.0,0.0,0.0,0.0,0.0,0.0,0.0,0.0,0.0,0.0,0.0,0.0,0.0,0.0,0.0,0.0,0.0,0.0,0.0,0.0,0.0,-2.0152,-2.0242,-2.0299,0.0,0.0,0.0,0.0,0.0,0.0,0.0,0.0,0.0,0.0,0.0,0.0,0.0,0.0,0.0,0.0,0.0,0.0,0.0,0.0,0.0,0.0,0.0,0.0,0.0,0.0,0.0,0.0,0.0,0.0,0.0,0.0,0.0,0.0,0.0,0.0,0.0,0.0,0.0,0.0,0.0,0.0,0.0,0.0,0.0,0.0,0.0,0.0,0.0,0.0,0.0,0.0,0.0,0.0,0.0,0.0,0.0,0.0,0.0,0.0,0.0,0.0,0.0,0.0,0.0,0.0,0.0,0.0,0.0,0.0,0.0,0.0,0.0,0.0,0.0,0.0,0.0,0.0,0.0,0.0,0.0,0.0,0.0,0.0,0.0,0.0,0.0,0.0,0.0,0.0,0.0,0.0,0.0,0.0,0.0,0.0,0.0,0.0,0.0,0.0,0.0,0.0,0.0,0.0,0.0,0.0,0.0,0.0,0.0,0.0,-1.9873,-2.0022,-2.0135,0.0,-2.0294,0.0,0.0,0.0,0.0,0.0,0.0,0.0,0.0,0.0,0.0,0.0,0.0,0.0,0.0,0.0,0.0,0.0,0.0,0.0,0.0,0.0,0.0,0.0,0.0,0.0,0.0,0.0,0.0,0.0,0.0,0.0,0.0,0.0,0.0,0.0,0.0,0.0,0.0,0.0,0.0,0.0,0.0,0.0,0.0,0.0,0.0,0.0,0.0,0.0,0.0,0.0,0.0,0.0,0.0,0.0,0.0,0.0,0.0,0.0,0.0,0.0,0.0,0.0,0.0,0.0,0.0,0.0,0.0,0.0,0.0,0.0,0.0,0.0,0.0,0.0,0.0,0.0,0.0,0.0,0.0,0.0,0.0,0.0,0.0,0.0,0.0,0.0,0.0,0.0,0.0,0.0,0.0,0.0,0.0,0.0,0.0,0.0,0.0,0.0,0.0,0.0,0.0,0.0,0.0,0.0,0.0,0.0,0.0,0.0,0.0,-1.9763,-1.9941,-2.0108,-2.0201,0.0,0.0,0.0,0.0,0.0,0.0,0.0,0.0,0.0,0.0,0.0,0.0,0.0,0.0,0.0,0.0,0.0,0.0,0.0,0.0,0.0,0.0,0.0,0.0,0.0,0.0,0.0,0.0,0.0,0.0,0.0,0.0,0.0,0.0,0.0,0.0,0.0,0.0,0.0,0.0,0.0,0.0,0.0,0.0,0.0,0.0,0.0,0.0,0.0,0.0,0.0,0.0,0.0,0.0,0.0,0.0,0.0,0.0,0.0,0.0,0.0,0.0,0.0,0.0,0.0,0.0,0.0,0.0,0.0,0.0,0.0,0.0,0.0,0.0,0.0,0.0,0.0,0.0,0.0,0.0,0.0,0.0,0.0,0.0,0.0,0.0,0.0,0.0,0.0,0.0,0.0,0.0,0.0,0.0,0.0,0.0,0.0,0.0,0.0,0.0,0.0,0.0,0.0,0.0,0.0,0.0,0.0,0.0,0.0,0.0,-1.9818,-2.0131,-2.058,-2.056,-2.0526,-2.0532,0.0,0.0,0.0,0.0,0.0,0.0,0.0,0.0,0.0,0.0,0.0,0.0,0.0,0.0,0.0,0.0,0.0,0.0,0.0,0.0,0.0,0.0,0.0,0.0,0.0,0.0,0.0,0.0,0.0,0.0,0.0,0.0,0.0,0.0,0.0,0.0,0.0,0.0,0.0,0.0,0.0,0.0,0.0,0.0,0.0,0.0,0.0,0.0,0.0,0.0,0.0,0.0,0.0,0.0,0.0,0.0,0.0,0.0,0.0,0.0,0.0,0.0,0.0,0.0,0.0,0.0,0.0,0.0,0.0,0.0,0.0,0.0,0.0,0.0,0.0,0.0,0.0,0.0,0.0,0.0,0.0,0.0,0.0,0.0,0.0,0.0,0.0,0.0,0.0,0.0,0.0,0.0,0.0,0.0,0.0,0.0,0.0,0.0,0.0,0.0,0.0,0.0,0.0,0.0,0.0,0.0,0.0,0.0,-2.0303,-2.0606,-2.1255,-2.228,-2.1722,-2.1345,0.0,0.0,0.0,0.0,0.0,0.0,0.0,0.0,0.0,0.0,0.0,0.0,0.0,0.0,0.0,0.0,0.0,0.0,0.0,0.0,0.0,0.0,0.0,0.0,0.0,0.0,0.0,0.0,0.0,0.0,0.0,0.0,0.0,0.0,0.0,0.0,0.0,0.0,0.0,0.0,0.0,0.0,0.0,0.0,0.0,0.0,0.0,0.0,0.0,0.0,0.0,0.0,0.0,0.0,0.0,0.0,0.0,0.0,0.0,0.0,0.0,0.0,0.0,0.0,0.0,0.0,0.0,0.0,0.0,0.0,0.0,0.0,0.0,0.0,0.0,0.0,0.0,0.0,0.0,0.0,0.0,0.0,0.0,0.0,0.0,0.0,0.0,0.0,0.0,0.0,0.0,0.0,0.0,0.0,0.0,0.0,0.0,0.0,0.0,0.0,0.0,0.0,0.0,0.0,0.0,0.0,0.0,0.0,0.0,-2.0343,-2.1166,-2.1873,-2.2338,-2.2153,-2.1817,0.0,0.0,0.0,0.0,0.0,0.0,0.0,0.0,0.0,0.0,0.0,0.0,0.0,0.0,0.0,0.0,0.0,0.0,0.0,0.0,0.0,0.0,0.0,0.0,0.0,0.0,0.0,0.0,0.0,0.0,0.0,0.0,0.0,0.0,0.0,0.0,0.0,0.0,0.0,0.0,0.0,0.0,0.0,0.0,0.0,0.0,0.0,0.0,0.0,0.0,0.0,0.0,0.0,0.0,0.0,0.0,0.0,0.0,0.0,0.0,0.0,0.0,0.0,0.0,0.0,0.0,0.0,0.0,0.0,0.0,0.0,0.0,0.0,0.0,0.0,0.0,0.0,0.0,0.0,0.0,0.0,0.0,0.0,0.0,0.0,0.0,0.0,0.0,0.0,0.0,0.0,0.0,0.0,0.0,0.0,0.0,0.0,0.0,0.0,0.0,0.0,0.0,0.0,0.0,0.0,0.0,0.0,0.0,0.0,-2.1516,0.0,-2.3314,0.0,-2.3275,-2.2811,0.0,0.0,0.0,0.0,0.0,0.0,0.0,0.0,0.0,0.0,0.0,0.0,0.0,0.0,0.0,0.0,0.0,0.0,0.0,0.0,0.0,0.0,0.0,0.0,0.0,0.0,0.0,0.0,0.0,0.0,0.0,0.0,0.0,0.0,0.0,0.0,0.0,0.0,0.0,0.0,0.0,0.0,0.0,0.0,0.0,0.0,0.0,0.0,0.0,0.0,0.0,0.0,0.0,0.0,0.0,0.0,0.0,0.0,0.0,0.0,0.0,0.0,0.0,0.0,0.0,0.0,0.0,0.0,0.0,0.0,0.0,0.0,0.0,0.0,0.0,0.0,0.0,0.0,0.0,0.0,0.0,0.0,0.0,0.0,0.0,0.0,0.0,0.0,0.0,0.0,0.0,0.0,0.0,0.0,0.0,0.0,0.0,0.0,0.0,0.0,0.0,0.0,0.0,0.0,0.0,0.0,0.0,0.0,-2.1195,-2.3964,-2.5088,-2.5641,-2.5864,-2.5144,-2.441,0.0,0.0,0.0,0.0,0.0,0.0,0.0,0.0,0.0,0.0,0.0,0.0,0.0,0.0,0.0,0.0,0.0,0.0,0.0,0.0,0.0,0.0,0.0,0.0,0.0,0.0,0.0,0.0,0.0,0.0,0.0,0.0,0.0,0.0,0.0,0.0,0.0,0.0,0.0,0.0,0.0,0.0,0.0,0.0,0.0,0.0,0.0,0.0,0.0,0.0,0.0,0.0,0.0,0.0,0.0,0.0,0.0,0.0,0.0,0.0,0.0,0.0,0.0,0.0,0.0,0.0,0.0,0.0,0.0,0.0,0.0,0.0,0.0,0.0,0.0,0.0,0.0,0.0,0.0,0.0,0.0,0.0,0.0,0.0,0.0,0.0,0.0,0.0,0.0,0.0,0.0,0.0,0.0,0.0,0.0,0.0,0.0,0.0,0.0,0.0,0.0,0.0,0.0,0.0,0.0,0.0,0.0,0.0,0.0,-2.4782,-2.5698,-2.6284,-2.6488,-2.5798,-2.5096,0.0,0.0,0.0,0.0,0.0,0.0,0.0,0.0,0.0,0.0,0.0,0.0,0.0,0.0,0.0,0.0,0.0,0.0,0.0,0.0,0.0,0.0,0.0,0.0,0.0,0.0,0.0,0.0,0.0,0.0,0.0,0.0,0.0,0.0,0.0,0.0,0.0,0.0,0.0,0.0,0.0,0.0,0.0,0.0,0.0,0.0,0.0,0.0,0.0,0.0,0.0,0.0,0.0,0.0,0.0,0.0,0.0,0.0,0.0,0.0,0.0,0.0,0.0,0.0,0.0,0.0,0.0,0.0,0.0,0.0,0.0,0.0,0.0,0.0,0.0,0.0,0.0,0.0,0.0,0.0,0.0,0.0,0.0,0.0,0.0,0.0,0.0,0.0,0.0,0.0,0.0,0.0,0.0,0.0,0.0,0.0,0.0,0.0,0.0,0.0,0.0,0.0,0.0,0.0,0.0,0.0,0.0,0.0,0.0,-2.6651,-2.7254,-2.7716,-2.7949,-2.7276,-2.646,-2.5481,0.0,0.0,0.0,0.0,0.0,0.0,0.0,0.0,0.0,0.0,0.0,0.0,0.0,0.0,0.0,0.0,0.0,0.0,0.0,0.0,0.0,0.0,0.0,0.0,0.0,0.0,0.0,0.0,0.0,0.0,0.0,0.0,0.0,0.0,0.0,0.0,0.0,0.0,0.0,0.0,0.0,0.0,0.0,0.0,0.0,0.0,0.0,0.0,0.0,0.0,0.0,0.0,0.0,0.0,0.0,0.0,0.0,0.0,0.0,0.0,0.0,0.0,0.0,0.0,0.0,0.0,0.0,0.0,0.0,0.0,0.0,0.0,0.0,0.0,0.0,0.0,0.0,0.0,0.0,0.0,0.0,0.0,0.0,0.0,0.0,0.0,0.0,0.0,0.0,0.0,0.0,0.0,0.0,0.0,0.0,0.0,0.0,0.0,0.0,0.0,0.0,0.0,0.0,0.0,0.0,0.0,0.0,0.0,-2.9299,-2.9611,-2.9823,-2.9911,-2.9314,-2.8346,0.0,0.0,0.0,0.0,0.0,0.0,0.0,0.0,0.0,0.0,0.0,0.0,0.0,0.0,0.0,0.0,0.0,0.0,0.0,0.0,0.0,0.0,0.0,0.0,0.0,0.0,0.0,0.0,0.0,0.0,0.0,0.0,0.0,0.0,0.0,0.0,0.0,0.0,0.0,0.0,0.0,0.0,0.0,0.0,0.0,0.0,0.0,0.0,0.0,0.0,0.0,0.0,0.0,0.0,0.0,0.0,0.0,0.0,0.0,0.0,0.0,0.0,0.0,0.0,0.0,0.0,0.0,0.0,0.0,0.0,0.0,0.0,0.0,0.0,0.0,0.0,0.0,0.0,0.0,0.0,0.0,0.0,0.0,0.0,0.0,0.0,0.0,0.0,0.0,0.0,0.0,0.0,0.0,0.0,0.0,0.0,0.0,0.0,0.0,0.0,0.0,0.0,0.0,0.0,0.0,0.0,0.0,0.0,0.0,-3.0702,-3.14,-3.1339,-3.0526,-2.9867,-2.9138,0.0,0.0,0.0,0.0,0.0,0.0,0.0,0.0,0.0,0.0,0.0,0.0,0.0,0.0,0.0,0.0,0.0,0.0,0.0,0.0,0.0,0.0,0.0,0.0,0.0,0.0,0.0,0.0,0.0,0.0,0.0,0.0,0.0,0.0,0.0,0.0,0.0,0.0,0.0,0.0,0.0,0.0,0.0,0.0,0.0,0.0,0.0,0.0,0.0,0.0,0.0,0.0,0.0,0.0,0.0,0.0,0.0,0.0,0.0,0.0,0.0,0.0,0.0,0.0,0.0,0.0,0.0,0.0,0.0,0.0,0.0,0.0,0.0,0.0,0.0,0.0,0.0,0.0,0.0,0.0,0.0,0.0,0.0,0.0,0.0,0.0,0.0,0.0,0.0,0.0,0.0,0.0,0.0,0.0,0.0,0.0,0.0,0.0,0.0,0.0,0.0,0.0,0.0,0.0,0.0,0.0,0.0,0.0,-3.0058,-3.1616,-3.2159,-3.2116,-3.1402,-3.0846,-3.0107,0.0,0.0,0.0,0.0,0.0,0.0,0.0,0.0,0.0,0.0,0.0,0.0,0.0,0.0,0.0,0.0,0.0,0.0,0.0,0.0,0.0,0.0,0.0,0.0,0.0,0.0,0.0,0.0,0.0,0.0,0.0,0.0,0.0,0.0,0.0,0.0,0.0,0.0,0.0,0.0,0.0,0.0,0.0,0.0,0.0,0.0,0.0,0.0,0.0,0.0,0.0,0.0,0.0,0.0,0.0,0.0,0.0,0.0,0.0,0.0,0.0,0.0,0.0,0.0,0.0,0.0,0.0,0.0,0.0,0.0,0.0,0.0,0.0,0.0,0.0,0.0,0.0,0.0,0.0,0.0,0.0,0.0,0.0,0.0,0.0,0.0,0.0,0.0,0.0,0.0,0.0,0.0,0.0,0.0,0.0,0.0,0.0,0.0,0.0,0.0,0.0,0.0,0.0,0.0,0.0,0.0,0.0,0.0,-3.0712,-3.2073,-3.2267,-3.2371,-3.2353,-3.2001,-3.113,0.0,0.0,0.0,0.0,0.0,0.0,0.0,0.0,0.0,0.0,0.0,0.0,0.0,0.0,0.0,0.0,0.0,0.0,0.0,0.0,0.0,0.0,0.0,0.0,0.0,0.0,0.0,0.0,0.0,0.0,0.0,0.0,0.0,0.0,0.0,0.0,0.0,0.0,0.0,0.0,0.0,0.0,0.0,0.0,0.0,0.0,0.0,0.0,0.0,0.0,0.0,0.0,0.0,0.0,0.0,0.0,0.0,0.0,0.0,0.0,0.0,0.0,0.0,0.0,0.0,0.0,0.0,0.0,0.0,0.0,0.0,0.0,0.0,0.0,0.0,0.0,0.0,0.0,0.0,0.0,0.0,0.0,0.0,0.0,0.0,0.0,0.0,0.0,0.0,0.0,0.0,0.0,0.0,0.0,0.0,0.0,0.0,0.0,0.0,0.0,0.0,0.0,0.0,0.0,0.0,0.0,0.0,0.0,-3.1271,-3.2056,-3.2126,-3.2161,-3.2179,-3.2313,-3.1775,0.0,0.0,0.0,0.0,0.0,0.0,0.0,0.0,0.0,0.0,0.0,0.0,0.0,0.0,0.0,0.0,0.0,0.0,0.0,0.0,0.0,0.0,0.0,0.0,0.0,0.0,0.0,0.0,0.0,0.0,0.0,0.0,0.0,0.0,0.0,0.0,0.0,0.0,0.0,0.0,0.0,0.0,0.0,0.0,0.0,0.0,0.0,0.0,-2.7668,0.0,0.0,0.0,0.0,0.0,0.0,0.0,0.0,0.0,0.0,0.0,0.0,0.0,0.0,0.0,0.0,0.0,0.0,0.0,0.0,0.0,0.0,0.0,0.0,0.0,0.0,0.0,0.0,0.0,0.0,0.0,0.0,0.0,0.0,0.0,0.0,0.0,0.0,0.0,0.0,0.0,0.0,0.0,0.0,0.0,0.0,0.0,0.0,0.0,0.0,0.0,0.0,0.0,0.0,0.0,0.0,0.0,0.0,0.0,-3.1289,-3.1912,-3.1983,-3.2002,-3.2002,-3.2232,-3.1749,0.0,0.0,0.0,0.0,0.0,0.0,0.0,0.0,0.0,0.0,0.0,0.0,0.0,0.0,0.0,0.0,0.0,0.0,0.0,0.0,0.0,0.0,0.0,0.0,0.0,0.0,0.0,0.0,0.0,0.0,0.0,0.0,0.0,0.0,0.0,0.0,0.0,0.0,0.0,0.0,0.0,0.0,0.0,0.0,0.0,0.0,0.0,0.0,0.0,0.0,0.0,0.0,0.0,0.0,0.0,0.0,0.0,0.0,0.0,0.0,0.0,0.0,0.0,0.0,0.0,0.0,0.0,0.0,0.0,0.0,0.0,0.0,0.0,0.0,0.0,0.0,0.0,0.0,0.0,0.0,0.0,0.0,0.0,0.0,0.0,0.0,0.0,0.0,0.0,0.0,0.0,0.0,0.0,0.0,0.0,0.0,0.0,0.0,0.0,0.0,0.0,0.0,0.0,0.0,0.0,0.0,0.0,-3.0578,-3.1286,-3.1939,-3.1926,-3.1928,-3.2049,-3.2071,-3.1446,-3.0101,0.0,0.0,0.0,0.0,0.0,0.0,0.0,0.0,0.0,0.0,0.0,0.0,0.0,0.0,0.0,0.0,0.0,0.0,0.0,0.0,0.0,0.0,0.0,0.0,0.0,0.0,0.0,0.0,0.0,0.0,0.0,0.0,0.0,0.0,0.0,0.0,0.0,0.0,-2.5986,-2.7649,0.0,0.0,0.0,0.0,0.0,0.0,0.0,0.0,-3.0668,0.0,0.0,0.0,0.0,0.0,0.0,0.0,0.0,0.0,0.0,0.0,0.0,0.0,0.0,0.0,0.0,0.0,0.0,0.0,0.0,0.0,0.0,0.0,0.0,0.0,0.0,0.0,0.0,0.0,0.0,0.0,0.0,0.0,0.0,0.0,0.0,0.0,0.0,0.0,0.0,0.0,0.0,0.0,0.0,0.0,0.0,0.0,0.0,0.0,0.0,0.0,0.0,0.0,0.0,0.0,0.0,-2.9793,-3.1063,-3.203,-3.2697,-3.2112,-3.2094,-3.2681,-3.2205,-3.1289,-2.9912,0.0,0.0,0.0,0.0,0.0,0.0,0.0,0.0,0.0,0.0,0.0,0.0,0.0,0.0,0.0,0.0,0.0,0.0,0.0,0.0,0.0,0.0,0.0,0.0,0.0,0.0,0.0,0.0,0.0,0.0,0.0,0.0,0.0,0.0,0.0,0.0,0.0,0.0,0.0,-2.9367,-3.033,0.0,0.0,0.0,0.0,0.0,0.0,0.0,0.0,-3.1267,0.0,0.0,0.0,0.0,0.0,0.0,0.0,0.0,0.0,0.0,0.0,0.0,0.0,0.0,0.0,0.0,0.0,0.0,0.0,0.0,0.0,0.0,0.0,0.0,0.0,0.0,0.0,0.0,0.0,0.0,0.0,0.0,0.0,0.0,0.0,0.0,0.0,0.0,0.0,0.0,0.0,0.0,0.0,0.0,0.0,0.0,0.0,0.0,0.0,0.0,0.0,0.0,0.0,0.0,0.0,-3.035,-3.172,-3.2562,-3.2886,-3.2955,-3.2955,-3.2886,-3.2562,-3.1772,0.0,0.0,0.0,0.0,0.0,0.0,0.0,0.0,0.0,0.0,0.0,0.0,0.0,0.0,0.0,0.0,0.0,0.0,0.0,0.0,0.0,0.0,0.0,0.0,0.0,0.0,0.0,0.0,0.0,0.0,0.0,0.0,0.0,0.0,0.0,0.0,0.0,0.0,0.0,0.0,-2.9845,-3.0625,-3.0983,0.0,0.0,0.0,0.0,0.0,0.0,-3.2085,-3.177,0.0,0.0,0.0,0.0,0.0,0.0,0.0,0.0,0.0,0.0,0.0,0.0,0.0,0.0,0.0,0.0,0.0,0.0,0.0,0.0,0.0,0.0,0.0,0.0,0.0,0.0,0.0,0.0,0.0,0.0,0.0,0.0,0.0,0.0,0.0,0.0,0.0,0.0,0.0,0.0,0.0,0.0,0.0,0.0,0.0,0.0,0.0,0.0,0.0,0.0,0.0,0.0,0.0,0.0,0.0,-3.0855,-3.2202,-3.2971,-3.3106,-3.3746,-3.3763,-3.3106,-3.2969,-3.2183,0.0,0.0,0.0,0.0,0.0,0.0,0.0,0.0,0.0,0.0,0.0,0.0,0.0,0.0,0.0,0.0,0.0,0.0,0.0,0.0,0.0,0.0,0.0,0.0,0.0,0.0,0.0,0.0,0.0,0.0,0.0,0.0,0.0,0.0,0.0,0.0,0.0,0.0,0.0,0.0,0.0,-3.0752,-3.1845,-3.1963,0.0,0.0,0.0,0.0,-3.2971,-3.2428,0.0,0.0,0.0,0.0,0.0,0.0,0.0,0.0,0.0,0.0,0.0,0.0,0.0,0.0,0.0,0.0,0.0,0.0,0.0,0.0,0.0,0.0,0.0,0.0,0.0,0.0,0.0,0.0,0.0,0.0,0.0,0.0,0.0,0.0,0.0,0.0,0.0,0.0,0.0,0.0,0.0,0.0,0.0,0.0,0.0,0.0,0.0,0.0,0.0,0.0,0.0,0.0,0.0,0.0,0.0,0.0,-3.0803,-3.2182,-3.321,-3.3748,-3.3885,-3.3868,-3.3782,-3.3147,-3.1848,0.0,0.0,0.0,0.0,0.0,0.0,0.0,0.0,0.0,0.0,0.0,0.0,0.0,0.0,0.0,0.0,0.0,0.0,0.0,0.0,0.0,0.0,0.0,0.0,0.0,0.0,0.0,0.0,0.0,0.0,0.0,0.0,0.0,0.0,0.0,0.0,0.0,0.0,0.0,0.0,0.0,-3.1264,-3.1309,-3.1567,-3.185,0.0,0.0,-3.2354,-3.2467,-3.211,0.0,0.0,0.0,0.0,0.0,0.0,0.0,0.0,0.0,0.0,0.0,0.0,0.0,0.0,0.0,0.0,0.0,0.0,0.0,0.0,0.0,0.0,0.0,0.0,0.0,0.0,0.0,0.0,0.0,0.0,0.0,0.0,0.0,0.0,0.0,0.0,0.0,0.0,0.0,0.0,0.0,0.0,0.0,0.0,0.0,0.0,0.0,0.0,0.0,0.0,0.0,0.0,0.0,0.0,0.0,-3.0021,-3.1409,-3.2783,-3.3596,-3.3917,-3.4662,-3.4898,-3.447,-3.3811,-3.2601,0.0,0.0,0.0,0.0,0.0,0.0,0.0,0.0,0.0,0.0,0.0,0.0,0.0,0.0,0.0,0.0,0.0,0.0,0.0,0.0,0.0,0.0,0.0,0.0,0.0,0.0,0.0,0.0,0.0,0.0,0.0,0.0,0.0,0.0,0.0,0.0,0.0,0.0,0.0,0.0,0.0,0.0,-3.1438,-3.1799,0.0,0.0,0.0,-3.299,-3.3096,0.0,0.0,0.0,0.0,0.0,0.0,0.0,0.0,0.0,0.0,0.0,0.0,0.0,0.0,0.0,0.0,0.0,0.0,0.0,0.0,0.0,0.0,0.0,0.0,0.0,0.0,0.0,0.0,0.0,0.0,0.0,0.0,0.0,0.0,0.0,0.0,0.0,0.0,0.0,0.0,0.0,0.0,0.0,0.0,0.0,0.0,0.0,0.0,0.0,0.0,0.0,0.0,0.0,0.0,0.0,0.0,0.0,-3.2115,-3.3291,-3.3982,-3.4127,-3.5309,-3.5608,-3.4878,-3.4209,0.0,0.0,0.0,0.0,0.0,0.0,0.0,0.0,0.0,0.0,0.0,0.0,0.0,0.0,0.0,0.0,0.0,0.0,0.0,0.0,0.0,0.0,0.0,0.0,0.0,0.0,0.0,-2.5855,0.0,0.0,0.0,0.0,0.0,0.0,0.0,0.0,0.0,0.0,0.0,0.0,0.0,0.0,-3.1195,-3.1629,-3.1994,-3.2487,0.0,0.0,-3.3477,-3.3668,-3.2959,-3.2469,0.0,0.0,0.0,0.0,0.0,0.0,0.0,0.0,0.0,0.0,0.0,0.0,0.0,0.0,0.0,0.0,0.0,0.0,0.0,0.0,0.0,0.0,0.0,0.0,0.0,0.0,0.0,0.0,0.0,0.0,0.0,0.0,0.0,0.0,0.0,0.0,0.0,0.0,0.0,0.0,0.0,0.0,0.0,0.0,0.0,0.0,0.0,0.0,0.0,0.0,0.0,0.0,0.0,0.0,0.0,-3.2685,-3.3488,-3.4141,-3.4644,-3.5409,-3.5477,-3.4746,-3.4068,-3.306,0.0,0.0,0.0,0.0,0.0,0.0,0.0,0.0,0.0,0.0,0.0,0.0,0.0,0.0,0.0,0.0,0.0,0.0,0.0,0.0,0.0,0.0,0.0,0.0,0.0,0.0,0.0,0.0,0.0,0.0,0.0,0.0,0.0,0.0,0.0,0.0,0.0,0.0,0.0,0.0,0.0,-3.0903,-3.1844,-3.1779,-3.2022,0.0,0.0,-3.3256,-3.3642,-3.3379,-3.3034,-3.2761,0.0,0.0,0.0,0.0,0.0,0.0,0.0,0.0,0.0,0.0,0.0,0.0,0.0,0.0,0.0,0.0,0.0,0.0,0.0,0.0,0.0,0.0,0.0,0.0,0.0,0.0,0.0,0.0,0.0,0.0,0.0,0.0,0.0,0.0,0.0,0.0,0.0,0.0,0.0,0.0,0.0,0.0,0.0,0.0,0.0,0.0,0.0,0.0,0.0,0.0,0.0,0.0,0.0,-3.0715,-3.2786,-3.3425,-3.4093,-3.4691,-3.5338,-3.5531,-3.526,-3.464,-3.384,0.0,0.0,0.0,0.0,0.0,0.0,0.0,0.0,0.0,0.0,0.0,0.0,0.0,0.0,0.0,0.0,0.0,0.0,0.0,0.0,0.0,0.0,0.0,0.0,0.0,0.0,0.0,0.0,-2.9094,-2.9494,-2.9433,0.0,0.0,0.0,0.0,0.0,0.0,0.0,0.0,0.0,0.0,-3.1235,-3.1929,-3.2126,0.0,0.0,-3.2978,-3.3123,-3.3503,-3.3287,-3.3127,-3.3235,-3.2042,0.0,0.0,0.0,0.0,0.0,0.0,0.0,0.0,0.0,0.0,0.0,0.0,0.0,0.0,0.0,0.0,0.0,0.0,0.0,0.0,0.0,0.0,0.0,0.0,0.0,0.0,0.0,0.0,0.0,0.0,0.0,0.0,0.0,0.0,0.0,0.0,0.0,0.0,0.0,0.0,0.0,0.0,0.0,0.0,0.0,0.0,0.0,0.0,0.0,0.0,0.0,0.0,-3.1143,-3.3054,-3.3686,-3.4312,-3.497,-3.5374,-3.5616,-3.5583,-3.5016,-3.447,0.0,0.0,0.0,0.0,0.0,0.0,0.0,0.0,0.0,0.0,0.0,0.0,0.0,0.0,0.0,0.0,0.0,0.0,0.0,0.0,0.0,0.0,0.0,0.0,0.0,0.0,0.0,0.0,-3.0212,-3.0386,-2.9704,0.0,0.0,0.0,0.0,0.0,0.0,0.0,0.0,0.0,0.0,-3.1628,-3.206,-3.2377,-3.2605,-3.287,-3.2924,-3.3096,-3.3503,-3.348,-3.3421,-3.3576,0.0,0.0,0.0,0.0,0.0,0.0,0.0,0.0,0.0,0.0,0.0,0.0,0.0,0.0,0.0,0.0,0.0,0.0,0.0,0.0,0.0,0.0,0.0,0.0,0.0,0.0,0.0,0.0,0.0,0.0,-2.522,0.0,0.0,0.0,0.0,0.0,0.0,0.0,0.0,0.0,0.0,0.0,0.0,0.0,0.0,0.0,0.0,0.0,0.0,0.0,0.0,0.0,0.0,-3.2303,-3.3669,-3.4329,-3.4987,-3.5554,-3.5583,-3.5616,-3.5583,-3.5016,-3.4686,-3.4657,0.0,0.0,0.0,0.0,0.0,0.0,0.0,0.0,0.0,0.0,0.0,0.0,0.0,0.0,0.0,0.0,0.0,0.0,0.0,0.0,0.0,0.0,0.0,0.0,0.0,0.0,-3.0318,-3.1173,-3.123,0.0,0.0,0.0,0.0,0.0,0.0,0.0,0.0,0.0,0.0,-3.1033,-3.1918,-3.2314,-3.2425,-3.2554,-3.2901,-3.3036,-3.3245,-3.3648,-3.4025,-3.4129,0.0,0.0,0.0,0.0,0.0,0.0,0.0,0.0,0.0,0.0,0.0,0.0,0.0,0.0,0.0,0.0,0.0,0.0,0.0,0.0,0.0,0.0,0.0,0.0,0.0,0.0,0.0,-2.9062,-2.9056,0.0,0.0,0.0,0.0,0.0,0.0,0.0,0.0,0.0,0.0,0.0,-3.3204,-3.3186,0.0,0.0,0.0,0.0,0.0,0.0,0.0,0.0,0.0,0.0,0.0,0.0,-3.2552,-3.4278,-3.4593,-3.4982,-3.5566,-3.5616,-3.5616,-3.5583,-3.5407,-3.5113,-3.4708,0.0,0.0,0.0,0.0,0.0,0.0,0.0,0.0,0.0,0.0,0.0,0.0,0.0,0.0,0.0,0.0,0.0,0.0,0.0,0.0,0.0,0.0,0.0,0.0,0.0,-2.9576,0.0,0.0,0.0,0.0,0.0,0.0,0.0,0.0,0.0,0.0,0.0,-2.9893,-3.1268,-3.1592,-3.1885,-3.2458,-3.2965,-3.3342,0.0,0.0,0.0,0.0,0.0,0.0,0.0,0.0,0.0,0.0,0.0,0.0,0.0,0.0,-3.1227,-2.9987,-2.9359,-2.9028,-2.9028,0.0,0.0,0.0,0.0,0.0,0.0,0.0,0.0,0.0,0.0,0.0,0.0,0.0,0.0,-3.1328,0.0,-3.1288,0.0,0.0,0.0,0.0,0.0,0.0,0.0,0.0,-3.5269,-3.5533,-3.5228,-3.5224,-3.5027,0.0,-3.4197,-3.276,0.0,0.0,0.0,0.0,0.0,0.0,0.0,0.0,-3.3396,-3.4657,-3.5174,-3.5621,-3.6011,-3.6282,-3.6394,-3.6394,-3.6163,-3.5599,-3.4742,-3.3342,-3.242,0.0,0.0,0.0,0.0,0.0,0.0,0.0,0.0,0.0,0.0,0.0,0.0,0.0,0.0,0.0,0.0,0.0,0.0,0.0,0.0,0.0,0.0,0.0,-3.0426,0.0,0.0,0.0,0.0,0.0,0.0,0.0,0.0,0.0,-3.0396,-3.0274,-3.0698,-3.2134,-3.2344,-3.2586,-3.3225,0.0,0.0,0.0,0.0,0.0,0.0,0.0,-3.5807,-3.5678,-3.5878,-3.5971,-3.5757,-3.5426,-3.5109,-3.4912,0.0,0.0,-3.2215,-3.1475,-3.1147,-3.1165,-3.1165,-3.1165,-3.1147,-3.1545,-3.1992,0.0,0.0,0.0,0.0,0.0,0.0,0.0,0.0,-3.3022,-3.3461,0.0,-3.3367,0.0,0.0,0.0,0.0,0.0,-3.4677,0.0,0.0,-3.6633,-3.6379,-3.61,-3.61,-3.5916,-3.558,-3.5598,-3.5396,-3.4942,-3.3491,0.0,0.0,0.0,0.0,0.0,0.0,-3.4921,-3.4895,-3.6164,-3.6829,-3.6846,-3.7516,-3.7889,-3.7855,-3.7178,-3.6175,-3.4856,-3.472,-3.4087,-3.2744,-3.2686,0.0,0.0,0.0,0.0,0.0,0.0,0.0,0.0,0.0,0.0,0.0,0.0,0.0,0.0,0.0,0.0,0.0,0.0,0.0,0.0,-3.0919,0.0,0.0,0.0,0.0,0.0,0.0,0.0,0.0,0.0,0.0,-3.1506,-3.1754,-3.2185,-3.2614,0.0,0.0,0.0,0.0,-3.5055,-3.5354,-3.5582,-3.5874,-3.6276,-3.6551,-3.6838,-3.7036,0.0,0.0,-3.7956,-3.7993,-3.771,-3.7194,-3.6478,-3.5595,-3.4127,-3.3669,-3.3567,-3.3567,-3.3519,-3.3652,-3.3669,-3.3519,-3.3673,-3.7222,0.0,0.0,0.0,0.0,-3.6213,-3.6454,-3.6454,-3.6396,-3.6514,-3.6717,-3.6424,0.0,0.0,0.0,0.0,0.0,0.0,-3.7249,-3.7516,-3.7992,-3.8044,-3.7802,-3.7739,-3.7578,-3.7348,-3.7249,-3.7041,-3.6717,-3.6749,-3.5749,-3.3835,0.0,0.0,0.0,0.0,-3.6525,-3.6971,-3.7364,-3.7584,-3.7584,-3.7804,-3.7898,-3.7898,-3.7702,-3.7168,-3.6209,-3.5756,-3.5086,-3.4155,-3.3646,0.0,0.0,0.0,0.0,0.0,0.0,0.0,0.0,0.0,0.0,0.0,0.0,0.0,0.0,0.0,0.0,0.0,0.0,0.0,-3.0791,-3.1503,-3.1821,0.0,0.0,0.0,0.0,0.0,0.0,0.0,0.0,0.0,-3.3927,-3.3091,-3.2683,0.0,0.0,-3.4519,-3.4792,-3.5488,-3.6004,-3.609,0.0,0.0,0.0,-3.7408,-3.7569,-3.7419,-3.7623,-3.7986,-3.8614,-3.8275,-3.7892,-3.7695,-3.7509,-3.7204,-3.6735,-3.501,-3.3837,-3.3683,-3.3683,-3.3683,-3.37,-3.4131,-3.452,-3.9899,-3.8906,-3.8208,-3.7608,-3.7179,-3.765,-3.7844,-3.7838,-3.7776,-3.7922,-3.8163,-3.7822,-3.7833,-3.809,-3.7138,0.0,0.0,0.0,-3.8385,-3.8752,-3.918,-3.9421,-3.9495,-3.9398,-3.9248,-3.9043,-3.8887,-3.8689,-3.8428,-3.8697,-3.7981,-3.633,0.0,0.0,-3.6881,-3.7217,-3.7562,-3.7905,-3.8193,-3.8345,-3.8345,-3.8616,-3.8633,-3.8345,-3.8328,-3.799,-3.7246,-3.6858,-3.6288,-3.5559,-3.5132,-3.4466,0.0,0.0,0.0,0.0,0.0,0.0,0.0,0.0,0.0,0.0,0.0,-2.6155,-2.7346,0.0,0.0,0.0,-3.0003,-3.0487,-3.1797,-3.2288,0.0,0.0,0.0,0.0,0.0,0.0,0.0,-3.4202,-3.413,-3.4294,-3.5087,-3.451,-3.421,-3.4659,-3.5107,-3.548,-3.5849,0.0,-3.7033,-3.7176,-3.7874,-3.833,-3.8139,-3.8317,-3.8503,-3.8464,-3.8621,-3.8886,-3.9309,-3.9039,-3.8684,-3.843,-3.8345,-3.8244,-3.7973,-3.6497,-3.538,-3.538,-3.5363,-3.5363,-3.538,-3.5555,-3.5635,-4.2599,-4.2343,-3.9478,-3.8293,-3.8254,-3.8212,-3.815,-3.8097,-3.8117,-3.848,-3.9041,-3.8318,-3.8384,-3.903,-3.8098,0.0,-3.8558,-3.8471,-3.909,-4.0289,-4.0215,-4.0486,-4.0978,-4.0842,-4.0703,-4.0509,-4.0293,-4.0124,-3.9971,-3.9744,-3.9476,-3.9227,-3.919,-3.8884,-3.8339,-3.8344,-3.8278,-3.8091,-3.8751,-3.9073,-3.9106,-3.9757,-3.9791,-3.9106,-3.9073,-3.8751,-3.8024,-3.799,-3.7635,-3.6948,-3.6897,-3.626,-3.4941,0.0,0.0,0.0,0.0,0.0,0.0,0.0,0.0,0.0,0.0,0.0,0.0,0.0,0.0,0.0,-3.1545,0.0,-3.2524,-3.3293,0.0,0.0,0.0,-3.4415,-3.4535,-3.4578,-3.4875,-3.5602,0.0,0.0,-3.5427,0.0,-3.6281,-3.6182,-3.634,-3.6719,-3.7368,-3.7695,-3.8049,-3.8303,-3.8448,-3.8572,-3.8892,-3.9135,-3.9401,-3.9689,-4.0011,-4.0045,-4.007,-4.007,-3.9791,-3.9257,-3.9139,-3.8952,-3.8234,-3.8112,-3.8115,-3.8038,-3.7912,-3.7821,-3.7686,-3.7235,-3.6852,-4.2599,-4.2542,-4.1814,-4.1472,-4.1472,-4.1452,-4.1442,-4.1431,-4.144,-4.1525,-4.1675,-4.1434,-4.1388,-4.1457,-4.1108,-4.0979,-4.1057,-4.0964,-4.0975,-4.1046,-4.1012,-4.1033,-4.106,-4.0894,-4.0773,-4.0722,-4.0366,-4.0161,-4.0083,-4.0377,-4.0355,-4.0122,-4.0485,-4.0147,-3.9176,-3.9569,-3.9736,-3.9588,-3.9757,-3.9825,-3.9842,-4.0011,-4.0011,-3.9842,-3.9842,-3.9503,-3.8768,-3.8734,-3.8396,-3.7686,-3.7635,-3.7229,-3.6344,-3.5632,0.0,0.0,0.0,0.0,0.0,0.0,0.0,0.0,0.0,-2.9469,-3.0252,0.0,-3.1027,0.0,-3.3184,-3.3871,-3.3967,-3.4266,0.0,0.0,-3.4845,-3.503,-3.5154,-3.5264,-3.5574,-3.6269,-3.6308,-3.6515,-3.7186,-3.7306,-3.7374,-3.7462,-3.7433,-3.7523,-3.7899,-3.8119,-3.8363,-3.8544,-3.8755,-3.8931,-3.9251,-3.952,-3.9831,-3.9884,-4.0028,-4.0138,-4.0255,-4.0238,-4.022,-4.0148,-4.0139,-4.0071,-3.9866,-3.9883,-3.9866,-3.979,-3.8829,-3.7898,-3.7882,-3.7753,-3.7635,-4.3531,-4.3531,-4.3531,-4.3531,-4.3485,-4.2878,-4.2588,-4.2547,-4.2533,-4.25,-4.2477,-4.2401,-4.2319,-4.2221,-4.2121,-4.1991,-4.1838,-4.1773,-4.1772,-4.1828,-4.1846,-4.1954,-4.2176,-4.197,-4.1866,-4.1866,-4.1523,-4.1298,-4.1236,-4.139,-4.1318,-4.1041,-4.1181,-4.1036,-4.0559,-4.0434,-4.0313,-4.0188,-4.0138,-4.0113,-4.0113,-4.0113,-4.0113,-4.0113,-4.0113,-3.9926,-3.952,-3.9503,-3.914,-3.8447,-3.8379,-3.8058,-3.733,-3.6937,-3.6045,0.0,0.0,0.0,0.0,0.0,0.0,0.0,0.0,0.0,0.0,0.0,-3.2384,-3.3423,-3.4244,-3.4788,-3.5008,-3.5188,-3.5334,-3.5464,-3.5904,-3.6111,-3.5938,-3.6333,-3.6768,-3.7135,-3.7167,-3.7355,-3.7812,-3.7963,-3.8178,-3.8525,-3.866,-3.8544,-3.8327,-3.8415,-3.877,-3.9286,-3.9534,-3.9841,-4.0438,-4.0762,-4.0929,-4.1043,-4.1103,-4.1223,-4.1384,-4.1409,-4.1332,-4.1066,-4.0988,-4.0869,-4.0595,-4.051,-4.051,-4.0366,-3.9739,-3.9132,-3.904,-3.8768,-3.8564,-4.4987,-4.4974,-4.4974,-4.4974,-4.4887,-4.3694,-4.3035,-4.2792,-4.2704,-4.2664,-4.2604,-4.2542,-4.2479,-4.2415,-4.235,-4.2229,-4.209,-4.2052,-4.2247,-4.2643,-4.268,-4.2967,-4.3479,-4.3322,-4.3214,-4.3196,-4.2918,-4.2727,-4.2589,-4.2499,-4.2302,-4.1982,-4.1805,-4.1893,-4.2151,-4.1297,-4.0751,-4.0577,-4.0434,-4.0383,-4.0383,-4.04,-4.0383,-4.0383,-4.0383,-4.04,-4.0383,-4.0383,-4.0045,-3.9326,-3.9276,-3.8903,-3.8108,-3.8058,-3.7391,0.0,-3.583,0.0,0.0,0.0,0.0,0.0,0.0,0.0,0.0,-3.3576,-3.3853,-3.4783,-3.5041,-3.535,-3.5837,-3.6049,-3.6213,-3.6346,-3.7026,-3.7268,-3.687,-3.7448,-3.7963,-3.7963,-3.8072,-3.8149,-3.8194,-3.8472,-3.8983,-3.9579,-3.9907,-3.9797,-3.9072,-3.9086,-3.9594,-4.0448,-4.0597,-4.0955,-4.1755,-4.2058,-4.2165,-4.2438,-4.2448,-4.2619,-4.2715,-4.2749,-4.2569,-4.2004,-4.1883,-4.1652,-4.1001,-4.0871,-4.0761,-4.0844,-4.0648,-4.0463,-4.0339,-3.9939,-3.957,-4.6572,-4.6477,-4.6477,-4.6477,-4.6454,-4.6322,-4.5485,-4.4291,-4.4279,-4.4266,-4.4221,-4.4175,-4.4108,-4.4059,-4.3971,-4.3876,-4.3748,-4.3733,-4.3655,-4.3564,-4.3564,-4.352,-4.3479,-4.3411,-4.3305,-4.3196,-4.2975,-4.2786,-4.2627,-4.3071,-4.3145,-4.2886,-4.3258,-4.3348,-4.3207,0.0,0.0,0.0,-4.1959,-4.189,-4.1863,-4.1863,-4.1863,-4.188,-4.1907,0.0,-4.189,-4.1863,-4.1525,-4.0832,-4.0781,0.0,0.0,0.0,0.0,0.0,0.0,0.0,0.0,0.0,0.0,0.0,-3.5633,-3.5245,-3.5216,-3.5351,-3.5531,-3.5738,-3.6282,-3.6626,-3.6751,-3.6976,-3.7139,-3.7184,-3.756,-3.7783,-3.7684,-3.7985,-3.8164,-3.8323,-3.8922,-3.9406,-3.9524,-4.0083,-4.052,-4.0696,-4.1004,-4.1114,-4.0953,-4.0899,-4.1077,-4.1438,-4.1665,-4.19,-4.2233,-4.239,-4.2624,-4.2705,-4.2748,-4.2834,-4.2997,-4.3048,-4.3073,-4.299,-4.3064,-4.3054,-4.2944,-4.2499,-4.2001,-4.2042,-4.1522,-4.0954,-4.0566,-4.039,-4.0287,-4.6866,0.0,-4.6817,-4.6802,0.0,-4.6866,-4.6442,-4.5697,-4.5829,-4.5829,-4.574,-4.5712,-4.5654,-4.5585,-4.5511,-4.5435,-4.5376,-4.5279,-4.5152,-4.5004,-4.4953,-4.4831,-4.4672,-4.4619,-4.4529,-4.4381,-4.4249,-4.4076,-4.3895,-4.4109,-4.4117,-4.3902,-4.3963,-4.4097,-4.4292,-4.4289,-4.3709,-4.2507,-4.2428,-4.2349,-4.2286,-4.2303,-4.2303,-4.2303,0.0,0.0,0.0,0.0,0.0,0.0,0.0,0.0,0.0,0.0,0.0,-3.8383,-3.821,-3.7936,-3.7436,-3.7169,-3.7098,-3.7331,-3.7329,-3.7024,-3.6298,-3.6663,-3.6943,-3.6959,-3.7245,-3.7435,-3.745,-3.7567,-3.7669,-3.7639,-3.7905,-3.8206,-3.8631,-3.8852,-3.9125,-3.9626,-4.0054,-4.0385,-4.0443,-4.0881,-4.1362,-4.1704,-4.2029,-4.2349,-4.2644,-4.216,-4.1877,-4.245,-4.308,-4.3474,-4.362,-4.3683,-4.3773,-4.3947,-4.4035,-4.413,-4.426,-4.4337,-4.4317,-4.4138,-4.4066,-4.3986,-4.3617,-4.3252,-4.3008,-4.2921,-4.234,-4.1748,-4.1453,-4.1099,-4.0793,-4.713,-4.7095,-4.7095,-4.7095,-4.7095,-4.713,-4.7127,-4.714,0.0,0.0,0.0,-4.6787,-4.6741,-4.6682,-4.6637,-4.6571,-4.6538,-4.639,-4.6272,-4.6187,-4.6136,-4.6029,-4.5902,-4.5847,-4.5754,-4.5603,-4.5544,-4.5406,-4.5201,-4.5207,-4.5111,-4.4896,-4.4653,-4.4759,-4.5194,-4.538,-4.4638,-4.3045,-4.2925,-4.2862,-4.2746,-4.2719,-4.2692,-4.2692,-4.2692,-4.2692,-4.2719,-4.2692,-4.2642,-4.2472,-4.1914,-4.1525,-4.139,-4.0679,-4.0003,-3.942,-3.9009,-3.8522,-3.7895,-3.7534,-3.7567,-3.8134,-3.8373,-3.8092,-3.7203,-3.7598,-3.7905,-3.7905,-3.7905,-3.7905,-3.7905,-3.8091,-3.8184,-3.8168,-3.8499,-3.8994,-3.9644,-3.9841,-4.0197,-4.0898,-4.1136,-4.1296,-4.1325,-4.1749,-4.2124,-4.2679,-4.3018,-4.3429,-4.391,-4.3188,-4.2768,-4.3521,-4.4194,-4.4801,-4.4988,-4.4974,-4.5113,-4.5153,-4.532,-4.5494,-4.5615,-4.5736,-4.556,-4.5067,-4.4963,-4.4743,-4.4268,-4.4106,-4.3954,-4.3943,-4.3325,-4.2725,-4.2649,-4.2033,-4.1395,-4.8677,-4.859,-4.859,-4.859,-4.859,-4.8731,-4.8795,-4.8728,-4.7361,-4.6744,-4.671,-4.671,-4.6682,-4.6603,-4.6605,-4.6525,-4.6338,-4.6323,-4.6238,0.0,-4.6119,-4.6047,-4.5902,-4.5902,-4.5791,-4.5603,-4.5602,-4.5447,-4.5276,-4.5765,-4.59,-4.5731,-4.6051,-4.6044,-4.5715,-4.5615,-4.5329,-4.4814,-4.4572,-4.447,-4.4425,-4.4332,-4.4293,-4.4276,-4.4259,-4.4293,-4.4293,-4.4259,-4.3944,-4.3274,-4.3122,-4.2811,-4.2168,-4.1441,-4.0949,-4.071,-3.9966,-3.9425,-3.9254,-3.9037,-3.8927,-3.8875,-3.8783,-3.8507,-3.8064,-3.7927,-3.7905,-3.7905,-3.7966,-3.7905,-3.7937,-3.8743,-3.9273,-3.9334,-4.0053,-4.068,-4.0778,-4.0791,-4.0943,-4.1251,-4.184,-4.2353,-4.2551,-4.3172,-4.3638,-4.3822,-4.3882,-4.4232,-4.4479,-4.4395,-4.4276,-4.4517,-4.4783,-4.5005,-4.5167,-4.5283,-4.5389,-4.5528,-4.5667,-4.5744,-4.577,-4.5846,-4.5877,-4.5972,-4.5933,-4.5954,-4.5982,-4.5647,-4.5264,-4.5141,-4.4518,-4.3994,-4.3958,-4.3183,-4.2263,-4.8785,-4.8731,-4.8713,-4.875,-4.8731,-4.8804,-4.8874,-4.8923,-4.8179,-4.7913,-4.7996,-4.7996,-4.7928,-4.7862,-4.7811,-4.7743,-4.7657,-4.7551,-4.7481,-4.7408,-4.7316,-4.7242,-4.7205,-4.7205,-4.7129,-4.6995,-4.6937,-4.6817,-4.6667,-4.6783,-4.6733,-4.6623,-4.6641,-4.6398,-4.603,-4.5821,-4.5615,-4.5406,-4.5086,-4.4886,-4.4803,-4.4654,-4.4598,-4.4598,-4.4598,-4.4598,-4.4598,-4.4598,-4.4429,-4.4062,-4.3612,-4.324,-4.2912,-4.2202,-4.1769,-4.17,-4.1264,-4.099,-4.091,-4.0721,-4.0503,-4.0221,-4.0137,-4.0012,-3.9744,-3.8898,-3.8566,-3.8938,-3.8971,-3.9149,-3.9551,-4.0024,-4.0306,-4.0306,-4.0762,-4.1205,-4.1621,-4.1774,-4.2055,-4.2597,-4.3074,-4.3406,-4.348,-4.3925,-4.4196,-4.4224,-4.4395,-4.4648,-4.4869,-4.4896,-4.4906,-4.5005,-4.514,-4.5274,-4.5406,-4.552,-4.5641,-4.5693,-4.5897,-4.6005,-4.603,-4.6105,-4.6277,-4.6381,-4.6405,-4.6471,-4.6613,-4.6342,-4.613,-4.6023,-4.5475,-4.5037,-4.4837,-4.392,-4.2625,-4.8587,-4.8587,-4.8587,-4.8587,-4.8587,-4.8587,-4.866,-4.8769,-4.875,-4.884,-4.898,-4.9015,-4.8963,-4.882,-4.8768,-4.8732,-4.8715,-4.8587,-4.8494,-4.8438,-4.8363,-4.8324,-4.8324,-4.8324,-4.8267,-4.8187,-4.807,-4.7968,-4.7861,-4.7533,-4.728,-4.7209,-4.6824,-4.6453,-4.6204,-4.593,-4.5761,-4.5581,-4.522,-4.4978,-4.4858,-4.4709,-4.4643,-4.4598,-4.4598,-4.4598,-4.4598,-4.4598,-4.4598,-4.4581,-4.4012,-4.3673,-4.3656,-4.2963,-4.254,-4.254,-4.2254,-4.2078,-4.2051,-4.186,-4.1622,-4.1397,-4.134,-4.1283,-4.1087,-4.0081,-3.9593,-4.0062,-4.0103,-4.0377,-4.0836,-4.1176,-4.1287,-4.1287,-4.1539,-4.2017,-4.2551,-4.2779,-4.3107,-4.3839,-4.4068,-4.4093,-4.4184,-4.427,-4.4367,-4.4452,-4.4648,-4.4913,-4.5059,-4.5177,-4.5257,-4.5336,-4.5389,-4.5485,-4.5632,-4.5795,-4.5897,-4.5897,-4.613,-4.6235,-4.6326,-4.6495,-4.6637,-4.6684,-4.6708,-4.6754,-4.6737,-4.6742,-4.6747,-4.6699,-4.629,-4.5894,-4.5569,-4.4685,-4.3306,-4.8605,-4.8587,-4.8605,-4.8587,-4.8569,-4.8587,-4.8605,-4.8605,-4.8605,-4.8642,-4.866,-4.8787,-4.875,-4.8642,-4.8623,-4.8587,-4.8532,-4.8494,-4.8438,-4.8343,-4.8306,-4.8324,-4.8324,-4.8324,-4.8267,-4.8187,-4.8052,-4.7988,-4.7902,-4.7615,-4.7338,-4.7025,-4.6731,-4.6453,-4.6211,-4.593,-4.5718,-4.5589,-4.5327,-4.5096,-4.4978,-4.4858,-4.4737,-4.4598,-4.4598,-4.4598,-4.4598,-4.4598,-4.4598,-4.4598,-4.453,-4.4479,-4.4412,-4.3741,-4.3291,-4.3257,-4.2574,-4.2051,-4.1959,-4.1898,-4.1921,-4.1826,-4.1788,-4.1721,-4.1677,-4.137,-4.1057,-4.1033,-4.093,-4.1009,-4.1045,-4.1749,-4.2215,-4.2261,-4.2949,-4.3672,-4.3685,-4.3881,-4.3985,-4.4051,-4.4212,-4.4281,-4.431,-4.4468,-4.4609,-4.4748,-4.4896,-4.5086,-4.5283,-4.5389,-4.5494,-4.5667,-4.5667,-4.5667,-4.5795,-4.6005,-4.6154,-4.6161,-4.6381,-4.6542,-4.659,-4.6684,-4.6819,-4.6957,-4.7025,-4.7116,-4.7165,-4.7232,-4.7209,-4.7143,-4.6986,-4.6851,-4.6175,-4.5654,-4.476,-4.9598,-4.9138,-4.9175,-4.8899,-4.8476,-4.8402,-4.8458,-4.8532,-4.855,-4.8532,-4.8569,-4.8606,-4.8606,-4.8587,-4.855,-4.8532,-4.8494,-4.8419,-4.8363,-4.8324,-4.8324,-4.8324,-4.8324,-4.8324,-4.8267,-4.8247,-4.8149,-4.8068,-4.7927,-4.7575,-4.7276,-4.7111,-4.6824,-4.6613,-4.6429,-4.6179,-4.593,-4.5718,-4.5537,-4.5327,-4.5096,-4.4896,-4.4793,-4.4709,-4.4671,-4.4598,-4.4598,-4.4598,-4.4598,-4.4598,-4.4598,-4.4598,-4.4598,-4.4265,-4.4113,-4.4096,-4.377,-4.3501,-4.3345,-4.3317,-4.3289,-4.3205,-4.3136,-4.3125,-4.3108,-4.3051,-4.2936,-4.28,-4.2381,-4.2224,-4.2638,-4.3103,-4.3369,-4.3419,-4.3756,-4.4027,-4.4027,-4.4126,-4.4224,-4.4224,-4.4384,-4.4497,-4.4609,-4.4748,-4.4869,-4.5032,-4.515,-4.5361,-4.5528,-4.5589,-4.5752,-4.5955,-4.598,-4.598,-4.6055,-4.6253,-4.6423,-4.6495,-4.6661,-4.6842,-4.6865,-4.6985,-4.712,-4.7165,-4.7209,-4.7272,-4.7276,-4.7298,-4.7298,-4.732,-4.732,-4.7172,-4.6823,-4.6366,-4.5527,-5.0435,-4.9903,-4.9922,-4.9426,-4.8655,-4.8655,-4.8583,-4.8438,-4.8457,-4.8456,-4.8438,-4.8457,-4.8476,-4.8495,-4.8457,-4.8457,-4.8438,-4.8343,-4.8324,-4.8324,-4.8324,-4.8324,-4.8324,-4.8324,-4.8324,-4.8305,-4.8246,-4.8128,-4.7949,-4.7578,-4.7298,-4.7205,-4.698,-4.6772,-4.659,-4.6332,-4.608,-4.5846,-4.5693,-4.5485,-4.53,-4.5059,-4.4869,-4.482,-4.4692,-4.4626,-4.4598,-4.4598,-4.4598,-4.4598,-4.4598,-4.4598,-4.4598,-4.4598,-4.4598,-4.4598,-4.4598,-4.4542,-4.4395,-4.4384,-4.4355,-4.4241,-4.4184,-4.4155,-4.4155,-4.4126,-4.4097,-4.4001,-4.3554,-4.3447,-4.3852,-4.4056,-4.4097,-4.4097,-4.4126,-4.4155,-4.4138,-4.4298,-4.4395,-4.4452,-4.4581,-4.4709,-4.4831,-4.4968,-4.5138,-4.5539,-4.5734,-4.5996,-4.6283,-4.6543,-4.6704,-4.686,-4.6995,-4.6832,-4.6473,-4.6542,-4.6702,-4.6754,-4.6916,-4.7053,-4.7093,-4.7254,-4.7363,-4.732,-4.7363,-4.7407,-4.7468,-4.7446,-4.7407,-4.7407,-4.7407,-4.7428,-4.732,-4.6863,-4.6302,-5.0765,-5.0765,-5.0747,-5.0251,-4.9555,-4.9555,-4.9096,-4.8509,-4.8361,-4.8343,-4.8379,-4.8306,-4.8324,-4.8343,-4.8343,-4.8324,-4.8306,-4.8306,-4.8324,-4.8324,-4.8324,-4.8324,-4.8324,-4.8324,-4.8324,-4.8305,-4.8246,-4.8088,-4.7884,-4.7636,-4.7428,-4.728,-4.7093,-4.6865,-4.6637,-4.6357,-4.613,-4.5998,-4.5744,-4.5607,-4.5537,-4.5327,-4.5059,-4.4858,-4.4803,-4.4737,-4.4643,-4.4598,-4.4598,-4.4598,-4.4598,-4.4598,-4.4598,-4.4598,-4.4598,-4.4598,-4.4598,-4.4598,-4.457,-4.457,-4.457,-4.4542,-4.4384,-4.4293,-4.4281,-4.4212,-4.4172,-4.4126,-4.414,-4.4157,-4.4109,-4.4155,-4.4155,-4.4155,-4.4224,-4.4281,-4.4293,-4.4485,-4.4626,-4.4737,-4.4803,-4.4937,-4.5029,-4.5113,-4.5686,-4.6312,-4.6671,-4.7003,-4.7745,-4.8189,-4.8326,-4.8486,-4.8608,-4.8464,-4.7062,-4.7151,-4.7201,-4.7168,-4.7371,-4.7294,-4.7341,-4.7385,-4.7468,-4.7533,-4.7618,-4.7639,-4.7678,-4.7678,-4.766,-4.766,-4.766,-4.766,-4.7642,-4.7575,-4.7027,-5.2032,-5.1518,-5.1004,-5.0637,-5.038,-5.0362,-5.0196,-4.9884,-4.9352,-4.9132,-4.9003,-4.8563,-4.8324,-4.8324,-4.8324,-4.8324,-4.8324,-4.8324,-4.8324,-4.8324,-4.8324,-4.8324,-4.8324,-4.8324,-4.8324,-4.8287,-4.8286,-4.8169,-4.7968,-4.7741,-4.7554,-4.7407,-4.7227,-4.7043,-4.6824,-4.659,-4.635,-4.613,-4.5947,-4.577,-4.5632,-4.5511,-4.5327,-4.5059,-4.4886,-4.4793,-4.4737,-4.4654,-4.4598,-4.4598,-4.4598,-4.4598,-4.4598,-4.4598,-4.4598,-4.4598,-4.4598,-4.4598,-4.4598,-4.4598,-4.4598,-4.4598,-4.4542,-4.4468,-4.4514,-4.4457,-4.4429,-4.4429,-4.4457,-4.4485,-4.4457,-4.4429,-4.4429,-4.4412,-4.4457,-4.4525,-4.4592,-4.4692,-4.4776,-4.4913,-4.5005,-4.5285,-4.5866,-4.613,-4.6575,-4.7367,-4.7656,-4.8015,-4.8373,-4.8633,-4.8917,-4.9022,-4.9166,-4.9091,-4.8698,-4.8525,-4.8529,-4.8178,-4.8057,-4.7817,-4.7757,-4.769,-4.7738,-4.7741,-4.7824,-4.7847,-4.7847,-4.7847,-4.7847,-4.7868,-4.7868,-4.7847,-4.787,-4.7785,-4.7363,-5.2894,-5.2344,-5.1793,-5.1426,-5.1187,-5.1187,-5.1022,-5.0765,-5.0215,-4.9829,-4.9519,-4.8967,-4.8581,-4.8343,-4.8324,-4.8324,-4.8324,-4.8324,-4.8324,-4.8324,-4.8324,-4.8324,-4.8324,-4.8324,-4.8324,-4.8287,-4.8267,-4.817,-4.801,-4.7845,-4.7678,-4.749,-4.7316,-4.7138,-4.6998,-4.6795,-4.6542,-4.6301,-4.613,-4.5947,-4.5744,-4.5632,-4.5511,-4.5327,-4.5076,-4.4913,-4.4858,-4.4737,-4.4637,-4.4654,-4.4643,-4.4598,-4.4598,-4.4598,-4.4598,-4.4598,-4.4598,-4.4598,-4.4598,-4.4598,-4.4598,-4.4598,-4.4598,-4.4598,-4.4598,-4.4598,-4.4626,-4.4654,-4.4654,-4.4682,-4.4709,-4.4737,-4.4709,-4.4682,-4.4726,-4.4765,-4.4841,-4.4841,-4.506,-4.5402,-4.566,-4.6121,-4.6815,-4.7105,-4.7647,-4.8468,-4.8706,-4.8881,-4.9371,-4.9647,-4.9799,-4.9973,-5.0216,-5.042,-5.0348,-5.0419,-4.9778,-4.9347,-4.8814,-4.8497,-4.8182,-4.8097,-4.7961,-4.7963,-4.7968,-4.799,-4.8012,-4.8012,-4.8012,-4.8012,-4.7972,-4.7931,-4.7972,-4.7992,-4.764,-5.3185,-5.3112,-5.3167,-5.2637,-5.205,-5.2013,-5.1573,-5.1059,-5.0875,-5.0453,-4.9941,-4.9627,-4.915,-4.8526,-4.8471,-4.8379,-4.8324,-4.8324,-4.8324,-4.8324,-4.8324,-4.8324,-4.8324,-4.8324,-4.8324,-4.8287,-4.8228,-4.8148,-4.803,-4.7927,-4.778,-4.7533,-4.7403,-4.7209,-4.7002,-4.6888,-4.6684,-4.6447,-4.6284,-4.613,-4.5972,-4.5761,-4.5632,-4.5563,-4.5327,-4.515,-4.5032,-4.4869,-4.4803,-4.4776,-4.4682,-4.4598,-4.4598,-4.4598,-4.4598,-4.4598,-4.4598,-4.4598,-4.4598,-4.4598,-4.4598,-4.4598,-4.4598,-4.4626,-4.4626,-4.4626,-4.4682,-4.4776,-4.4803,-4.4841,-4.494,-4.4995,-4.4923,-4.4831,-4.4886,-4.4968,-4.4978,-4.5039,-4.5333,-4.6079,-4.6546,-4.7088,-4.7696,-4.8047,-4.8547,-4.9372,-4.9723,-5.0004,-5.0759,-5.1071,-5.1497,-5.1597,-5.1519,-5.1491,-5.1892,-5.2161,-5.1251,-5.0412,-4.9785,-4.9313,-4.8844,-4.8603,-4.8245,-4.8176,-4.8088,-4.8092,-4.8092,-4.8092,-4.8092,-4.8072,-4.8052,-4.8052,-4.8072,-4.8092,-4.8052,-5.3185,-5.3185,-5.3185,-5.3078,-5.2839,-5.2821,-5.2656,-5.2399,-5.1885,-5.1481,-5.1169,-5.0655,-4.9976,-4.9334,-4.9206,-4.8875,-4.8343,-4.8324,-4.8324,-4.8324,-4.8324,-4.8324,-4.8324,-4.8324,-4.8324,-4.8305,-4.8267,-4.8228,-4.8148,-4.801,-4.7907,-4.7759,-4.7533,-4.7363,-4.7187,-4.7048,-4.6842,-4.6661,-4.6471,-4.6259,-4.6154,-4.5972,-4.5821,-4.5718,-4.5563,-4.5459,-4.5423,-4.5113,-4.4968,-4.4923,-4.4803,-4.4709,-4.4626,-4.4598,-4.4598,-4.4598,-4.4598,-4.4598,-4.4598,-4.4598,-4.4598,-4.4626,-4.4682,-4.4737,-4.4765,-4.4803,-4.4886,-4.494,-4.494,-4.4951,-4.5005,-4.5086,-4.5086,-4.4951,-4.4978,-4.5076,-4.5314,-4.5826,-4.6305,-4.6635,-4.7262,-4.8021,-4.8782,-4.9099,-4.9556,-5.0409,-5.0691,-5.1033,-5.1424,-5.1683,-5.179,-5.1938,-5.2126,-5.2269,-5.2364,-5.248,-5.2078,-5.1393,-5.0849,-5.0186,-4.9664,-4.9036,-4.8656,-4.8312,-4.8206,-4.817,-4.819,-4.819,-4.817,-4.819,-4.819,-4.8228,-4.8228,-4.8208,-4.8151,-5.3185,-5.3185,-5.3185,-5.3185,-5.3185,-5.3185,-5.3185,-5.313,-5.2674,-5.227,-5.1922,-5.1481,-5.0802,-5.016,-5.0031,-4.9572,-4.8838,-4.8783,-4.86,-4.8361,-4.8324,-4.8324,-4.8324,-4.8324,-4.8324,-4.8324,-4.8324,-4.8267,-4.8187,-4.811,-4.8008,-4.7863,-4.7696,-4.7511,-4.7363,-4.716,-4.702,-4.6865,-4.6678,-4.6477,-4.6332,-4.6179,-4.603,-4.593,-4.577,-4.5684,-4.5641,-4.538,-4.5167,-4.5086,-4.494,-4.4848,-4.4748,-4.4709,-4.4682,-4.4682,-4.4699,-4.4682,-4.4682,-4.472,-4.4765,-4.4765,-4.4831,-4.4886,-4.4869,-4.4968,-4.5005,-4.5059,-4.5086,-4.5113,-4.522,-4.53,-4.5327,-4.53,-4.5257,-4.5438,-4.5847,-4.6707,-4.7411,-4.7794,-4.8328,-4.9055,-4.9722,-5.0215,-5.0532,-5.1184,-5.1402,-5.1556,-5.1765,-5.1889,-5.2011,-5.2156,-5.2304,-5.2439,-5.2508,-5.2622,-5.2739,-5.2342,-5.1912,-5.1241,-5.0644,-4.9742,-4.9125,-4.8502,-4.8248,-4.8248,-4.8248,-4.8286,-4.8286,-4.8305,-4.8324,-4.8305,-4.8267,-4.8286,-4.8267,-5.3185,-5.3185,-5.3185,-5.3185,-5.3185,-5.3185,-5.3185,-5.3185,-5.317,-5.2747,-5.2197,-5.2105,-5.1683,-5.1077,-5.0951,-5.0417,-4.9776,-4.9647,-4.9315,-4.8783,-4.8545,-4.8453,-4.8343,-4.8324,-4.8324,-4.8324,-4.8324,-4.8267,-4.8208,-4.8187,-4.8107,-4.7943,-4.7801,-4.7636,-4.749,-4.7312,-4.7156,-4.7025,-4.6888,-4.6731,-4.6613,-4.6357,-4.6211,-4.6204,-4.5955,-4.5821,-4.5812,-4.5641,-4.5459,-4.522,-4.5059,-4.5005,-4.4978,-4.4869,-4.4803,-4.4803,-4.4803,-4.4803,-4.4831,-4.4913,-4.4968,-4.4968,-4.4978,-4.5022,-4.5005,-4.5059,-4.514,-4.5247,-4.5257,-4.5336,-4.5537,-4.5728,-4.5814,-4.5961,-4.5944,-4.617,-4.6943,-4.7727,-4.8407,-4.9088,-4.9581,-5.0031,-5.0681,-5.1026,-5.1314,-5.1546,-5.1665,-5.184,-5.2029,-5.2126,-5.2264,-5.2387,-5.2467,-5.2581,-5.2672,-5.2739,-5.285,-5.2827,-5.2483,-5.2026,-5.1261,-5.0299,-4.9277,-4.8672,-4.8287,-4.8287,-4.8324,-4.8324,-4.8324,-4.8324,-4.8324,-4.8324,-4.8324,-4.8324,-4.8305,-5.3185,-5.3185,-5.3185,-5.3185,-5.3185,-5.3185,-5.3185,-5.3185,-5.3185,-5.3078,-5.2894,-5.2894,-5.2716,-5.25,-5.1908,-5.1242,-5.0655,-5.0472,-5.0417,-5.0068,-4.9519,-4.8875,-4.8434,-4.8324,-4.8324,-4.8324,-4.8324,-4.8287,-4.8267,-4.8208,-4.8168,-4.8126,-4.7925,-4.778,-4.7636,-4.7508,-4.7341,-4.7209,-4.7048,-4.6952,-4.6865,-4.6619,-4.6471,-4.635,-4.6161,-4.6055,-4.5947,-4.5821,-4.5563,-4.5247,-4.5194,-4.5113,-4.5032,-4.4995,-4.4951,-4.4923,-4.4923,-4.4951,-4.4951,-4.4995,-4.5022,-4.5005,-4.5096,-4.515,-4.5167,-4.5327,-4.5432,-4.5511,-4.5563,-4.5702,-4.5848,-4.6308,-4.6925,-4.7612,-4.7186,-4.7074,-4.7919,-4.8776,-4.9433,-4.9758,-5.0382,-5.0867,-5.1122,-5.141,-5.1615,-5.1715,-5.1864,-5.2036,-5.2222,-5.2293,-5.2364,-5.249,-5.2608,-5.2721,-5.2828,-5.2893,-5.298,-5.3085,-5.2886,-5.2611,-5.1658,-5.0562,-4.9499,-4.8545,-4.8342,-4.8324,-4.8324,-4.8324,-4.8324,-4.8324,-4.8324,-4.8324,-4.8324,-4.8324,-4.8324,-5.3185,-5.3185,-5.3185,-5.3185,-5.3185,-5.3185,-5.3185,-5.3185,-5.3185,-5.3185,-5.3185,-5.3185,-5.3191,-5.3122,-5.2695,-5.2068,-5.1389,-5.1298,-5.1096,-5.071,-5.0288,-4.9444,-4.86,-4.8324,-4.8324,-4.8324,-4.8324,-4.8324,-4.8287,-4.8248,-4.8228,-4.8206,-4.8087,-4.7945,-4.7798,-4.7657,-4.7511,-4.7363,-4.7209,-4.7116,-4.7066,-4.6888,-4.6708,-4.6566,-4.6429,-4.6301,-4.6122,-4.5947,-4.5718,-4.5459,-4.5353,-4.53,-4.5167,-4.5113,-4.5069,-4.5086,-4.5086,-4.5086,-4.5113,-4.514,-4.5194,-4.5247,-4.5327,-4.5406,-4.5459,-4.5632,-4.5684,-4.5693,-4.6048,-4.6324,-4.6601,-4.7288,-4.8213,-4.8921,-4.866,-4.8538,-4.9098,-4.9872,-5.0312,-5.0619,-5.1014,-5.1479,-5.1462,-5.1733,-5.1882,-5.198,-5.206,-5.2251,-5.2374,-5.2397,-5.2485,-5.2627,-5.2721,-5.285,-5.2955,-5.2999,-5.3042,-5.3146,-5.313,-5.2894,-5.2087,-5.0951,-4.9939,-4.9058,-4.8636,-4.8324,-4.8324,-4.8324,-4.8324,-4.8324,-4.8324,-4.8324,-4.8324,-4.8324,-4.8324,-5.3185,-5.3185,-5.3185,-5.3185,-5.3185,-5.3185,-5.3185,-5.3185,-5.3185,-5.3185,-5.3185,-5.3185,-5.3206,-5.3185,-5.3078,-5.2784,-5.2123,-5.2123,-5.161,-5.1224,-5.082,-5.0178,-4.8985,-4.8893,-4.8746,-4.8618,-4.8453,-4.8398,-4.8361,-4.8287,-4.8267,-4.8226,-4.8187,-4.8107,-4.7945,-4.7801,-4.7657,-4.7554,-4.7385,-4.7294,-4.7223,-4.7093,-4.6957,-4.6778,-4.6613,-4.6471,-4.6301,-4.613,-4.5972,-4.5667,-4.5658,-4.5554,-4.5432,-4.531,-4.5283,-4.5283,-4.53,-4.53,-4.53,-4.538,-4.5502,-4.5581,-4.5607,-4.5641,-4.5779,-4.5942,-4.6133,-4.6133,-4.6751,-4.735,-4.7844,-4.8607,-4.9387,-5.0057,-5.0216,-5.0259,-5.0427,-5.0915,-5.1333,-5.1384,-5.1615,-5.1715,-5.179,-5.1956,-5.215,-5.2198,-5.2317,-5.2421,-5.2536,-5.2581,-5.2649,-5.2802,-5.2912,-5.2977,-5.3042,-5.3103,-5.3143,-5.3185,-5.3185,-5.2965,-5.2417,-5.1444,-5.0547,-4.9719,-4.8875,-4.8434,-4.8324,-4.8324,-4.8324,-4.8324,-4.8324,-4.8324,-4.8324,-4.8324,-4.8324,-5.3185,-5.3185,-5.3185,-5.3185,-5.3185,-5.3185,-5.3185,-5.3185,-5.3185,-5.3185,-5.3185,-5.3185,-5.3185,-5.3185,-5.3185,-5.3096,-5.2894,-5.2839,-5.2509,-5.1811,-5.1738,-5.1224,-5.0417,-5.027,-4.9903,-4.9481,-4.9315,-4.8985,-4.8545,-4.8526,-4.8323,-4.8378,-4.8373,-4.8186,-4.8143,-4.7982,-4.7861,-4.7759,-4.7593,-4.745,-4.7425,-4.7276,-4.716,-4.698,-4.6731,-4.659,-4.6542,-4.6495,-4.635,-4.6087,-4.5879,-4.577,-4.5693,-4.5667,-4.5641,-4.5641,-4.5641,-4.5667,-4.5667,-4.5684,-4.5736,-4.5744,-4.5856,-4.5787,-4.5847,-4.6634,-4.6998,-4.7224,-4.7963,-4.8758,-4.9389,-4.9781,-5.041,-5.1062,-5.1351,-5.1486,-5.1632,-5.1615,-5.1672,-5.1858,-5.1956,-5.2011,-5.2029,-5.215,-5.2335,-5.2428,-5.2526,-5.2604,-5.2694,-5.2761,-5.2846,-5.2934,-5.2977,-5.3042,-5.3103,-5.3164,-5.3164,-5.3185,-5.3185,-5.3167,-5.2619,-5.1701,-5.0674,-4.9756,-4.8875,-4.8563,-4.8343,-4.8324,-4.8324,-4.8324,-4.8324,-4.8324,-4.8324,-4.8324,-4.8343,-5.3185,-5.3185,-5.3185,-5.3185,-5.3185,-5.3185,-5.3185,-5.3185,-5.3185,-5.3185,-5.3185,-5.3185,-5.3185,-5.3185,-5.3185,-5.3185,-5.3185,-5.3185,-5.2986,-5.2601,-5.2546,-5.2325,-5.2068,-5.1811,-5.1371,-5.0362,-5.0141,-4.9829,-4.9572,-4.9444,-4.9572,-4.9426,-4.9073,-4.8905,-4.8645,-4.8324,-4.8006,-4.7925,-4.7801,-4.7657,-4.7593,-4.745,-4.732,-4.7138,-4.6934,-4.6778,-4.6795,-4.6637,-4.6542,-4.6398,-4.6253,-4.603,-4.5846,-4.5812,-4.5812,-4.5812,-4.5812,-4.5812,-4.5812,-4.5812,-4.5846,-4.6032,-4.6312,-4.6597,-4.6891,-4.7611,-4.8091,-4.837,-4.9025,-4.9945,-5.0798,-5.1073,-5.1475,-5.1703,-5.1938,-5.2078,-5.2216,-5.2054,-5.1914,-5.2102,-5.2198,-5.2269,-5.2317,-5.241,-5.2526,-5.2663,-5.2645,-5.2739,-5.2828,-5.2912,-5.2977,-5.302,-5.3063,-5.3124,-5.3164,-5.3185,-5.3185,-5.3185,-5.3185,-5.3185,-5.2965,-5.1885,-5.071,-4.9921,-4.9205,-4.8526,-4.8324,-4.8324,-4.8324,-4.8306,-4.8306,-4.8324,-4.8324,-4.8325,-4.8382,-5.3185,-5.3185,-5.3185,-5.3185,-5.3185,-5.3185,-5.3185,-5.3185,-5.3185,-5.3185,-5.3185,-5.3185,-5.3185,-5.3185,-5.3185,-5.3185,-5.3185,-5.3185,-5.3075,-5.3075,-5.3038,-5.3002,-5.2947,-5.2839,-5.2435,-5.1224,-5.1022,-5.0894,-5.071,-5.0802,-5.049,-5.06,-5.0123,-4.9753,-4.9472,-4.8992,-4.8676,-4.8669,-4.8345,-4.8151,-4.7959,-4.7762,-4.749,-4.732,-4.716,-4.703,-4.6985,-4.687,-4.669,-4.6661,-4.6661,-4.6469,-4.6195,-4.5939,-4.5905,-4.5947,-4.5998,-4.6145,-4.632,-4.6277,-4.637,-4.6594,-4.7209,-4.7671,-4.8056,-4.865,-4.9125,-4.9536,-5.008,-5.093,-5.1799,-5.1928,-5.206,-5.2174,-5.218,-5.2317,-5.2434,-5.2322,-5.2275,-5.2275,-5.2415,-5.2508,-5.2554,-5.2645,-5.2757,-5.2846,-5.2846,-5.289,-5.2977,-5.306,-5.3103,-5.3103,-5.3124,-5.3146,-5.3185,-5.3251,-5.323,-5.3251,-5.3248,-5.3269,-5.3141,-5.1969,-5.0865,-5.0363,-4.9682,-4.8857,-4.8324,-4.8324,-4.8324,-4.8306,-4.8344,-4.8382,-4.8363,-4.8344,-4.8401,-5.3185,-5.3185,-5.3185,-5.3185,-5.3185,-5.3185,-5.3185,-5.3185,-5.3185,-5.3185,-5.3185,-5.3185,-5.3185,-5.3185,-5.3185,-5.3185,-5.3185,-5.3185,-5.3185,-5.3185,-5.3185,-5.3185,-5.3185,-5.3185,-5.2968,-5.2729,-5.216,-5.1518,-5.1077,-5.082,-5.1096,-5.0875,-5.0692,-5.058,-5.0503,-5.0297,-4.9982,-4.9759,-4.9307,-4.8967,-4.8795,-4.8366,-4.7932,-4.7764,-4.7607,-4.7487,-4.7379,-4.7263,-4.7102,-4.6957,-4.6934,-4.7163,-4.7285,-4.6912,-4.6658,-4.661,-4.6645,-4.6885,-4.7273,-4.7446,-4.7848,-4.8364,-4.8629,-4.8725,-4.9018,-4.9646,-5.0178,-5.0526,-5.1112,-5.185,-5.2042,-5.2275,-5.241,-5.2457,-5.2531,-5.2649,-5.2694,-5.2712,-5.2667,-5.2672,-5.2717,-5.2739,-5.2761,-5.2806,-5.2915,-5.298,-5.3042,-5.3085,-5.3167,-5.3188,-5.3206,-5.3206,-5.3185,-5.3185,-5.3185,-5.3254,-5.3297,-5.3336,-5.3336,-5.3398,-5.3013,-5.1945,-5.1095,-5.0609,-4.9723,-4.8656,-4.8344,-4.8325,-4.8382,-4.8438,-4.8457,-4.8476,-4.8458,-4.8458,-4.8532,-5.3185,-5.3185,-5.3185,-5.3185,-5.3185,-5.3185,-5.3185,-5.3185,-5.3185,-5.3185,-5.3185,-5.3185,-5.3185,-5.3185,-5.3185,-5.3185,-5.3185,-5.3185,-5.3185,-5.3185,-5.3185,-5.3185,-5.3185,-5.3185,-5.3185,-5.3075,-5.2747,-5.2435,-5.2087,-5.2105,-5.1956,-5.1958,-5.1683,-5.1426,-5.1279,-5.089,-5.0776,-5.0591,-5.0216,-4.9896,-4.9833,-4.9331,-4.9056,-4.8912,-4.8706,-4.8654,-4.8632,-4.8565,-4.8515,-4.846,-4.8419,-4.8547,-4.8561,-4.8437,-4.8081,-4.7908,-4.7824,-4.7959,-4.8349,-4.8438,-4.8639,-4.907,-4.9504,-4.9826,-5.0162,-5.073,-5.1257,-5.1533,-5.1778,-5.2322,-5.2374,-5.2536,-5.2622,-5.2667,-5.2757,-5.2828,-5.2893,-5.2977,-5.3002,-5.3023,-5.2959,-5.2915,-5.2915,-5.298,-5.3066,-5.3151,-5.3233,-5.3274,-5.3334,-5.3334,-5.3332,-5.3314,-5.3314,-5.3314,-5.3314,-5.3357,-5.34,-5.3439,-5.3479,-5.3519,-5.304,-5.2042,-5.1412,-5.0928,-4.9858,-4.8587,-4.8439,-4.8476,-4.8513,-4.8532,-4.855,-4.855,-4.8569,-4.8605,-4.866,-5.3185,-5.3185,-5.3185,-5.3185,-5.3185,-5.3185,-5.3185,-5.3185,-5.3185,-5.3185,-5.3185,-5.3185,-5.3185,-5.3185,-5.3185,-5.3185,-5.3185,-5.3185,-5.3185,-5.3185,-5.3185,-5.3185,-5.3185,-5.3185,-5.3185,-5.3185,-5.3151,-5.3185,-5.3002,-5.2983,-5.3112,-5.2892,-5.2435,-5.2234,-5.2105,-5.1754,-5.1353,-5.1222,-5.0998,-5.0845,-5.0597,-5.0414,-5.0307,-5.0307,-5.0115,-4.9937,-4.9784,-4.9699,-4.9627,-4.9599,-4.9631,-4.9711,-4.9909,-4.9944,-4.9829,-4.9642,-4.933,-4.9223,-4.939,-4.9432,-4.9643,-5.0121,-5.0521,-5.0874,-5.115,-5.164,-5.2173,-5.2405,-5.248,-5.2577,-5.2627,-5.2743,-5.2828,-5.289,-5.2893,-5.2959,-5.3088,-5.3191,-5.3274,-5.3235,-5.3151,-5.3151,-5.3172,-5.3172,-5.3277,-5.3297,-5.3357,-5.3378,-5.3418,-5.3439,-5.3439,-5.3459,-5.3459,-5.3459,-5.3459,-5.3516,-5.3519,-5.3539,-5.3579,-5.3638,-5.3027,-5.2249,-5.1693,-5.1046,-4.9842,-4.8785,-4.8695,-4.8605,-4.8605,-4.8605,-4.8624,-4.866,-4.8695,-4.8767,-4.8821,-5.3185,-5.3185,-5.3185,-5.3185,-5.3185,-5.3185,-5.3185,-5.3185,-5.3185,-5.3185,-5.3185,-5.3185,-5.3185,-5.3185,-5.3185,-5.3185,-5.3185,-5.3185,-5.3185,-5.3185,-5.3185,-5.3185,-5.3185,-5.3185,-5.3185,-5.3185,-5.3185,-5.3185,-5.3185,-5.3185,-5.3185,-5.3112,-5.3078,-5.3023,-5.2837,-5.2674,-5.291,-5.2747,-5.2158,-5.1474,-5.0861,-5.0626,-5.0581,-5.0523,-5.0499,-5.0489,-5.0511,-5.0482,-5.0347,-5.0119,-5.0024,-5.0204,-5.0615,-5.0753,-5.1185,-5.1078,-5.0647,-4.9923,-5.051,-5.0605,-5.0868,-5.1317,-5.1736,-5.1898,-5.2006,-5.2165,-5.2526,-5.2735,-5.2757,-5.2761,-5.2846,-5.2934,-5.302,-5.3109,-5.3172,-5.3256,-5.338,-5.34,-5.3479,-5.3519,-5.3461,-5.3461,-5.3481,-5.3479,-5.3479,-5.3499,-5.3499,-5.3519,-5.3539,-5.3559,-5.3599,-5.3619,-5.3638,-5.3658,-5.3678,-5.3716,-5.3716,-5.3696,-5.3716,-5.3719,-5.3032,-5.2364,-5.1713,-5.0931,-4.9755,-4.8978,-4.8819,-4.8731,-4.8696,-4.8732,-4.8821,-4.8856,-4.8874,-4.8909,-4.8979,-5.3185,-5.3185,-5.3185,-5.3185,-5.3185,-5.3185,-5.3185,-5.3185,-5.3185,-5.3185,-5.3185,-5.3185,-5.3185,-5.3185,-5.3185,-5.3185,-5.3185,-5.3185,-5.3185,-5.3185,-5.3185,-5.3185,-5.3185,-5.3185,-5.3185,-5.3185,-5.3185,-5.3185,-5.3185,-5.3185,-5.3185,-5.3185,-5.3185,-5.3148,-5.3185,-5.3185,-5.3167,-5.3057,-5.2818,-5.2506,-5.215,-5.1938,-5.1856,-5.1837,-5.1755,-5.1672,-5.1646,-5.1697,-5.1675,-5.1546,-5.1546,-5.1588,-5.1787,-5.1873,-5.2072,-5.2198,-5.1782,-5.1468,-5.1574,-5.1568,-5.1856,-5.2131,-5.234,-5.2351,-5.2485,-5.2599,-5.269,-5.2783,-5.2937,-5.302,-5.3063,-5.3191,-5.3295,-5.3378,-5.34,-5.344,-5.3541,-5.362,-5.3678,-5.3717,-5.3774,-5.3756,-5.3717,-5.3678,-5.3658,-5.3657,-5.3678,-5.3697,-5.3678,-5.3678,-5.3755,-5.3831,-5.385,-5.3832,-5.3889,-5.3945,-5.3945,-5.3926,-5.3945,-5.3758,-5.3087,-5.2434,-5.1724,-5.0883,-4.9801,-4.923,-4.8962,-4.8925,-4.8942,-4.8978,-4.903,-4.9012,-4.9012,-4.9062,-4.9131,-5.3185,-5.3185,-5.3185,-5.3185,-5.3185,-5.3185,-5.3185,-5.3185,-5.3185,-5.3185,-5.3185,-5.3185,-5.3185,-5.3185,-5.3185,-5.3185,-5.3185,-5.3185,-5.3185,-5.3185,-5.3185,-5.3185,-5.3185,-5.3185,-5.3185,-5.3185,-5.3185,-5.3185,-5.3185,-5.3185,-5.3185,-5.3185,-5.3185,-5.3185,-5.3185,-5.3185,-5.3185,-5.3167,-5.3148,-5.3075,-5.3036,-5.2993,-5.2969,-5.2965,-5.2937,-5.2872,-5.285,-5.2795,-5.2777,-5.2674,-5.2597,-5.2516,-5.2522,-5.2522,-5.2518,-5.259,-5.2372,-5.2359,-5.2271,-5.2237,-5.2392,-5.2503,-5.2595,-5.264,-5.2802,-5.289,-5.2915,-5.294,-5.3148,-5.3254,-5.3295,-5.3418,-5.3479,-5.3539,-5.3579,-5.3619,-5.3659,-5.3775,-5.387,-5.3889,-5.3944,-5.4,-5.3963,-5.387,-5.3831,-5.3812,-5.385,-5.387,-5.3851,-5.3851,-5.3889,-5.3982,-5.3982,-5.3981,-5.4018,-5.4091,-5.4109,-5.4127,-5.4127,-5.3735,-5.3045,-5.2314,-5.1598,-5.07,-4.9802,-4.9533,-4.9289,-4.9244,-4.9197,-4.9164,-4.9131,-4.9164,-4.9162,-4.923,-4.9311,-5.3185,-5.3185,-5.3185,-5.3185,-5.3185,-5.3185,-5.3185,-5.3185,-5.3185,-5.3185,-5.3185,-5.3185,-5.3185,-5.3185,-5.3185,-5.3185,-5.3185,-5.3185,-5.3185,-5.3185,-5.3185,-5.3185,-5.3185,-5.3185,-5.3185,-5.3185,-5.3185,-5.3185,-5.3185,-5.3185,-5.3185,-5.3185,-5.3185,-5.3185,-5.3185,-5.3185,-5.3185,-5.3185,-5.3185,-5.3185,-5.3185,-5.3164,-5.3164,-5.3164,-5.3146,-5.3103,-5.2999,-5.2999,-5.2955,-5.285,-5.285,-5.2828,-5.2806,-5.2783,-5.2783,-5.2783,-5.2783,-5.2757,-5.2712,-5.2649,-5.2717,-5.2761,-5.2806,-5.2868,-5.298,-5.3106,-5.3191,-5.3217,-5.3398,-5.3479,-5.3479,-5.3519,-5.3659,-5.3717,-5.3794,-5.3851,-5.3907,-5.4,-5.4073,-5.4091,-5.4145,-5.4234,-5.4252,-5.4181,-5.4019,-5.3982,-5.3963,-5.4,-5.4018,-5.4018,-5.4055,-5.4091,-5.4109,-5.409,-5.4108,-5.418,-5.4268,-5.4268,-5.4268,-5.3691,-5.2947,-5.2212,-5.1616,-5.0673,-4.9878,-4.9744,-4.96,-4.9464,-4.9358,-4.9246,-4.923,-4.9327,-4.934,-4.9371,-4.948,-5.3185,-5.3185,-5.3185,-5.3185,-5.3185,-5.3185,-5.3185,-5.3185,-5.3185,-5.3185,-5.3185,-5.3185,-5.3185,-5.3185,-5.3185,-5.3185,-5.3185,-5.3185,-5.3185,-5.3185,-5.3185,-5.3185,-5.3185,-5.3185,-5.3185,-5.3185,-5.3185,-5.3185,-5.3185,-5.3185,-5.3185,-5.3185,-5.3185,-5.3185,-5.3185,-5.3185,-5.3185,-5.3185,-5.3185,-5.3185,-5.3185,-5.3185,-5.3185,-5.3185,-5.3185,-5.3185,-5.3124,-5.3124,-5.3082,-5.3042,-5.3039,-5.2977,-5.2934,-5.2934,-5.2934,-5.2915,-5.2934,-5.2977,-5.3017,-5.2934,-5.2828,-5.2955,-5.3023,-5.3112,-5.3172,-5.3316,-5.3378,-5.3461,-5.358,-5.3678,-5.3678,-5.3794,-5.3926,-5.3963,-5.4018,-5.4073,-5.4145,-5.4233,-5.4285,-5.4303,-5.4407,-5.4526,-5.4526,-5.4493,-5.4304,-5.4145,-5.4127,-5.4109,-5.4163,-5.4198,-5.4233,-5.4285,-5.4303,-5.4354,-5.4354,-5.4424,-5.4458,-5.4441,-5.4405,-5.3675,-5.2947,-5.2465,-5.1789,-5.0802,-5.0007,-4.9839,-4.9673,-4.9604,-4.9514,-4.9452,-4.9468,-4.9544,-4.9559,-4.954,-4.963,-5.3185,-5.3185,-5.3185,-5.3185,-5.3185,-5.3185,-5.3185,-5.3185,-5.3185,-5.3185,-5.3185,-5.3185,-5.3185,-5.3185,-5.3185,-5.3185,-5.3185,-5.3185,-5.3185,-5.3185,-5.3185,-5.3185,-5.3185,-5.3185,-5.3185,-5.3185,-5.3185,-5.3185,-5.3185,-5.3185,-5.3185,-5.3185,-5.3185,-5.3185,-5.3185,-5.3185,-5.3185,-5.3185,-5.3185,-5.3185,-5.3185,-5.3185,-5.3185,-5.3185,-5.3185,-5.3185,-5.3185,-5.3185,-5.3185,-5.3164,-5.3164,-5.3124,-5.3103,-5.3082,-5.3063,-5.3066,-5.3088,-5.3148,-5.317,-5.3106,-5.3023,-5.317,-5.3256,-5.332,-5.3381,-5.3501,-5.358,-5.36,-5.3756,-5.3889,-5.3889,-5.3981,-5.4109,-5.4163,-5.4199,-5.4233,-5.4373,-5.4458,-5.4491,-5.4524,-5.4625,-5.4676,-5.4657,-5.4641,-5.4557,-5.4424,-5.4407,-5.439,-5.4407,-5.4424,-5.4441,-5.4474,-5.4508,-5.4592,-5.4676,-5.4625,-5.4573,-5.4573,-5.4385,-5.366,-5.3016,-5.2549,-5.1725,-5.0539,-4.9948,-4.9839,-4.9802,-4.9816,-4.9764,-4.9678,-4.9692,-4.9707,-4.9774,-4.9769,-4.9802,-5.3185,-5.3185,-5.3185,-5.3185,-5.3185,-5.3185,-5.3185,-5.3185,-5.3185,-5.3185,-5.3185,-5.3185,-5.3185,-5.3185,-5.3185,-5.3185,-5.3185,-5.3185,-5.3185,-5.3185,-5.3185,-5.3185,-5.3185,-5.3185,-5.3185,-5.3185,-5.3185,-5.3185,-5.3185,-5.3185,-5.3185,-5.3185,-5.3185,-5.3185,-5.3185,-5.3185,-5.3185,-5.3185,-5.3185,-5.3185,-5.3185,-5.3185,-5.3185,-5.3185,-5.3185,-5.3185,-5.3185,-5.3185,-5.3185,-5.3185,-5.3227,-5.3188,-5.3188,-5.3206,-5.323,-5.3277,-5.3277,-5.3359,-5.3459,-5.3359,-5.3359,-5.34,-5.3461,-5.3501,-5.3541,-5.3659,-5.3794,-5.3813,-5.3981,-5.4073,-5.4109,-5.4127,-5.4251,-5.4339,-5.4373,-5.4441,-5.4576,-5.4657,-5.467,-5.473,-5.4736,-5.4723,-5.4736,-5.4752,-5.4752,-5.472,-5.4689,-5.4673,-5.4622,-5.4654,-5.467,-5.4702,-5.4733,-5.478,-5.481,-5.4767,-5.472,-5.4705,-5.445,-5.3812,-5.3122,-5.256,-5.1561,-5.0301,-4.9978,-4.9952,-5.0018,-5.007,-4.9978,-4.9885,-4.9848,-4.983,-4.9925,-4.9959,-4.9978,-5.3185,-5.3185,-5.3185,-5.3185,-5.3185,-5.3185,-5.3185,-5.3185,-5.3185,-5.3185,-5.3185,-5.3185,-5.3185,-5.3185,-5.3185,-5.3185,-5.3185,-5.3185,-5.3185,-5.3185,-5.3185,-5.3185,-5.3185,-5.3185,-5.3185,-5.3185,-5.3185,-5.3185,-5.3185,-5.3185,-5.3185,-5.3185,-5.3185,-5.3185,-5.3185,-5.3185,-5.3185,-5.3185,-5.3185,-5.3185,-5.3185,-5.3185,-5.3185,-5.3185,-5.3185,-5.3206,-5.3206,-5.3206,-5.3227,-5.3227,-5.3251,-5.3274,-5.3295,-5.3316,-5.3398,-5.342,-5.342,-5.3499,-5.3617,-5.3599,-5.358,-5.3599,-5.362,-5.3698,-5.3698,-5.3889,-5.3963,-5.4036,-5.418,-5.4268,-5.4304,-5.4441,-5.4559,-5.4576,-5.4608,-5.467,-5.4767,-5.4795,-5.4837,-5.4922,-5.4971,-5.4941,-5.4941,-5.4927,-5.4912,-5.4931,-5.4901,-5.4841,-5.4791,-5.4852,-5.4882,-5.4912,-5.4941,-5.4971,-5.4956,-5.4897,-5.4882,-5.4897,-5.4657,-5.4202,-5.3489,-5.2639,-5.1602,-5.0425,-5.0247,-5.0127,-5.0145,-5.0182,-5.0158,-5.0076,-5.0057,-5.0018,-5.007,-5.0095,-5.0057,-5.3185,-5.3185,-5.3185,-5.3185,-5.3185,-5.3185,-5.3185,-5.3185,-5.3185,-5.3185,-5.3185,-5.3185,-5.3185,-5.3185,-5.3185,-5.3185,-5.3185,-5.3185,-5.3185,-5.3185,-5.3185,-5.3185,-5.3185,-5.3185,-5.3185,-5.3185,-5.3185,-5.3185,-5.3185,-5.3185,-5.3185,-5.3185,-5.3185,-5.3185,-5.3185,-5.3185,-5.3185,-5.3185,-5.3185,-5.3185,-5.3185,-5.3185,-5.3185,-5.3206,-5.3227,-5.3251,-5.3251,-5.3272,-5.3293,-5.3314,-5.3336,-5.338,-5.34,-5.344,-5.3519,-5.3539,-5.3638,-5.3716,-5.3832,-5.387,-5.3832,-5.3775,-5.3851,-5.3889,-5.3926,-5.4091,-5.4181,-5.4269,-5.439,-5.4458,-5.4508,-5.4673,-5.4705,-5.472,-5.478,-5.4841,-5.4912,-5.4956,-5.4985,-5.508,-5.5121,-5.5121,-5.5149,-5.5135,-5.5107,-5.5113,-5.5118,-5.5061,-5.4971,-5.5014,-5.5057,-5.5071,-5.5071,-5.5052,-5.5052,-5.5038,-5.5052,-5.5075,-5.4817,-5.452,-5.3478,-5.2557,-5.1567,-5.069,-5.0429,-5.0262,-5.0255,-5.0267,-5.0278,-5.029,-5.029,-5.0267,-5.0243,-5.0219,-5.0207,-5.3185,-5.3185,-5.3185,-5.3185,-5.3185,-5.3185,-5.3185,-5.3185,-5.3185,-5.3185,-5.3185,-5.3185,-5.3185,-5.3185,-5.3185,-5.3185,-5.3185,-5.3185,-5.3185,-5.3185,-5.3185,-5.3185,-5.3185,-5.3185,-5.3185,-5.3185,-5.3185,-5.3185,-5.3185,-5.3185,-5.3185,-5.3185,-5.3185,-5.3206,-5.3206,-5.3209,-5.3206,-5.3206,-5.3185,-5.3206,-5.3209,-5.3227,-5.3248,-5.3272,-5.3295,-5.3297,-5.3339,-5.3398,-5.3459,-5.3479,-5.3518,-5.3518,-5.3519,-5.3519,-5.3616,-5.3734,-5.3907,-5.3982,-5.4055,-5.4055,-5.4109,-5.4055,-5.4127,-5.4127,-5.4163,-5.4287,-5.4373,-5.4458,-5.4559,-5.4641,-5.4705,-5.4752,-5.478,-5.4841,-5.4882,-5.4971,-5.5052,-5.5094,-5.5107,-5.5149,-5.5176,-5.5189,-5.5255,-5.5255,-5.5268,-5.5301,-5.5307,-5.5261,-5.5176,-5.5146,-5.5154,-5.5154,-5.5154,-5.5135,-5.5135,-5.5157,-5.5197,-5.5223,-5.5101,-5.4733,-5.3614,-5.2571,-5.1749,-5.1051,-5.0608,-5.0401,-5.039,-5.0424,-5.0468,-5.0468,-5.0457,-5.0416,-5.0371,-5.0412,-5.0412,-5.3185,-5.3185,-5.3185,-5.3185,-5.3185,-5.3185,-5.3185,-5.3185,-5.3185,-5.3185,-5.3185,-5.3185,-5.3185,-5.3185,-5.3185,-5.3185,-5.3185,-5.3185,-5.3185,-5.3185,-5.3206,-5.3206,-5.3206,-5.3206,-5.3206,-5.3206,-5.3206,-5.3227,-5.3206,-5.3206,-5.3206,-5.3185,-5.3227,-5.323,-5.3254,-5.3256,-5.3251,-5.3248,-5.3227,-5.3251,-5.3274,-5.3274,-5.3334,-5.3378,-5.34,-5.342,-5.3461,-5.3481,-5.3501,-5.3539,-5.3616,-5.3636,-5.3636,-5.3774,-5.3907,-5.3982,-5.4055,-5.4073,-5.4146,-5.4252,-5.4321,-5.4356,-5.4424,-5.4426,-5.4443,-5.4493,-5.4608,-5.4657,-5.472,-5.478,-5.4841,-5.4886,-5.4931,-5.4985,-5.5042,-5.508,-5.5176,-5.5216,-5.5229,-5.5281,-5.5294,-5.532,-5.5371,-5.5383,-5.5395,-5.547,-5.547,-5.5415,-5.5358,-5.5313,-5.5294,-5.5261,-5.5275,-5.5275,-5.5294,-5.5333,-5.5339,-5.5345,-5.5243,-5.481,-5.3573,-5.2602,-5.1966,-5.1319,-5.0689,-5.0489,-5.0478,-5.0521,-5.0544,-5.0563,-5.0542,-5.0532,-5.0502,-5.0542,-5.0553,-5.3185,-5.3185,-5.3185,-5.3185,-5.3185,-5.3185,-5.3185,-5.3185,-5.3185,-5.3185,-5.3185,-5.3185,-5.3185,-5.3185,-5.3185,-5.3185,-5.3185,-5.3185,-5.3188,-5.3233,-5.3251,-5.3293,-5.3293,-5.3314,-5.3334,-5.3314,-5.3314,-5.3355,-5.3314,-5.3332,-5.3314,-5.3334,-5.3314,-5.3355,-5.3378,-5.338,-5.3359,-5.3355,-5.3334,-5.3336,-5.3378,-5.338,-5.344,-5.3499,-5.3539,-5.3559,-5.3579,-5.3599,-5.362,-5.3678,-5.3792,-5.3831,-5.385,-5.3982,-5.411,-5.4181,-5.4234,-5.4304,-5.4373,-5.4476,-5.451,-5.4559,-5.4654,-5.4686,-5.467,-5.4702,-5.4749,-5.478,-5.4871,-5.4927,-5.4971,-5.5033,-5.5085,-5.5135,-5.5176,-5.5197,-5.5268,-5.5307,-5.5371,-5.542,-5.5456,-5.5468,-5.5492,-5.5523,-5.5523,-5.5499,-5.5499,-5.5488,-5.5444,-5.542,-5.5415,-5.5402,-5.5402,-5.5415,-5.5451,-5.5444,-5.5456,-5.5468,-5.5437,-5.4786,-5.3548,-5.2686,-5.2091,-5.1365,-5.063,-5.0573,-5.0575,-5.0595,-5.0615,-5.0615,-5.0664,-5.0654,-5.0644,-5.0625,-5.0635,-5.3227,-5.3227,-5.3227,-5.3248,-5.3227,-5.3227,-5.3227,-5.3227,-5.3248,-5.3227,-5.3209,-5.3225,-5.3227,-5.3251,-5.3251,-5.3251,-5.3251,-5.3251,-5.3274,-5.33,-5.3318,-5.3378,-5.3439,-5.3499,-5.3439,-5.3479,-5.3479,-5.3439,-5.3479,-5.3459,-5.3439,-5.3499,-5.3479,-5.3479,-5.3499,-5.3519,-5.3519,-5.3539,-5.3539,-5.3559,-5.3519,-5.3519,-5.3519,-5.3579,-5.3657,-5.3734,-5.3754,-5.3812,-5.387,-5.3963,-5.4,-5.4037,-5.411,-5.4146,-5.4252,-5.4356,-5.4426,-5.4474,-5.4576,-5.4657,-5.4689,-5.4752,-5.4845,-5.4867,-5.4882,-5.4882,-5.4916,-5.4912,-5.4985,-5.5023,-5.5066,-5.5121,-5.5176,-5.5242,-5.5294,-5.5314,-5.5351,-5.542,-5.5468,-5.5516,-5.5539,-5.5581,-5.5562,-5.5573,-5.5604,-5.5558,-5.5558,-5.5558,-5.5539,-5.5516,-5.5504,-5.5511,-5.5488,-5.5488,-5.5504,-5.5516,-5.5516,-5.5527,-5.5527,-5.4733,-5.3462,-5.276,-5.2212,-5.142,-5.0635,-5.0673,-5.0702,-5.0702,-5.0711,-5.073,-5.0776,-5.0784,-5.0784,-5.0738,-5.071,-5.3336,-5.34,-5.3418,-5.3418,-5.3418,-5.3418,-5.3418,-5.3418,-5.3418,-5.3378,-5.3277,-5.3277,-5.3336,-5.3398,-5.3398,-5.3398,-5.3398,-5.3378,-5.3439,-5.3459,-5.344,-5.3479,-5.3519,-5.3521,-5.3519,-5.3499,-5.3499,-5.3539,-5.3559,-5.3539,-5.3519,-5.3519,-5.3559,-5.3599,-5.3676,-5.3676,-5.3678,-5.3736,-5.3793,-5.3755,-5.3676,-5.3676,-5.3676,-5.3812,-5.3926,-5.3944,-5.3963,-5.4019,-5.4036,-5.4091,-5.4055,-5.4145,-5.4321,-5.4321,-5.4443,-5.4576,-5.4643,-5.4673,-5.4717,-5.4814,-5.4841,-5.4901,-5.4956,-5.5028,-5.5038,-5.5057,-5.5071,-5.5066,-5.5094,-5.5135,-5.5189,-5.521,-5.5262,-5.5345,-5.5408,-5.5425,-5.5461,-5.5527,-5.5573,-5.5615,-5.5638,-5.5649,-5.5629,-5.566,-5.5671,-5.5671,-5.5671,-5.5671,-5.564,-5.5629,-5.5585,-5.5562,-5.5516,-5.5516,-5.5551,-5.5585,-5.5596,-5.5618,-5.564,-5.4641,-5.3411,-5.2547,-5.1798,-5.1241,-5.0701,-5.0748,-5.0766,-5.0775,-5.0793,-5.0827,-5.0863,-5.0869,-5.0885,-5.085,-5.0816,-5.342,-5.3499,-5.3499,-5.3499,-5.3499,-5.3499,-5.3499,-5.3499,-5.3499,-5.3499,-5.3459,-5.3439,-5.344,-5.3499,-5.3499,-5.3519,-5.3519,-5.3499,-5.3519,-5.3559,-5.3617,-5.3619,-5.3619,-5.362,-5.3639,-5.362,-5.3697,-5.3736,-5.3697,-5.3756,-5.3794,-5.3756,-5.3756,-5.3793,-5.3869,-5.3888,-5.387,-5.3945,-5.4019,-5.3982,-5.3869,-5.3888,-5.3926,-5.4037,-5.4055,-5.4073,-5.4091,-5.4109,-5.4163,-5.4252,-5.4339,-5.4407,-5.4508,-5.4543,-5.4606,-5.4717,-5.478,-5.481,-5.4871,-5.4927,-5.5004,-5.5028,-5.5066,-5.5135,-5.5189,-5.5189,-5.5189,-5.5203,-5.5242,-5.5294,-5.532,-5.5339,-5.5376,-5.5425,-5.5504,-5.5539,-5.5573,-5.5618,-5.566,-5.566,-5.5682,-5.5682,-5.5662,-5.5662,-5.5692,-5.5692,-5.5703,-5.5714,-5.5695,-5.5735,-5.5692,-5.566,-5.5607,-5.5585,-5.5618,-5.5651,-5.5662,-5.5695,-5.5745,-5.4697,-5.3571,-5.2309,-5.1335,-5.0978,-5.0784,-5.0812,-5.0829,-5.0863,-5.0877,-5.0909,-5.0925,-5.096,-5.0956,-5.0952,-5.0956,-5.3539,-5.3559,-5.3579,-5.3561,-5.3579,-5.3599,-5.358,-5.3599,-5.3599,-5.3676,-5.3754,-5.3638,-5.3579,-5.3539,-5.3539,-5.3559,-5.3579,-5.3658,-5.3676,-5.3735,-5.3773,-5.3793,-5.3813,-5.3832,-5.3832,-5.3851,-5.3926,-5.3945,-5.3945,-5.3981,-5.4018,-5.4091,-5.4128,-5.411,-5.4128,-5.411,-5.4091,-5.4073,-5.4128,-5.4163,-5.4127,-5.4109,-5.4109,-5.4109,-5.4145,-5.4145,-5.4163,-5.4198,-5.4285,-5.439,-5.4559,-5.4641,-5.4689,-5.472,-5.4795,-5.4867,-5.4931,-5.4971,-5.5038,-5.508,-5.5107,-5.5149,-5.5203,-5.5249,-5.532,-5.5314,-5.5301,-5.5345,-5.5383,-5.5408,-5.5432,-5.5468,-5.5473,-5.5508,-5.5585,-5.5618,-5.5651,-5.5703,-5.5703,-5.5714,-5.5724,-5.5724,-5.5735,-5.5724,-5.5724,-5.5724,-5.5724,-5.5724,-5.5735,-5.5796,-5.5796,-5.5775,-5.5754,-5.5735,-5.5735,-5.5735,-5.5745,-5.5766,-5.5681,-5.4728,-5.3715,-5.2509,-5.1543,-5.0982,-5.0836,-5.0888,-5.0913,-5.0945,-5.0975,-5.0986,-5.1005,-5.1012,-5.1035,-5.1037,-5.1082,-5.3773,-5.3907,-5.3907,-5.3926,-5.3981,-5.3981,-5.3963,-5.4,-5.3981,-5.4019,-5.4,-5.4,-5.3907,-5.3755,-5.3755,-5.3774,-5.3832,-5.3851,-5.3926,-5.4,-5.3963,-5.4,-5.4018,-5.3981,-5.4036,-5.4055,-5.4055,-5.4073,-5.4127,-5.4127,-5.4109,-5.4145,-5.4127,-5.4127,-5.4146,-5.4146,-5.4181,-5.4217,-5.4287,-5.4339,-5.4287,-5.4269,-5.4216,-5.4251,-5.4339,-5.4441,-5.4524,-5.4557,-5.459,-5.4641,-5.4689,-5.4783,-5.4845,-5.4871,-5.4927,-5.4995,-5.5038,-5.508,-5.5149,-5.5229,-5.5255,-5.5268,-5.5326,-5.542,-5.5456,-5.5456,-5.5456,-5.5468,-5.5492,-5.5492,-5.5516,-5.5551,-5.5573,-5.5607,-5.564,-5.5673,-5.5714,-5.5724,-5.5735,-5.5756,-5.5776,-5.5806,-5.5855,-5.5845,-5.5845,-5.5845,-5.5845,-5.5845,-5.5826,-5.5865,-5.5895,-5.5885,-5.5875,-5.5875,-5.5865,-5.5845,-5.5855,-5.5875,-5.5663,-5.4852,-5.3886,-5.2747,-5.1876,-5.1164,-5.0945,-5.0983,-5.1005,-5.1012,-5.1034,-5.1055,-5.1067,-5.1081,-5.1095,-5.1107,-5.1132]},{"header":{"parameterUnit":"m.s-1","parameterCategory":1,"la1":31.0,"la2":29.5877,"lo1":-88.7671,"lo2":-86.6584,"dy":0.0162,"dx":0.0185,"nx":115,"ny":88,"refTime":"2023-08-23T18:00:00:Z","depth":0,"parameterNumber":3,"parameterNumberName":"V-component_of_WINDS"},"data":[0.0,0.0,0.0,0.0,0.0,0.0,0.0,0.0,0.0,0.0,0.0,0.0,0.0,0.0,0.0,0.0,0.0,0.0,0.0,0.0,0.0,0.0,0.0,0.0,0.0,0.0,0.0,0.0,0.0,0.0,0.0,0.0,0.0,0.0,0.0,0.0,0.0,0.0,0.0,0.0,0.0,0.0,0.0,0.0,0.0,0.0,0.0,0.0,0.0,0.0,0.0,0.0,0.0,0.0,0.0,0.0,0.0,0.0,0.0,0.0,0.0,0.0,0.0,0.0,0.0,0.0,0.0,0.0,0.0,0.0,0.0,0.0,0.0,0.0,0.0,0.0,0.0,0.0,0.0,0.0,0.0,0.0,0.0,0.0,0.0,0.0,0.0,0.0,0.0,0.0,0.0,0.0,0.0,0.0,0.0,0.0,0.0,0.0,0.0,0.0,0.0,0.0,0.0,0.0,0.0,0.0,0.0,0.0,0.0,0.0,0.0,0.0,0.0,0.0,0.0,0.0,0.0,0.0,0.0,0.0,0.0,0.0,0.0,0.0,0.0,0.0,0.0,0.0,0.0,0.0,0.0,0.0,0.0,0.0,0.0,0.0,0.0,0.0,0.0,0.0,0.0,0.0,0.0,0.0,0.0,0.0,0.0,0.0,0.0,0.0,0.0,0.0,0.0,0.0,0.0,0.0,0.0,0.0,0.0,0.0,0.0,0.0,0.0,0.0,0.0,0.0,0.0,0.0,0.0,0.0,0.0,0.0,0.0,0.0,0.0,0.0,0.0,0.0,0.0,0.0,0.0,0.0,0.0,0.0,0.0,0.0,0.0,0.0,0.0,0.0,0.0,0.0,0.0,0.0,0.0,0.0,0.0,0.0,0.0,0.0,0.0,0.0,0.0,0.0,0.0,0.0,0.0,0.0,0.0,0.0,0.0,0.0,0.0,0.0,0.0,0.0,0.0,0.0,0.0,0.0,0.0,0.0,0.0,0.0,0.0,0.0,0.0,0.0,0.0,0.0,0.0,0.0,0.0,0.0,0.0,0.0,0.0,0.0,0.0,0.0,0.0,0.0,0.0,0.0,0.0,0.0,0.0,0.0,0.0,0.0,0.0,0.0,0.0,0.0,0.0,0.0,0.0,0.0,0.0,0.0,0.0,0.0,0.0,0.0,0.0,0.0,0.0,0.0,0.0,0.0,0.0,0.0,0.0,0.0,0.0,0.0,0.0,0.0,0.0,0.0,0.0,0.0,0.0,0.0,0.0,0.0,0.0,0.0,0.0,0.0,0.0,0.0,0.0,0.0,0.0,0.0,0.0,0.0,0.0,0.0,0.0,0.0,0.0,0.0,0.0,0.0,0.0,0.0,0.0,0.0,0.0,0.0,0.0,0.0,0.0,0.0,0.0,0.0,0.0,0.0,0.0,0.0,0.0,0.0,0.0,0.0,0.0,0.0,0.0,0.0,0.0,0.0,0.0,0.0,0.0,0.0,0.0,0.0,0.0,0.0,0.0,0.0,0.0,0.0,0.0,0.0,0.0,0.0,0.0,0.0,0.0,0.0,0.0,0.0,0.0,0.0,0.0,0.0,0.0,0.0,0.0,0.0,0.0,0.0,0.0,0.0,0.0,0.0,0.0,0.0,0.0,0.0,0.0,0.0,0.0,0.0,0.0,0.0,0.0,0.0,0.0,0.0,0.0,0.0,0.0,0.0,0.0,0.0,0.0,0.0,0.0,0.0,0.0,0.0,0.0,0.0,0.0,0.0,0.0,0.0,0.0,0.0,0.0,0.0,0.0,0.0,0.0,0.0,0.0,0.0,0.0,0.0,0.0,0.0,0.0,0.0,0.0,0.0,0.0,0.0,0.0,0.0,0.0,0.0,0.0,0.0,0.0,0.0,0.0,0.0,0.0,0.0,0.0,0.0,0.0,0.0,0.0,0.0,0.0,0.0,0.0,0.0,0.0,0.0,0.0,0.0,0.0,0.0,0.0,0.0,0.0,0.0,0.0,0.0,0.0,0.0,0.0,0.0,0.0,0.0,0.0,0.0,0.0,0.0,0.0,0.0,0.0,0.0,0.0,0.0,0.0,0.0,0.0,0.0,0.0,0.0,0.0,0.0,0.0,0.0,0.0,0.0,0.0,0.0,0.0,0.0,0.0,0.0,0.0,0.0,0.0,0.0,0.0,0.0,0.0,0.0,0.0,0.0,0.0,0.0,0.0,0.0,0.0,0.0,0.0,0.0,0.0,0.0,0.0,0.0,0.0,0.0,0.0,0.0,0.0,0.0,0.0,0.0,0.0,0.0,0.0,0.0,0.0,0.0,0.0,0.0,0.0,0.0,0.0,0.0,0.0,0.0,0.0,0.0,0.0,0.0,0.0,0.0,0.0,0.0,0.0,0.0,0.0,0.0,0.0,0.0,0.0,0.0,0.0,0.0,0.0,0.0,0.0,0.0,0.0,0.0,0.0,0.0,0.0,0.0,0.0,0.0,0.0,0.0,0.0,0.0,0.0,0.0,0.0,0.0,0.0,0.0,0.0,0.0,0.0,0.0,0.0,0.0,0.0,0.0,0.0,0.0,0.0,0.0,0.0,0.0,0.0,0.0,0.0,0.0,0.0,0.0,0.0,0.0,0.0,0.0,0.0,0.0,0.0,0.0,0.0,0.0,0.0,0.0,0.0,0.0,0.0,0.0,0.0,0.0,0.0,0.0,0.0,0.0,0.0,0.0,0.0,0.0,0.0,0.0,0.0,0.0,0.0,0.0,0.0,0.0,0.0,0.0,0.0,0.0,0.0,0.0,0.0,0.0,0.0,0.0,0.0,0.0,0.0,0.0,0.0,0.0,0.0,0.0,0.0,0.0,0.0,0.0,0.0,0.0,0.0,0.0,0.0,0.0,0.0,0.0,0.0,0.0,0.0,0.0,0.0,0.0,0.0,0.0,0.0,0.0,0.0,0.0,0.0,0.0,0.0,0.0,0.0,0.0,0.0,0.0,0.0,0.0,0.0,0.0,0.0,0.0,0.0,0.0,0.0,0.0,0.0,0.0,0.0,0.0,0.0,0.0,0.0,0.0,0.0,0.0,0.0,0.0,0.0,0.0,0.0,0.0,0.0,0.0,0.0,0.0,0.0,0.0,0.0,0.0,0.0,0.0,0.0,0.0,0.0,0.0,0.0,0.0,0.0,0.0,0.0,0.0,0.0,0.0,0.0,0.0,0.0,0.0,0.0,0.0,0.0,0.0,0.0,0.0,0.0,0.0,0.0,0.0,0.0,0.0,0.0,0.0,0.0,0.0,0.0,0.0,0.0,0.0,0.0,0.0,0.0,0.0,0.0,0.0,0.0,0.0,0.0,0.0,0.0,0.0,0.0,0.0,0.0,0.0,0.0,0.0,0.0,0.0,0.0,0.0,0.0,0.0,0.0,0.0,0.0,0.0,0.0,0.0,0.0,0.0,0.0,0.0,0.0,0.0,0.0,0.0,0.0,0.0,0.0,0.0,0.0,0.0,0.0,0.0,0.0,0.0,0.0,0.0,0.0,0.0,0.0,0.0,0.0,0.0,0.0,0.0,0.0,0.0,0.0,0.0,0.0,0.0,0.0,0.0,0.0,0.0,0.0,0.0,0.0,0.0,0.0,0.0,0.0,0.0,0.0,0.0,0.0,0.0,0.0,0.0,0.0,0.0,0.0,0.0,0.0,0.0,0.0,0.0,0.0,0.0,0.0,0.0,0.0,0.0,0.0,0.0,0.0,0.0,0.0,0.0,0.0,0.0,0.0,0.0,0.0,0.0,0.0,0.0,0.0,0.0,0.0,0.0,0.0,0.0,0.0,0.0,0.0,0.0,0.0,0.0,0.0,0.0,0.0,0.0,0.0,0.0,0.0,0.0,0.0,0.0,0.0,0.0,0.0,0.0,0.0,0.0,0.0,0.0,0.0,0.0,0.0,0.0,0.0,0.0,0.0,0.0,0.0,0.0,0.0,0.0,0.0,0.0,0.0,0.0,0.0,0.0,0.0,0.0,0.0,0.0,0.0,0.0,0.0,0.0,0.0,0.0,0.0,0.0,0.0,0.0,0.0,0.0,0.0,0.0,0.0,0.0,0.0,0.0,0.0,0.0,0.0,0.0,0.0,0.0,0.0,0.0,0.0,0.0,0.0,0.0,0.0,0.0,0.0,0.0,0.0,0.0,0.0,0.0,0.0,0.0,0.0,0.0,0.0,0.0,0.0,0.0,0.0,0.0,0.0,0.0,0.0,0.0,0.0,0.0,0.0,0.0,-0.2642,0.0,0.0,0.0,0.0,0.0,0.0,0.0,0.0,0.0,0.0,0.0,0.0,0.0,0.0,0.0,0.0,0.0,0.0,0.0,0.0,0.0,0.0,0.0,0.0,0.0,0.0,0.0,0.0,0.0,0.0,0.0,0.0,0.0,0.0,0.0,0.0,0.0,0.0,0.0,0.0,0.0,0.0,0.0,0.0,0.0,0.0,0.0,0.0,0.0,0.0,0.0,0.0,0.0,0.0,0.0,0.0,0.0,0.0,0.0,0.0,0.0,0.0,0.0,0.0,0.0,0.0,0.0,0.0,0.0,0.0,0.0,0.0,0.0,0.0,0.0,0.0,0.0,0.0,0.0,0.0,0.0,0.0,0.0,0.0,0.0,0.0,0.0,0.0,0.0,0.0,0.0,0.0,0.0,0.0,0.0,0.0,0.0,0.0,0.0,0.0,0.0,0.0,0.0,0.0,0.0,0.0,0.0,0.0,0.0,0.0,-0.4775,-0.4188,-0.3722,-0.3281,-0.2882,0.0,0.0,0.0,0.0,0.0,0.0,0.0,0.0,0.0,0.0,0.0,0.0,0.0,0.0,0.0,0.0,0.0,0.0,0.0,0.0,0.0,0.0,0.0,0.0,0.0,0.0,0.0,0.0,0.0,0.0,0.0,0.0,0.0,0.0,0.0,0.0,0.0,0.0,0.0,0.0,0.0,0.0,0.0,0.0,0.0,0.0,0.0,0.0,0.0,0.0,0.0,0.0,0.0,0.0,0.0,0.0,0.0,0.0,0.0,0.0,0.0,0.0,0.0,0.0,0.0,0.0,0.0,0.0,0.0,0.0,0.0,0.0,0.0,0.0,0.0,0.0,0.0,0.0,0.0,0.0,0.0,0.0,0.0,0.0,0.0,0.0,0.0,0.0,0.0,0.0,0.0,0.0,0.0,0.0,0.0,0.0,0.0,0.0,0.0,0.0,0.0,0.0,0.0,0.0,0.0,0.0,0.0,0.0,0.0,0.0,0.0,0.0,-0.4008,-0.3524,-0.3056,0.0,0.0,0.0,0.0,0.0,0.0,0.0,0.0,0.0,0.0,0.0,0.0,0.0,0.0,0.0,0.0,0.0,0.0,0.0,0.0,0.0,0.0,0.0,0.0,0.0,0.0,0.0,0.0,0.0,0.0,0.0,0.0,0.0,0.0,0.0,0.0,0.0,0.0,0.0,0.0,0.0,0.0,0.0,0.0,0.0,0.0,0.0,0.0,0.0,0.0,0.0,0.0,0.0,0.0,0.0,0.0,0.0,0.0,0.0,0.0,0.0,0.0,0.0,0.0,0.0,0.0,0.0,0.0,0.0,0.0,0.0,0.0,0.0,0.0,0.0,0.0,0.0,0.0,0.0,0.0,0.0,0.0,0.0,0.0,0.0,0.0,0.0,0.0,0.0,0.0,0.0,0.0,0.0,0.0,0.0,0.0,0.0,0.0,0.0,0.0,0.0,0.0,0.0,0.0,0.0,0.0,0.0,0.0,0.0,0.0,-0.5371,-0.4784,-0.4188,0.0,-0.3214,0.0,0.0,0.0,0.0,0.0,0.0,0.0,0.0,0.0,0.0,0.0,0.0,0.0,0.0,0.0,0.0,0.0,0.0,0.0,0.0,0.0,0.0,0.0,0.0,0.0,0.0,0.0,0.0,0.0,0.0,0.0,0.0,0.0,0.0,0.0,0.0,0.0,0.0,0.0,0.0,0.0,0.0,0.0,0.0,0.0,0.0,0.0,0.0,0.0,0.0,0.0,0.0,0.0,0.0,0.0,0.0,0.0,0.0,0.0,0.0,0.0,0.0,0.0,0.0,0.0,0.0,0.0,0.0,0.0,0.0,0.0,0.0,0.0,0.0,0.0,0.0,0.0,0.0,0.0,0.0,0.0,0.0,0.0,0.0,0.0,0.0,0.0,0.0,0.0,0.0,0.0,0.0,0.0,0.0,0.0,0.0,0.0,0.0,0.0,0.0,0.0,0.0,0.0,0.0,0.0,0.0,0.0,0.0,0.0,0.0,-0.569,-0.5111,-0.4412,-0.3858,0.0,0.0,0.0,0.0,0.0,0.0,0.0,0.0,0.0,0.0,0.0,0.0,0.0,0.0,0.0,0.0,0.0,0.0,0.0,0.0,0.0,0.0,0.0,0.0,0.0,0.0,0.0,0.0,0.0,0.0,0.0,0.0,0.0,0.0,0.0,0.0,0.0,0.0,0.0,0.0,0.0,0.0,0.0,0.0,0.0,0.0,0.0,0.0,0.0,0.0,0.0,0.0,0.0,0.0,0.0,0.0,0.0,0.0,0.0,0.0,0.0,0.0,0.0,0.0,0.0,0.0,0.0,0.0,0.0,0.0,0.0,0.0,0.0,0.0,0.0,0.0,0.0,0.0,0.0,0.0,0.0,0.0,0.0,0.0,0.0,0.0,0.0,0.0,0.0,0.0,0.0,0.0,0.0,0.0,0.0,0.0,0.0,0.0,0.0,0.0,0.0,0.0,0.0,0.0,0.0,0.0,0.0,0.0,0.0,0.0,-0.6631,-0.6035,-0.537,-0.4629,-0.4129,-0.3898,0.0,0.0,0.0,0.0,0.0,0.0,0.0,0.0,0.0,0.0,0.0,0.0,0.0,0.0,0.0,0.0,0.0,0.0,0.0,0.0,0.0,0.0,0.0,0.0,0.0,0.0,0.0,0.0,0.0,0.0,0.0,0.0,0.0,0.0,0.0,0.0,0.0,0.0,0.0,0.0,0.0,0.0,0.0,0.0,0.0,0.0,0.0,0.0,0.0,0.0,0.0,0.0,0.0,0.0,0.0,0.0,0.0,0.0,0.0,0.0,0.0,0.0,0.0,0.0,0.0,0.0,0.0,0.0,0.0,0.0,0.0,0.0,0.0,0.0,0.0,0.0,0.0,0.0,0.0,0.0,0.0,0.0,0.0,0.0,0.0,0.0,0.0,0.0,0.0,0.0,0.0,0.0,0.0,0.0,0.0,0.0,0.0,0.0,0.0,0.0,0.0,0.0,0.0,0.0,0.0,0.0,0.0,0.0,-0.7768,-0.7045,-0.6296,-0.5503,-0.489,-0.4513,0.0,0.0,0.0,0.0,0.0,0.0,0.0,0.0,0.0,0.0,0.0,0.0,0.0,0.0,0.0,0.0,0.0,0.0,0.0,0.0,0.0,0.0,0.0,0.0,0.0,0.0,0.0,0.0,0.0,0.0,0.0,0.0,0.0,0.0,0.0,0.0,0.0,0.0,0.0,0.0,0.0,0.0,0.0,0.0,0.0,0.0,0.0,0.0,0.0,0.0,0.0,0.0,0.0,0.0,0.0,0.0,0.0,0.0,0.0,0.0,0.0,0.0,0.0,0.0,0.0,0.0,0.0,0.0,0.0,0.0,0.0,0.0,0.0,0.0,0.0,0.0,0.0,0.0,0.0,0.0,0.0,0.0,0.0,0.0,0.0,0.0,0.0,0.0,0.0,0.0,0.0,0.0,0.0,0.0,0.0,0.0,0.0,0.0,0.0,0.0,0.0,0.0,0.0,0.0,0.0,0.0,0.0,0.0,0.0,-0.7936,-0.7159,-0.6479,-0.5829,-0.5446,-0.5087,0.0,0.0,0.0,0.0,0.0,0.0,0.0,0.0,0.0,0.0,0.0,0.0,0.0,0.0,0.0,0.0,0.0,0.0,0.0,0.0,0.0,0.0,0.0,0.0,0.0,0.0,0.0,0.0,0.0,0.0,0.0,0.0,0.0,0.0,0.0,0.0,0.0,0.0,0.0,0.0,0.0,0.0,0.0,0.0,0.0,0.0,0.0,0.0,0.0,0.0,0.0,0.0,0.0,0.0,0.0,0.0,0.0,0.0,0.0,0.0,0.0,0.0,0.0,0.0,0.0,0.0,0.0,0.0,0.0,0.0,0.0,0.0,0.0,0.0,0.0,0.0,0.0,0.0,0.0,0.0,0.0,0.0,0.0,0.0,0.0,0.0,0.0,0.0,0.0,0.0,0.0,0.0,0.0,0.0,0.0,0.0,0.0,0.0,0.0,0.0,0.0,0.0,0.0,0.0,0.0,0.0,0.0,0.0,0.0,-0.8313,0.0,-0.7045,0.0,-0.6182,-0.5793,0.0,0.0,0.0,0.0,0.0,0.0,0.0,0.0,0.0,0.0,0.0,0.0,0.0,0.0,0.0,0.0,0.0,0.0,0.0,0.0,0.0,0.0,0.0,0.0,0.0,0.0,0.0,0.0,0.0,0.0,0.0,0.0,0.0,0.0,0.0,0.0,0.0,0.0,0.0,0.0,0.0,0.0,0.0,0.0,0.0,0.0,0.0,0.0,0.0,0.0,0.0,0.0,0.0,0.0,0.0,0.0,0.0,0.0,0.0,0.0,0.0,0.0,0.0,0.0,0.0,0.0,0.0,0.0,0.0,0.0,0.0,0.0,0.0,0.0,0.0,0.0,0.0,0.0,0.0,0.0,0.0,0.0,0.0,0.0,0.0,0.0,0.0,0.0,0.0,0.0,0.0,0.0,0.0,0.0,0.0,0.0,0.0,0.0,0.0,0.0,0.0,0.0,0.0,0.0,0.0,0.0,0.0,0.0,-0.9298,-0.902,-0.8547,-0.8115,-0.7723,-0.7121,-0.6626,0.0,0.0,0.0,0.0,0.0,0.0,0.0,0.0,0.0,0.0,0.0,0.0,0.0,0.0,0.0,0.0,0.0,0.0,0.0,0.0,0.0,0.0,0.0,0.0,0.0,0.0,0.0,0.0,0.0,0.0,0.0,0.0,0.0,0.0,0.0,0.0,0.0,0.0,0.0,0.0,0.0,0.0,0.0,0.0,0.0,0.0,0.0,0.0,0.0,0.0,0.0,0.0,0.0,0.0,0.0,0.0,0.0,0.0,0.0,0.0,0.0,0.0,0.0,0.0,0.0,0.0,0.0,0.0,0.0,0.0,0.0,0.0,0.0,0.0,0.0,0.0,0.0,0.0,0.0,0.0,0.0,0.0,0.0,0.0,0.0,0.0,0.0,0.0,0.0,0.0,0.0,0.0,0.0,0.0,0.0,0.0,0.0,0.0,0.0,0.0,0.0,0.0,0.0,0.0,0.0,0.0,0.0,0.0,0.0,-0.9668,-0.9512,-0.9211,-0.867,-0.8072,-0.7494,0.0,0.0,0.0,0.0,0.0,0.0,0.0,0.0,0.0,0.0,0.0,0.0,0.0,0.0,0.0,0.0,0.0,0.0,0.0,0.0,0.0,0.0,0.0,0.0,0.0,0.0,0.0,0.0,0.0,0.0,0.0,0.0,0.0,0.0,0.0,0.0,0.0,0.0,0.0,0.0,0.0,0.0,0.0,0.0,0.0,0.0,0.0,0.0,0.0,0.0,0.0,0.0,0.0,0.0,0.0,0.0,0.0,0.0,0.0,0.0,0.0,0.0,0.0,0.0,0.0,0.0,0.0,0.0,0.0,0.0,0.0,0.0,0.0,0.0,0.0,0.0,0.0,0.0,0.0,0.0,0.0,0.0,0.0,0.0,0.0,0.0,0.0,0.0,0.0,0.0,0.0,0.0,0.0,0.0,0.0,0.0,0.0,0.0,0.0,0.0,0.0,0.0,0.0,0.0,0.0,0.0,0.0,0.0,0.0,-1.1244,-1.1011,-1.0639,-1.0069,-0.9392,-0.8693,-0.7973,0.0,0.0,0.0,0.0,0.0,0.0,0.0,0.0,0.0,0.0,0.0,0.0,0.0,0.0,0.0,0.0,0.0,0.0,0.0,0.0,0.0,0.0,0.0,0.0,0.0,0.0,0.0,0.0,0.0,0.0,0.0,0.0,0.0,0.0,0.0,0.0,0.0,0.0,0.0,0.0,0.0,0.0,0.0,0.0,0.0,0.0,0.0,0.0,0.0,0.0,0.0,0.0,0.0,0.0,0.0,0.0,0.0,0.0,0.0,0.0,0.0,0.0,0.0,0.0,0.0,0.0,0.0,0.0,0.0,0.0,0.0,0.0,0.0,0.0,0.0,0.0,0.0,0.0,0.0,0.0,0.0,0.0,0.0,0.0,0.0,0.0,0.0,0.0,0.0,0.0,0.0,0.0,0.0,0.0,0.0,0.0,0.0,0.0,0.0,0.0,0.0,0.0,0.0,0.0,0.0,0.0,0.0,0.0,-1.3468,-1.2914,-1.2315,-1.1782,-1.0996,-1.0177,0.0,0.0,0.0,0.0,0.0,0.0,0.0,0.0,0.0,0.0,0.0,0.0,0.0,0.0,0.0,0.0,0.0,0.0,0.0,0.0,0.0,0.0,0.0,0.0,0.0,0.0,0.0,0.0,0.0,0.0,0.0,0.0,0.0,0.0,0.0,0.0,0.0,0.0,0.0,0.0,0.0,0.0,0.0,0.0,0.0,0.0,0.0,0.0,0.0,0.0,0.0,0.0,0.0,0.0,0.0,0.0,0.0,0.0,0.0,0.0,0.0,0.0,0.0,0.0,0.0,0.0,0.0,0.0,0.0,0.0,0.0,0.0,0.0,0.0,0.0,0.0,0.0,0.0,0.0,0.0,0.0,0.0,0.0,0.0,0.0,0.0,0.0,0.0,0.0,0.0,0.0,0.0,0.0,0.0,0.0,0.0,0.0,0.0,0.0,0.0,0.0,0.0,0.0,0.0,0.0,0.0,0.0,0.0,0.0,-1.448,-1.4601,-1.4076,-1.2761,-1.2105,-1.1294,0.0,0.0,0.0,0.0,0.0,0.0,0.0,0.0,0.0,0.0,0.0,0.0,0.0,0.0,0.0,0.0,0.0,0.0,0.0,0.0,0.0,0.0,0.0,0.0,0.0,0.0,0.0,0.0,0.0,0.0,0.0,0.0,0.0,0.0,0.0,0.0,0.0,0.0,0.0,0.0,0.0,0.0,0.0,0.0,0.0,0.0,0.0,0.0,0.0,0.0,0.0,0.0,0.0,0.0,0.0,0.0,0.0,0.0,0.0,0.0,0.0,0.0,0.0,0.0,0.0,0.0,0.0,0.0,0.0,0.0,0.0,0.0,0.0,0.0,0.0,0.0,0.0,0.0,0.0,0.0,0.0,0.0,0.0,0.0,0.0,0.0,0.0,0.0,0.0,0.0,0.0,0.0,0.0,0.0,0.0,0.0,0.0,0.0,0.0,0.0,0.0,0.0,0.0,0.0,0.0,0.0,0.0,0.0,-1.4782,-1.5463,-1.5598,-1.519,-1.4269,-1.3452,-1.2548,0.0,0.0,0.0,0.0,0.0,0.0,0.0,0.0,0.0,0.0,0.0,0.0,0.0,0.0,0.0,0.0,0.0,0.0,0.0,0.0,0.0,0.0,0.0,0.0,0.0,0.0,0.0,0.0,0.0,0.0,0.0,0.0,0.0,0.0,0.0,0.0,0.0,0.0,0.0,0.0,0.0,0.0,0.0,0.0,0.0,0.0,0.0,0.0,0.0,0.0,0.0,0.0,0.0,0.0,0.0,0.0,0.0,0.0,0.0,0.0,0.0,0.0,0.0,0.0,0.0,0.0,0.0,0.0,0.0,0.0,0.0,0.0,0.0,0.0,0.0,0.0,0.0,0.0,0.0,0.0,0.0,0.0,0.0,0.0,0.0,0.0,0.0,0.0,0.0,0.0,0.0,0.0,0.0,0.0,0.0,0.0,0.0,0.0,0.0,0.0,0.0,0.0,0.0,0.0,0.0,0.0,0.0,0.0,-1.5396,-1.6254,-1.6,-1.5876,-1.5823,-1.4837,-1.3779,0.0,0.0,0.0,0.0,0.0,0.0,0.0,0.0,0.0,0.0,0.0,0.0,0.0,0.0,0.0,0.0,0.0,0.0,0.0,0.0,0.0,0.0,0.0,0.0,0.0,0.0,0.0,0.0,0.0,0.0,0.0,0.0,0.0,0.0,0.0,0.0,0.0,0.0,0.0,0.0,0.0,0.0,0.0,0.0,0.0,0.0,0.0,0.0,0.0,0.0,0.0,0.0,0.0,0.0,0.0,0.0,0.0,0.0,0.0,0.0,0.0,0.0,0.0,0.0,0.0,0.0,0.0,0.0,0.0,0.0,0.0,0.0,0.0,0.0,0.0,0.0,0.0,0.0,0.0,0.0,0.0,0.0,0.0,0.0,0.0,0.0,0.0,0.0,0.0,0.0,0.0,0.0,0.0,0.0,0.0,0.0,0.0,0.0,0.0,0.0,0.0,0.0,0.0,0.0,0.0,0.0,0.0,0.0,-1.5676,-1.6289,-1.6237,-1.6211,-1.6175,-1.5413,-1.4439,0.0,0.0,0.0,0.0,0.0,0.0,0.0,0.0,0.0,0.0,0.0,0.0,0.0,0.0,0.0,0.0,0.0,0.0,0.0,0.0,0.0,0.0,0.0,0.0,0.0,0.0,0.0,0.0,0.0,0.0,0.0,0.0,0.0,0.0,0.0,0.0,0.0,0.0,0.0,0.0,0.0,0.0,0.0,0.0,0.0,0.0,0.0,0.0,-0.9392,0.0,0.0,0.0,0.0,0.0,0.0,0.0,0.0,0.0,0.0,0.0,0.0,0.0,0.0,0.0,0.0,0.0,0.0,0.0,0.0,0.0,0.0,0.0,0.0,0.0,0.0,0.0,0.0,0.0,0.0,0.0,0.0,0.0,0.0,0.0,0.0,0.0,0.0,0.0,0.0,0.0,0.0,0.0,0.0,0.0,0.0,0.0,0.0,0.0,0.0,0.0,0.0,0.0,0.0,0.0,0.0,0.0,0.0,0.0,-1.6029,-1.6568,-1.6517,-1.6438,-1.6438,-1.5982,-1.5144,0.0,0.0,0.0,0.0,0.0,0.0,0.0,0.0,0.0,0.0,0.0,0.0,0.0,0.0,0.0,0.0,0.0,0.0,0.0,0.0,0.0,0.0,0.0,0.0,0.0,0.0,0.0,0.0,0.0,0.0,0.0,0.0,0.0,0.0,0.0,0.0,0.0,0.0,0.0,0.0,0.0,0.0,0.0,0.0,0.0,0.0,0.0,0.0,0.0,0.0,0.0,0.0,0.0,0.0,0.0,0.0,0.0,0.0,0.0,0.0,0.0,0.0,0.0,0.0,0.0,0.0,0.0,0.0,0.0,0.0,0.0,0.0,0.0,0.0,0.0,0.0,0.0,0.0,0.0,0.0,0.0,0.0,0.0,0.0,0.0,0.0,0.0,0.0,0.0,0.0,0.0,0.0,0.0,0.0,0.0,0.0,0.0,0.0,0.0,0.0,0.0,0.0,0.0,0.0,0.0,0.0,0.0,-1.5833,-1.646,-1.6938,-1.6753,-1.6665,-1.6728,-1.6473,-1.5764,-1.456,0.0,0.0,0.0,0.0,0.0,0.0,0.0,0.0,0.0,0.0,0.0,0.0,0.0,0.0,0.0,0.0,0.0,0.0,0.0,0.0,0.0,0.0,0.0,0.0,0.0,0.0,0.0,0.0,0.0,0.0,0.0,0.0,0.0,0.0,0.0,0.0,0.0,0.0,-0.8758,-1.0648,0.0,0.0,0.0,0.0,0.0,0.0,0.0,0.0,-1.3855,0.0,0.0,0.0,0.0,0.0,0.0,0.0,0.0,0.0,0.0,0.0,0.0,0.0,0.0,0.0,0.0,0.0,0.0,0.0,0.0,0.0,0.0,0.0,0.0,0.0,0.0,0.0,0.0,0.0,0.0,0.0,0.0,0.0,0.0,0.0,0.0,0.0,0.0,0.0,0.0,0.0,0.0,0.0,0.0,0.0,0.0,0.0,0.0,0.0,0.0,0.0,0.0,0.0,0.0,0.0,0.0,-1.518,-1.6084,-1.6807,-1.7385,-1.7029,-1.702,-1.7331,-1.681,-1.6072,-1.5118,0.0,0.0,0.0,0.0,0.0,0.0,0.0,0.0,0.0,0.0,0.0,0.0,0.0,0.0,0.0,0.0,0.0,0.0,0.0,0.0,0.0,0.0,0.0,0.0,0.0,0.0,0.0,0.0,0.0,0.0,0.0,0.0,0.0,0.0,0.0,0.0,0.0,0.0,0.0,-1.3461,-1.467,0.0,0.0,0.0,0.0,0.0,0.0,0.0,0.0,-1.5377,0.0,0.0,0.0,0.0,0.0,0.0,0.0,0.0,0.0,0.0,0.0,0.0,0.0,0.0,0.0,0.0,0.0,0.0,0.0,0.0,0.0,0.0,0.0,0.0,0.0,0.0,0.0,0.0,0.0,0.0,0.0,0.0,0.0,0.0,0.0,0.0,0.0,0.0,0.0,0.0,0.0,0.0,0.0,0.0,0.0,0.0,0.0,0.0,0.0,0.0,0.0,0.0,0.0,0.0,0.0,-1.5506,-1.6557,-1.7222,-1.7486,-1.7523,-1.7523,-1.7486,-1.7222,-1.6584,0.0,0.0,0.0,0.0,0.0,0.0,0.0,0.0,0.0,0.0,0.0,0.0,0.0,0.0,0.0,0.0,0.0,0.0,0.0,0.0,0.0,0.0,0.0,0.0,0.0,0.0,0.0,0.0,0.0,0.0,0.0,0.0,0.0,0.0,0.0,0.0,0.0,0.0,0.0,0.0,-1.5207,-1.6455,-1.6779,0.0,0.0,0.0,0.0,0.0,0.0,-1.7694,-1.7294,0.0,0.0,0.0,0.0,0.0,0.0,0.0,0.0,0.0,0.0,0.0,0.0,0.0,0.0,0.0,0.0,0.0,0.0,0.0,0.0,0.0,0.0,0.0,0.0,0.0,0.0,0.0,0.0,0.0,0.0,0.0,0.0,0.0,0.0,0.0,0.0,0.0,0.0,0.0,0.0,0.0,0.0,0.0,0.0,0.0,0.0,0.0,0.0,0.0,0.0,0.0,0.0,0.0,0.0,0.0,-1.5849,-1.6942,-1.7577,-1.7696,-1.799,-1.8,-1.7696,-1.7622,-1.6977,0.0,0.0,0.0,0.0,0.0,0.0,0.0,0.0,0.0,0.0,0.0,0.0,0.0,0.0,0.0,0.0,0.0,0.0,0.0,0.0,0.0,0.0,0.0,0.0,0.0,0.0,0.0,0.0,0.0,0.0,0.0,0.0,0.0,0.0,0.0,0.0,0.0,0.0,0.0,0.0,0.0,-1.8024,-1.8899,-1.9348,0.0,0.0,0.0,0.0,-1.9909,-1.9485,0.0,0.0,0.0,0.0,0.0,0.0,0.0,0.0,0.0,0.0,0.0,0.0,0.0,0.0,0.0,0.0,0.0,0.0,0.0,0.0,0.0,0.0,0.0,0.0,0.0,0.0,0.0,0.0,0.0,0.0,0.0,0.0,0.0,0.0,0.0,0.0,0.0,0.0,0.0,0.0,0.0,0.0,0.0,0.0,0.0,0.0,0.0,0.0,0.0,0.0,0.0,0.0,0.0,0.0,0.0,0.0,-1.6035,-1.7021,-1.7751,-1.8276,-1.835,-1.8341,-1.8295,-1.795,-1.7068,0.0,0.0,0.0,0.0,0.0,0.0,0.0,0.0,0.0,0.0,0.0,0.0,0.0,0.0,0.0,0.0,0.0,0.0,0.0,0.0,0.0,0.0,0.0,0.0,0.0,0.0,0.0,0.0,0.0,0.0,0.0,0.0,0.0,0.0,0.0,0.0,0.0,0.0,0.0,0.0,0.0,-1.9774,-2.0139,-2.0993,-2.1483,0.0,0.0,-2.0861,-2.0684,-1.9968,0.0,0.0,0.0,0.0,0.0,0.0,0.0,0.0,0.0,0.0,0.0,0.0,0.0,0.0,0.0,0.0,0.0,0.0,0.0,0.0,0.0,0.0,0.0,0.0,0.0,0.0,0.0,0.0,0.0,0.0,0.0,0.0,0.0,0.0,0.0,0.0,0.0,0.0,0.0,0.0,0.0,0.0,0.0,0.0,0.0,0.0,0.0,0.0,0.0,0.0,0.0,0.0,0.0,0.0,0.0,-1.5379,-1.6394,-1.7431,-1.8146,-1.8415,-1.8967,-1.9146,-1.8911,-1.8406,-1.7563,0.0,0.0,0.0,0.0,0.0,0.0,0.0,0.0,0.0,0.0,0.0,0.0,0.0,0.0,0.0,0.0,0.0,0.0,0.0,0.0,0.0,0.0,0.0,0.0,0.0,0.0,0.0,0.0,0.0,0.0,0.0,0.0,0.0,0.0,0.0,0.0,0.0,0.0,0.0,0.0,0.0,0.0,-2.1255,-2.2111,0.0,0.0,0.0,-2.262,-2.2429,0.0,0.0,0.0,0.0,0.0,0.0,0.0,0.0,0.0,0.0,0.0,0.0,0.0,0.0,0.0,0.0,0.0,0.0,0.0,0.0,0.0,0.0,0.0,0.0,0.0,0.0,0.0,0.0,0.0,0.0,0.0,0.0,0.0,0.0,0.0,0.0,0.0,0.0,0.0,0.0,0.0,0.0,0.0,0.0,0.0,0.0,0.0,0.0,0.0,0.0,0.0,0.0,0.0,0.0,0.0,0.0,0.0,-1.6897,-1.7888,-1.8499,-1.8723,-1.9572,-1.9839,-1.9383,-1.8817,0.0,0.0,0.0,0.0,0.0,0.0,0.0,0.0,0.0,0.0,0.0,0.0,0.0,0.0,0.0,0.0,0.0,0.0,0.0,0.0,0.0,0.0,0.0,0.0,0.0,0.0,0.0,-1.4148,0.0,0.0,0.0,0.0,0.0,0.0,0.0,0.0,0.0,0.0,0.0,0.0,0.0,0.0,-2.1091,-2.2353,-2.3085,-2.3603,0.0,0.0,-2.3934,-2.3629,-2.2388,-2.1186,0.0,0.0,0.0,0.0,0.0,0.0,0.0,0.0,0.0,0.0,0.0,0.0,0.0,0.0,0.0,0.0,0.0,0.0,0.0,0.0,0.0,0.0,0.0,0.0,0.0,0.0,0.0,0.0,0.0,0.0,0.0,0.0,0.0,0.0,0.0,0.0,0.0,0.0,0.0,0.0,0.0,0.0,0.0,0.0,0.0,0.0,0.0,0.0,0.0,0.0,0.0,0.0,0.0,0.0,0.0,-1.7654,-1.8182,-1.8779,-1.9601,-2.0034,-2.0072,-1.9658,-1.903,-1.8231,0.0,0.0,0.0,0.0,0.0,0.0,0.0,0.0,0.0,0.0,0.0,0.0,0.0,0.0,0.0,0.0,0.0,0.0,0.0,0.0,0.0,0.0,0.0,0.0,0.0,0.0,0.0,0.0,0.0,0.0,0.0,0.0,0.0,0.0,0.0,0.0,0.0,0.0,0.0,0.0,0.0,-2.1891,-2.3456,-2.4001,-2.4295,0.0,0.0,-2.4273,-2.3666,-2.2674,-2.1607,-2.0621,0.0,0.0,0.0,0.0,0.0,0.0,0.0,0.0,0.0,0.0,0.0,0.0,0.0,0.0,0.0,0.0,0.0,0.0,0.0,0.0,0.0,0.0,0.0,0.0,0.0,0.0,0.0,0.0,0.0,0.0,0.0,0.0,0.0,0.0,0.0,0.0,0.0,0.0,0.0,0.0,0.0,0.0,0.0,0.0,0.0,0.0,0.0,0.0,0.0,0.0,0.0,0.0,0.0,-1.6203,-1.7755,-1.8338,-1.8947,-1.9677,-2.0198,-2.0411,-2.0255,-1.9648,-1.9,0.0,0.0,0.0,0.0,0.0,0.0,0.0,0.0,0.0,0.0,0.0,0.0,0.0,0.0,0.0,0.0,0.0,0.0,0.0,0.0,0.0,0.0,0.0,0.0,0.0,0.0,0.0,0.0,-1.849,-1.8699,-1.8392,0.0,0.0,0.0,0.0,0.0,0.0,0.0,0.0,0.0,0.0,-2.2434,-2.3572,-2.4319,0.0,0.0,-2.4682,-2.4454,-2.3897,-2.2877,-2.1927,-2.1224,-1.9444,0.0,0.0,0.0,0.0,0.0,0.0,0.0,0.0,0.0,0.0,0.0,0.0,0.0,0.0,0.0,0.0,0.0,0.0,0.0,0.0,0.0,0.0,0.0,0.0,0.0,0.0,0.0,0.0,0.0,0.0,0.0,0.0,0.0,0.0,0.0,0.0,0.0,0.0,0.0,0.0,0.0,0.0,0.0,0.0,0.0,0.0,0.0,0.0,0.0,0.0,0.0,0.0,-1.6646,-1.804,-1.8673,-1.9314,-1.9936,-2.0372,-2.0615,-2.0595,-2.0013,-1.9552,0.0,0.0,0.0,0.0,0.0,0.0,0.0,0.0,0.0,0.0,0.0,0.0,0.0,0.0,0.0,0.0,0.0,0.0,0.0,0.0,0.0,0.0,0.0,0.0,0.0,0.0,0.0,0.0,-1.9997,-1.9875,-1.8878,0.0,0.0,0.0,0.0,0.0,0.0,0.0,0.0,0.0,0.0,-2.319,-2.405,-2.4732,-2.5076,-2.4825,-2.4754,-2.449,-2.3897,-2.301,-2.2226,-2.1597,0.0,0.0,0.0,0.0,0.0,0.0,0.0,0.0,0.0,0.0,0.0,0.0,0.0,0.0,0.0,0.0,0.0,0.0,0.0,0.0,0.0,0.0,0.0,0.0,0.0,0.0,0.0,0.0,0.0,0.0,-0.4959,0.0,0.0,0.0,0.0,0.0,0.0,0.0,0.0,0.0,0.0,0.0,0.0,0.0,0.0,0.0,0.0,0.0,0.0,0.0,0.0,0.0,0.0,-1.7539,-1.8663,-1.9324,-1.9946,-2.0527,-2.0595,-2.0615,-2.0595,-2.0013,-1.9725,-1.9658,0.0,0.0,0.0,0.0,0.0,0.0,0.0,0.0,0.0,0.0,0.0,0.0,0.0,0.0,0.0,0.0,0.0,0.0,0.0,0.0,0.0,0.0,0.0,0.0,0.0,0.0,-2.1229,-2.1676,-2.1214,0.0,0.0,0.0,0.0,0.0,0.0,0.0,0.0,0.0,0.0,-2.3173,-2.4271,-2.5133,-2.5276,-2.5206,-2.4849,-2.4669,-2.4321,-2.3725,-2.3113,-2.2429,0.0,0.0,0.0,0.0,0.0,0.0,0.0,0.0,0.0,0.0,0.0,0.0,0.0,0.0,0.0,0.0,0.0,0.0,0.0,0.0,0.0,0.0,0.0,0.0,0.0,0.0,0.0,-0.5353,-0.5385,0.0,0.0,0.0,0.0,0.0,0.0,0.0,0.0,0.0,0.0,0.0,-1.2746,-1.2739,0.0,0.0,0.0,0.0,0.0,0.0,0.0,0.0,0.0,0.0,0.0,0.0,-1.7859,-1.9295,-1.9572,-1.9994,-2.0586,-2.0615,-2.0615,-2.0595,-2.0391,-2.012,-1.9687,0.0,0.0,0.0,0.0,0.0,0.0,0.0,0.0,0.0,0.0,0.0,0.0,0.0,0.0,0.0,0.0,0.0,0.0,0.0,0.0,0.0,0.0,0.0,0.0,0.0,-2.0518,0.0,0.0,0.0,0.0,0.0,0.0,0.0,0.0,0.0,0.0,0.0,-2.1323,-2.2822,-2.3698,-2.4411,-2.5075,-2.5409,-2.5527,0.0,0.0,0.0,0.0,0.0,0.0,0.0,0.0,0.0,0.0,0.0,0.0,0.0,0.0,-1.6779,-1.5486,-1.4999,-1.4831,-1.4831,0.0,0.0,0.0,0.0,0.0,0.0,0.0,0.0,0.0,0.0,0.0,0.0,0.0,0.0,-0.5983,0.0,-0.6188,0.0,0.0,0.0,0.0,0.0,0.0,0.0,0.0,-1.1972,-1.2758,-1.3523,-1.3477,-1.393,0.0,-1.456,-1.4244,0.0,0.0,0.0,0.0,0.0,0.0,0.0,0.0,-1.8512,-1.9658,-2.0053,-2.0411,-2.0791,-2.0947,-2.1065,-2.1065,-2.0879,-2.045,-1.9706,-1.8768,-1.8017,0.0,0.0,0.0,0.0,0.0,0.0,0.0,0.0,0.0,0.0,0.0,0.0,0.0,0.0,0.0,0.0,0.0,0.0,0.0,0.0,0.0,0.0,0.0,-2.1753,0.0,0.0,0.0,0.0,0.0,0.0,0.0,0.0,0.0,-2.0842,-2.1495,-2.2509,-2.3886,-2.4484,-2.5004,-2.5552,0.0,0.0,0.0,0.0,0.0,0.0,0.0,-2.3253,-2.2403,-2.1932,-2.14,-2.0644,-2.0043,-1.9611,-1.9402,0.0,0.0,-1.7084,-1.6604,-1.6387,-1.6397,-1.6397,-1.6397,-1.643,-1.6597,-1.6921,0.0,0.0,0.0,0.0,0.0,0.0,0.0,0.0,-0.6381,-0.658,0.0,-0.6751,0.0,0.0,0.0,0.0,0.0,-0.9943,0.0,0.0,-1.2391,-1.3061,-1.3812,-1.3812,-1.4284,-1.5103,-1.511,-1.5528,-1.6201,-1.5617,0.0,0.0,0.0,0.0,0.0,0.0,-1.9507,-1.9793,-2.0722,-2.121,-2.122,-2.166,-2.1875,-2.1855,-2.1465,-2.078,-1.9821,-1.9744,-1.9237,-1.8197,-1.7979,0.0,0.0,0.0,0.0,0.0,0.0,0.0,0.0,0.0,0.0,0.0,0.0,0.0,0.0,0.0,0.0,0.0,0.0,0.0,0.0,-2.2671,0.0,0.0,0.0,0.0,0.0,0.0,0.0,0.0,0.0,0.0,-2.2525,-2.3283,-2.4143,-2.4969,0.0,0.0,0.0,0.0,-2.6177,-2.5804,-2.5556,-2.5178,-2.4526,-2.4078,-2.3638,-2.3143,0.0,0.0,-2.1639,-2.1495,-2.1281,-2.0723,-2.0324,-1.9782,-1.8966,-1.8663,-1.8606,-1.8606,-1.8532,-1.8654,-1.8663,-1.8532,-1.8617,-0.6983,0.0,0.0,0.0,0.0,-0.6957,-0.7045,-0.7045,-0.724,-0.7346,-0.7428,-0.7784,0.0,0.0,0.0,0.0,0.0,0.0,-1.1566,-1.2462,-1.2943,-1.3566,-1.4228,-1.4392,-1.4755,-1.5327,-1.5668,-1.6202,-1.6878,-1.7087,-1.7147,-1.7054,0.0,0.0,0.0,0.0,-2.0718,-2.1238,-2.1572,-2.1699,-2.1699,-2.1826,-2.1936,-2.1936,-2.1768,-2.1405,-2.08,-2.0333,-1.9851,-1.9275,-1.8746,0.0,0.0,0.0,0.0,0.0,0.0,0.0,0.0,0.0,0.0,0.0,0.0,0.0,0.0,0.0,0.0,0.0,0.0,0.0,-2.3203,-2.3686,-2.3816,0.0,0.0,0.0,0.0,0.0,0.0,0.0,0.0,0.0,-2.4877,-2.4823,-2.4909,0.0,0.0,-2.6368,-2.6396,-2.638,-2.6339,-2.6221,0.0,0.0,0.0,-2.441,-2.3762,-2.2818,-2.2328,-2.2097,-2.2181,-2.1987,-2.1712,-2.1545,-2.1438,-2.1264,-2.0942,-1.9707,-1.8804,-1.8719,-1.8719,-1.8719,-1.8728,-1.8919,-1.9184,-0.8435,-0.8225,-0.7643,-0.7353,-0.7311,-0.7446,-0.7571,-0.7698,-0.79,-0.8061,-0.8242,-0.8428,-0.8561,-0.8663,-0.8959,0.0,0.0,0.0,-1.2057,-1.3013,-1.3395,-1.4008,-1.4718,-1.4976,-1.5312,-1.5774,-1.6257,-1.6772,-1.7361,-1.7993,-1.832,-1.8312,0.0,0.0,-2.0443,-2.0843,-2.1306,-2.1885,-2.2051,-2.2139,-2.2139,-2.2295,-2.2305,-2.2139,-2.2129,-2.1934,-2.1504,-2.112,-2.074,-2.0324,-1.9928,-1.9401,0.0,0.0,0.0,0.0,0.0,0.0,0.0,0.0,0.0,0.0,0.0,-1.6304,-1.7886,0.0,0.0,0.0,-2.2201,-2.3183,-2.462,-2.4719,0.0,0.0,0.0,0.0,0.0,0.0,0.0,-2.4396,-2.4797,-2.5203,-2.5904,-2.5829,-2.5838,-2.6118,-2.6335,-2.6554,-2.6648,0.0,-2.6415,-2.6213,-2.603,-2.5672,-2.5005,-2.4587,-2.4001,-2.3054,-2.2636,-2.2451,-2.2695,-2.2539,-2.2334,-2.2187,-2.2139,-2.208,-2.1924,-2.0807,-1.9966,-1.9966,-1.9956,-1.9956,-1.9966,-2.0014,-2.011,-0.9884,-0.9776,-0.8256,-0.7617,-0.7609,-0.7818,-0.8022,-0.8272,-0.845,-0.8707,-0.9058,-0.889,-0.895,-0.919,-0.9631,0.0,-1.1147,-1.1578,-1.2419,-1.3529,-1.3749,-1.4337,-1.527,-1.5575,-1.588,-1.6264,-1.6844,-1.7291,-1.7692,-1.8428,-1.9041,-1.9504,-1.9753,-2.0349,-2.1197,-2.1309,-2.1547,-2.1992,-2.2373,-2.2559,-2.2578,-2.2896,-2.2916,-2.2578,-2.2559,-2.2373,-2.1953,-2.1934,-2.1728,-2.1278,-2.1249,-2.0829,-1.9869,0.0,0.0,0.0,0.0,0.0,0.0,0.0,0.0,0.0,0.0,0.0,0.0,0.0,0.0,0.0,-2.3987,0.0,-2.5468,-2.572,0.0,0.0,0.0,-2.5004,-2.4804,-2.4778,-2.4933,-2.5394,0.0,0.0,-2.6035,0.0,-2.6785,-2.7018,-2.6706,-2.6617,-2.7087,-2.6764,-2.6396,-2.5957,-2.5812,-2.5591,-2.4956,-2.4573,-2.4145,-2.3554,-2.3276,-2.3062,-2.3018,-2.3018,-2.2916,-2.2551,-2.2483,-2.2376,-2.2019,-2.1838,-2.1951,-2.1851,-2.1834,-2.1836,-2.1758,-2.1444,-2.117,-0.9884,-0.987,-0.9462,-0.9289,-0.9289,-0.938,-0.9425,-0.947,-0.952,-0.9587,-0.9717,-0.9804,-1.008,-1.0529,-1.1015,-1.1557,-1.2064,-1.2377,-1.3067,-1.4033,-1.4072,-1.443,-1.5046,-1.5493,-1.5754,-1.5887,-1.672,-1.7255,-1.7533,-1.8454,-1.9194,-1.9677,-2.0351,-2.1011,-2.166,-2.216,-2.2539,-2.2799,-2.2896,-2.2935,-2.2945,-2.3042,-2.3042,-2.2945,-2.2945,-2.275,-2.2383,-2.2363,-2.2168,-2.1758,-2.1728,-2.1494,-2.0878,-2.0314,0.0,0.0,0.0,0.0,0.0,0.0,0.0,0.0,0.0,-1.9598,-2.1085,0.0,-2.3116,0.0,-2.5636,-2.6344,-2.6538,-2.6472,0.0,0.0,-2.5902,-2.5685,-2.5482,-2.5328,-2.5433,-2.5871,-2.6018,-2.6166,-2.6402,-2.6671,-2.6844,-2.6721,-2.6762,-2.6703,-2.6475,-2.626,-2.5937,-2.5633,-2.5348,-2.5041,-2.4646,-2.41,-2.3697,-2.3493,-2.3285,-2.3057,-2.2891,-2.2882,-2.2755,-2.2484,-2.2421,-2.2383,-2.2269,-2.2278,-2.2269,-2.2284,-2.208,-2.1936,-2.1926,-2.1797,-2.1728,-1.0853,-1.0853,-1.0853,-1.0853,-1.0792,-1.0146,-0.993,-1.0019,-1.0162,-1.0301,-1.0394,-1.0621,-1.0944,-1.1313,-1.1681,-1.214,-1.2592,-1.2871,-1.3522,-1.4403,-1.4409,-1.4754,-1.5351,-1.5849,-1.6123,-1.6123,-1.6987,-1.7477,-1.777,-1.8536,-1.9212,-1.9796,-2.0532,-2.1248,-2.2022,-2.2413,-2.275,-2.2969,-2.3057,-2.3101,-2.3101,-2.3101,-2.3101,-2.3101,-2.3101,-2.2994,-2.276,-2.275,-2.2598,-2.2197,-2.2158,-2.1973,-2.1553,-2.1218,-2.0654,0.0,0.0,0.0,0.0,0.0,0.0,0.0,0.0,0.0,0.0,0.0,-2.4237,-2.5646,-2.6277,-2.6754,-2.7045,-2.694,-2.6747,-2.6543,-2.6507,-2.6357,-2.5931,-2.5916,-2.6045,-2.6305,-2.6328,-2.64,-2.6599,-2.652,-2.6485,-2.6601,-2.6508,-2.6367,-2.6096,-2.579,-2.554,-2.5391,-2.5186,-2.4956,-2.4659,-2.4311,-2.3989,-2.3756,-2.3611,-2.3442,-2.3236,-2.319,-2.3088,-2.2763,-2.2662,-2.2596,-2.2444,-2.2397,-2.2397,-2.2375,-2.2255,-2.214,-2.2144,-2.199,-2.1874,-1.216,-1.2209,-1.2209,-1.2209,-1.208,-1.0844,-1.0332,-1.0422,-1.0697,-1.0934,-1.1167,-1.1399,-1.1631,-1.1863,-1.2094,-1.2509,-1.2969,-1.3158,-1.3829,-1.4735,-1.4748,-1.511,-1.5825,-1.6305,-1.6588,-1.6636,-1.734,-1.7807,-1.8133,-1.8589,-1.9222,-1.9912,-2.0503,-2.1288,-2.2235,-2.2423,-2.2647,-2.2957,-2.3169,-2.3257,-2.3257,-2.3266,-2.3257,-2.3257,-2.3257,-2.3266,-2.3257,-2.3257,-2.3062,-2.2705,-2.2676,-2.2461,-2.2002,-2.1973,-2.1642,0.0,-2.0948,0.0,0.0,0.0,0.0,0.0,0.0,0.0,0.0,-2.4563,-2.5337,-2.6569,-2.6585,-2.6759,-2.7313,-2.7227,-2.7041,-2.6895,-2.7025,-2.6891,-2.6239,-2.6404,-2.652,-2.652,-2.6534,-2.6526,-2.6496,-2.6195,-2.6171,-2.6509,-2.6227,-2.5968,-2.5861,-2.5626,-2.5346,-2.5275,-2.5183,-2.4974,-2.478,-2.4651,-2.4467,-2.4071,-2.3894,-2.3868,-2.3616,-2.3635,-2.3475,-2.3044,-2.2859,-2.2792,-2.2436,-2.2307,-2.2305,-2.2234,-2.2185,-2.2199,-2.2303,-2.2138,-2.1877,-1.3025,-1.3217,-1.3217,-1.3217,-1.3156,-1.2683,-1.2188,-1.1661,-1.1709,-1.1758,-1.1849,-1.2095,-1.2336,-1.2582,-1.2816,-1.3205,-1.3689,-1.3737,-1.4237,-1.5,-1.5,-1.5305,-1.5825,-1.6123,-1.6407,-1.6636,-1.7145,-1.7613,-1.8094,-1.884,-1.9492,-2.0055,-2.0865,-2.1613,-2.2194,0.0,0.0,0.0,-2.4042,-2.4124,-2.417,-2.417,-2.417,-2.418,-2.4134,0.0,-2.4124,-2.417,-2.3975,-2.3574,-2.3545,0.0,0.0,0.0,0.0,0.0,0.0,0.0,0.0,0.0,0.0,0.0,-2.3697,-2.4167,-2.5061,-2.6039,-2.6714,-2.6991,-2.734,-2.7662,-2.7756,-2.7423,-2.7169,-2.714,-2.6853,-2.664,-2.6509,-2.6351,-2.6229,-2.6032,-2.6192,-2.6206,-2.6098,-2.6279,-2.6503,-2.6555,-2.6186,-2.5941,-2.5902,-2.5805,-2.5668,-2.5456,-2.5159,-2.4804,-2.4506,-2.4351,-2.4177,-2.3794,-2.3757,-2.3682,-2.3467,-2.3373,-2.3204,-2.2738,-2.2597,-2.2532,-2.2236,-2.1947,-2.1806,-2.1769,-2.15,-2.149,-2.2255,-2.2331,-2.2274,-1.3771,0.0,-1.3868,-1.3919,0.0,-1.3771,-1.3482,-1.3104,-1.2709,-1.2709,-1.2954,-1.3054,-1.3253,-1.3557,-1.3805,-1.4054,-1.4307,-1.4548,-1.4998,-1.5496,-1.5643,-1.5875,-1.6259,-1.6516,-1.6759,-1.7036,-1.743,-1.7864,-1.8406,-1.8951,-1.947,-1.995,-2.0793,-2.1508,-2.2083,-2.2994,-2.367,-2.3988,-2.4127,-2.4266,-2.4414,-2.4424,-2.4424,-2.4424,0.0,0.0,0.0,0.0,0.0,0.0,0.0,0.0,0.0,0.0,0.0,-2.2384,-2.2564,-2.2682,-2.2717,-2.3113,-2.352,-2.3954,-2.4708,-2.5268,-2.5594,-2.6394,-2.6841,-2.6852,-2.7122,-2.726,-2.7272,-2.7044,-2.6869,-2.691,-2.6603,-2.6443,-2.655,-2.633,-2.6204,-2.6228,-2.6323,-2.6352,-2.6264,-2.6233,-2.6351,-2.6505,-2.6135,-2.5951,-2.6068,-2.5773,-2.5412,-2.5255,-2.5186,-2.4974,-2.4679,-2.4526,-2.4326,-2.4172,-2.3971,-2.3836,-2.3595,-2.345,-2.3193,-2.2733,-2.2574,-2.2473,-2.2164,-2.1978,-2.1855,-2.181,-2.1573,-2.1444,-2.1925,-2.1968,-2.1919,-1.4522,-1.4567,-1.4567,-1.4567,-1.4567,-1.4522,-1.4464,-1.4356,0.0,0.0,0.0,-1.397,-1.4123,-1.4384,-1.4593,-1.474,-1.4841,-1.5297,-1.5651,-1.596,-1.6168,-1.6469,-1.6707,-1.6914,-1.7164,-1.7505,-1.7711,-1.8115,-1.8723,-1.9015,-1.9439,-1.993,-2.0703,-2.1529,-2.2287,-2.3435,-2.4047,-2.4107,-2.4162,-2.4312,-2.4555,-2.4602,-2.4648,-2.4648,-2.4648,-2.4648,-2.4602,-2.4648,-2.4619,-2.4521,-2.4199,-2.3975,-2.3896,-2.3486,-2.3096,-2.2816,-2.3093,-2.3146,-2.2826,-2.334,-2.3875,-2.4294,-2.5218,-2.5815,-2.5869,-2.6326,-2.6603,-2.6603,-2.6603,-2.6603,-2.6603,-2.661,-2.6613,-2.6601,-2.6398,-2.6364,-2.6552,-2.6433,-2.6354,-2.6496,-2.6523,-2.6563,-2.6518,-2.6214,-2.613,-2.6346,-2.6168,-2.5902,-2.6124,-2.5694,-2.5255,-2.5127,-2.5131,-2.5089,-2.4873,-2.4737,-2.4686,-2.4325,-2.4097,-2.3935,-2.3746,-2.3555,-2.3214,-2.2716,-2.2663,-2.2491,-2.2132,-2.1931,-2.1974,-2.1909,-2.166,-2.1418,-2.1439,-2.1359,-2.132,-1.5465,-1.5671,-1.5671,-1.5671,-1.5671,-1.5423,-1.5151,-1.484,-1.4367,-1.418,-1.4225,-1.4225,-1.4384,-1.4638,-1.4695,-1.4949,-1.5392,-1.55,-1.5752,0.0,-1.6275,-1.6419,-1.6707,-1.6764,-1.7007,-1.7505,-1.7562,-1.7959,-1.8696,-1.9249,-1.978,-2.0361,-2.1169,-2.2147,-2.3167,-2.3619,-2.4038,-2.4459,-2.4898,-2.516,-2.5199,-2.5402,-2.5508,-2.5499,-2.5489,-2.5508,-2.5508,-2.5489,-2.5371,-2.5047,-2.4959,-2.4717,-2.4346,-2.3926,-2.3761,-2.3861,-2.3777,-2.3806,-2.3937,-2.4215,-2.4502,-2.4766,-2.5126,-2.5547,-2.6099,-2.6434,-2.6603,-2.6603,-2.6584,-2.6603,-2.6625,-2.6628,-2.6615,-2.6594,-2.6573,-2.6544,-2.6608,-2.6553,-2.6462,-2.6343,-2.6399,-2.6465,-2.6331,-2.6327,-2.635,-2.6461,-2.6172,-2.5925,-2.5615,-2.5567,-2.5499,-2.5315,-2.508,-2.4883,-2.4587,-2.4332,-2.4134,-2.3954,-2.3646,-2.3497,-2.3447,-2.3297,-2.3061,-2.2608,-2.2465,-2.2289,-2.1871,-2.1528,-2.1469,-2.141,-2.1174,-2.0866,-2.0849,-2.0887,-2.0899,-1.6205,-1.6305,-1.6358,-1.6311,-1.6305,-1.6211,-1.5998,-1.5719,-1.548,-1.5222,-1.496,-1.496,-1.5112,-1.5321,-1.5477,-1.5686,-1.5946,-1.6257,-1.6523,-1.6788,-1.693,-1.7078,-1.7181,-1.7181,-1.7387,-1.7746,-1.79,-1.8265,-1.8855,-1.9498,-2.0018,-2.0272,-2.1194,-2.2131,-2.2887,-2.3347,-2.3746,-2.4143,-2.4735,-2.5137,-2.5284,-2.5586,-2.5684,-2.5684,-2.5684,-2.5684,-2.5684,-2.5684,-2.5586,-2.5439,-2.5243,-2.5028,-2.4775,-2.4365,-2.4176,-2.4258,-2.4306,-2.4386,-2.452,-2.4832,-2.5186,-2.5562,-2.5693,-2.5922,-2.6368,-2.6052,-2.5952,-2.6202,-2.6224,-2.6344,-2.6552,-2.6617,-2.6615,-2.6615,-2.6598,-2.6631,-2.6707,-2.6613,-2.6535,-2.6553,-2.6525,-2.6469,-2.6384,-2.6328,-2.6294,-2.6245,-2.5955,-2.5518,-2.5128,-2.5079,-2.502,-2.4883,-2.4637,-2.439,-2.4143,-2.3886,-2.3696,-2.3596,-2.3197,-2.2937,-2.2887,-2.2736,-2.2384,-2.2123,-2.2072,-2.1979,-2.1674,-2.161,-2.1511,-2.1461,-2.1205,-2.0941,-2.0908,-2.0656,-2.056,-1.667,-1.667,-1.667,-1.667,-1.667,-1.667,-1.6577,-1.6377,-1.6371,-1.6164,-1.5797,-1.569,-1.585,-1.6099,-1.6318,-1.6424,-1.6537,-1.6967,-1.7232,-1.7331,-1.7483,-1.7589,-1.7589,-1.7589,-1.7747,-1.8016,-1.8272,-1.8593,-1.8974,-1.9628,-2.013,-2.0344,-2.1216,-2.1971,-2.2535,-2.3088,-2.3506,-2.3854,-2.4489,-2.4932,-2.5186,-2.5489,-2.5645,-2.5684,-2.5684,-2.5684,-2.5684,-2.5684,-2.5684,-2.5674,-2.541,-2.5215,-2.5205,-2.4805,-2.456,-2.456,-2.4703,-2.4848,-2.4894,-2.5214,-2.5568,-2.593,-2.6021,-2.6111,-2.6238,-2.5781,-2.5528,-2.5954,-2.6106,-2.6221,-2.6519,-2.6676,-2.6684,-2.6684,-2.6655,-2.6704,-2.6847,-2.6667,-2.6546,-2.6733,-2.6544,-2.6428,-2.6352,-2.6207,-2.6004,-2.5858,-2.5518,-2.5088,-2.4784,-2.4529,-2.4381,-2.4233,-2.4134,-2.3994,-2.3755,-2.3397,-2.3197,-2.3197,-2.2686,-2.2426,-2.2283,-2.1928,-2.1623,-2.1522,-2.1471,-2.1369,-2.1361,-2.1302,-2.1242,-2.1159,-2.0974,-2.0855,-2.0767,-2.0541,-2.0309,-1.6736,-1.667,-1.6736,-1.667,-1.6723,-1.673,-1.6677,-1.6677,-1.6677,-1.663,-1.6577,-1.6324,-1.6371,-1.663,-1.6624,-1.6849,-1.7067,-1.7173,-1.7331,-1.7536,-1.7582,-1.7589,-1.7589,-1.7589,-1.7747,-1.8016,-1.8265,-1.8541,-1.8869,-1.948,-2.0094,-2.0814,-2.142,-2.1971,-2.2476,-2.3088,-2.3546,-2.3795,-2.4291,-2.4677,-2.4932,-2.5186,-2.544,-2.5684,-2.5684,-2.5684,-2.5684,-2.5684,-2.5684,-2.5684,-2.5645,-2.5615,-2.5577,-2.5254,-2.5057,-2.5037,-2.4891,-2.4894,-2.5087,-2.5113,-2.5189,-2.5194,-2.5483,-2.563,-2.5665,-2.5788,-2.603,-2.6394,-2.6517,-2.6504,-2.6591,-2.6725,-2.6829,-2.6794,-2.6837,-2.6894,-2.6836,-2.6628,-2.6494,-2.6534,-2.6304,-2.6149,-2.61,-2.5868,-2.5625,-2.5382,-2.5079,-2.4735,-2.4332,-2.4134,-2.3935,-2.3646,-2.3646,-2.3646,-2.3397,-2.2937,-2.2636,-2.2577,-2.2123,-2.1827,-2.1725,-2.1522,-2.1275,-2.0968,-2.0814,-2.0609,-2.0447,-2.0292,-2.0344,-2.0498,-2.0369,-2.0189,-2.0078,-2.0148,-2.0281,-1.7625,-1.7461,-1.7474,-1.7376,-1.7226,-1.7259,-1.716,-1.7008,-1.7014,-1.7008,-1.6961,-1.6855,-1.6796,-1.673,-1.6895,-1.7067,-1.7173,-1.7384,-1.7483,-1.7589,-1.7589,-1.7589,-1.7589,-1.7589,-1.7687,-1.7799,-1.8062,-1.8331,-1.8698,-1.9524,-2.0189,-2.0668,-2.1216,-2.1674,-2.2021,-2.2585,-2.3088,-2.3546,-2.3895,-2.4291,-2.4677,-2.5079,-2.5342,-2.5489,-2.5596,-2.5684,-2.5684,-2.5684,-2.5684,-2.5684,-2.5684,-2.5684,-2.5684,-2.5557,-2.5469,-2.5459,-2.5398,-2.5433,-2.566,-2.5707,-2.5754,-2.5896,-2.6047,-2.6104,-2.6094,-2.6188,-2.6376,-2.6485,-2.6419,-2.6449,-2.6708,-2.6738,-2.6642,-2.6672,-2.6683,-2.6651,-2.6651,-2.6448,-2.6245,-2.6245,-2.6014,-2.582,-2.5625,-2.5382,-2.5128,-2.4833,-2.4578,-2.431,-2.3954,-2.3795,-2.3438,-2.3038,-2.2987,-2.2987,-2.2837,-2.2434,-2.208,-2.1928,-2.1573,-2.1224,-2.1173,-2.0858,-2.055,-2.0447,-2.0344,-2.0248,-2.0189,-2.0138,-2.0138,-2.0086,-2.0086,-2.0084,-2.0056,-1.998,-1.9855,-1.8357,-1.8163,-1.8109,-1.7989,-1.7709,-1.7709,-1.7563,-1.7331,-1.7279,-1.7338,-1.7331,-1.7279,-1.7166,-1.6995,-1.7219,-1.7279,-1.7331,-1.7536,-1.7589,-1.7589,-1.7589,-1.7589,-1.7589,-1.7589,-1.7589,-1.7641,-1.7859,-1.8174,-1.8586,-1.9465,-2.0138,-2.0403,-2.0917,-2.1377,-2.1725,-2.2224,-2.2787,-2.3297,-2.3596,-2.3994,-2.4341,-2.4784,-2.5128,-2.5294,-2.5479,-2.5635,-2.5684,-2.5684,-2.5684,-2.5684,-2.5684,-2.5684,-2.5684,-2.5684,-2.5684,-2.5684,-2.5684,-2.5781,-2.5955,-2.6014,-2.6062,-2.6255,-2.6352,-2.64,-2.64,-2.6448,-2.6496,-2.6504,-2.63,-2.6364,-2.6675,-2.6602,-2.6496,-2.6496,-2.6448,-2.64,-2.639,-2.6159,-2.5955,-2.5858,-2.5674,-2.5489,-2.5235,-2.499,-2.4763,-2.4597,-2.4317,-2.4072,-2.3901,-2.3651,-2.3286,-2.2792,-2.2604,-2.2401,-2.2291,-2.1827,-2.153,-2.1369,-2.1011,-2.0704,-2.066,-2.0241,-1.9983,-2.0086,-1.9983,-1.9879,-1.9783,-1.9835,-1.9879,-1.9879,-1.9879,-1.9828,-1.9782,-1.9711,-1.9535,-1.8477,-1.8477,-1.847,-1.829,-1.7975,-1.7975,-1.7809,-1.7596,-1.7602,-1.7595,-1.7609,-1.7582,-1.7589,-1.7536,-1.7536,-1.7589,-1.7582,-1.7582,-1.7589,-1.7589,-1.7589,-1.7589,-1.7589,-1.7589,-1.7589,-1.7641,-1.7859,-1.8279,-1.8862,-1.9428,-1.9828,-2.013,-2.066,-2.1173,-2.1623,-2.2173,-2.2686,-2.2996,-2.3497,-2.3805,-2.3895,-2.4291,-2.4784,-2.5186,-2.5284,-2.544,-2.5645,-2.5684,-2.5684,-2.5684,-2.5684,-2.5684,-2.5684,-2.5684,-2.5684,-2.5684,-2.5684,-2.5684,-2.5732,-2.5732,-2.5732,-2.5781,-2.6014,-2.6091,-2.6149,-2.6304,-2.641,-2.6448,-2.6196,-2.6205,-2.6438,-2.64,-2.64,-2.64,-2.6245,-2.6149,-2.6091,-2.5878,-2.5635,-2.544,-2.5284,-2.5166,-2.496,-2.4686,-2.4612,-2.456,-2.4425,-2.4208,-2.4,-2.3764,-2.344,-2.3062,-2.2666,-2.2278,-2.1821,-2.1488,-2.1139,-2.0877,-2.0659,-2.0197,-2.0034,-1.9931,-1.9783,-1.9628,-1.942,-1.9368,-1.9324,-1.9324,-1.9316,-1.9316,-1.9316,-1.9316,-1.9309,-1.9524,-1.9419,-1.8938,-1.8751,-1.8564,-1.843,-1.8337,-1.833,-1.827,-1.8156,-1.7963,-1.7883,-1.7836,-1.7675,-1.7589,-1.7589,-1.7589,-1.7589,-1.7589,-1.7589,-1.7589,-1.7589,-1.7589,-1.7589,-1.7589,-1.7589,-1.7589,-1.7635,-1.7694,-1.801,-1.8593,-1.9168,-1.9576,-1.9879,-2.0351,-2.0822,-2.1216,-2.1725,-2.2232,-2.2686,-2.3097,-2.3447,-2.3755,-2.3945,-2.4291,-2.4784,-2.5137,-2.5342,-2.544,-2.5586,-2.5684,-2.5684,-2.5684,-2.5684,-2.5684,-2.5684,-2.5684,-2.5684,-2.5684,-2.5684,-2.5684,-2.5684,-2.5684,-2.5684,-2.5781,-2.5868,-2.583,-2.5927,-2.5975,-2.5975,-2.5927,-2.5878,-2.5927,-2.5975,-2.5975,-2.5965,-2.5927,-2.5771,-2.5616,-2.5479,-2.5333,-2.5088,-2.4883,-2.478,-2.4774,-2.4528,-2.4439,-2.4526,-2.4348,-2.407,-2.3789,-2.3523,-2.3201,-2.2794,-2.2341,-2.1985,-2.1618,-2.1478,-2.1227,-2.0761,-2.0399,-2.0113,-1.9904,-1.945,-1.9227,-1.9168,-1.8959,-1.8848,-1.8848,-1.8848,-1.8848,-1.8795,-1.8795,-1.8848,-1.8736,-1.9004,-1.8956,-1.9252,-1.9052,-1.8851,-1.8718,-1.8631,-1.8631,-1.8571,-1.8477,-1.8277,-1.8136,-1.7962,-1.7822,-1.7682,-1.7595,-1.7589,-1.7589,-1.7589,-1.7589,-1.7589,-1.7589,-1.7589,-1.7589,-1.7589,-1.7589,-1.7589,-1.7635,-1.7687,-1.795,-1.8429,-1.8907,-1.9324,-1.9732,-2.0145,-2.0557,-2.0925,-2.1326,-2.1827,-2.2333,-2.2686,-2.3097,-2.3497,-2.3755,-2.3945,-2.4291,-2.4794,-2.5088,-2.5186,-2.544,-2.5577,-2.5586,-2.5645,-2.5684,-2.5684,-2.5684,-2.5684,-2.5684,-2.5684,-2.5684,-2.5684,-2.5684,-2.5684,-2.5684,-2.5684,-2.5684,-2.5684,-2.5684,-2.5635,-2.5586,-2.5586,-2.5538,-2.5489,-2.544,-2.5489,-2.5538,-2.5499,-2.5391,-2.5177,-2.5177,-2.5106,-2.4973,-2.4662,-2.4587,-2.4696,-2.4521,-2.4408,-2.443,-2.4218,-2.4039,-2.3747,-2.3349,-2.3023,-2.2642,-2.2292,-2.1923,-2.1696,-2.1532,-2.1193,-2.0756,-2.0157,-1.9902,-1.9589,-1.9067,-1.8772,-1.8712,-1.8593,-1.8482,-1.837,-1.837,-1.837,-1.837,-1.8475,-1.8579,-1.8475,-1.8422,-1.8466,-1.9424,-1.9397,-1.9417,-1.9158,-1.8945,-1.8931,-1.8771,-1.8584,-1.8517,-1.8364,-1.8115,-1.8063,-1.7889,-1.7662,-1.7642,-1.7609,-1.7589,-1.7589,-1.7589,-1.7589,-1.7589,-1.7589,-1.7589,-1.7589,-1.7589,-1.7635,-1.7852,-1.8122,-1.8377,-1.8698,-1.9123,-1.9628,-1.9939,-2.0344,-2.0865,-2.1121,-2.1522,-2.203,-2.2325,-2.2686,-2.3046,-2.3506,-2.3755,-2.3845,-2.4291,-2.4578,-2.4833,-2.5128,-2.5284,-2.5333,-2.5538,-2.5684,-2.5684,-2.5684,-2.5684,-2.5684,-2.5684,-2.5684,-2.5684,-2.5684,-2.5684,-2.5684,-2.5684,-2.5635,-2.5635,-2.5635,-2.5538,-2.5333,-2.5284,-2.5177,-2.5039,-2.4941,-2.503,-2.5235,-2.5137,-2.499,-2.4932,-2.4901,-2.4935,-2.4954,-2.4619,-2.4512,-2.4697,-2.4613,-2.4404,-2.4281,-2.4185,-2.4052,-2.3737,-2.3342,-2.3063,-2.2838,-2.2334,-2.1856,-2.176,-2.1672,-2.1164,-2.0688,-2.0051,-1.9549,-1.9302,-1.8901,-1.858,-1.8433,-1.8279,-1.816,-1.816,-1.816,-1.816,-1.8213,-1.8265,-1.8265,-1.8213,-1.816,-1.8265,-1.9424,-1.9424,-1.9424,-1.9319,-1.9232,-1.9225,-1.9165,-1.9072,-1.8885,-1.8738,-1.8624,-1.8437,-1.819,-1.7956,-1.7849,-1.7789,-1.7595,-1.7589,-1.7589,-1.7589,-1.7589,-1.7589,-1.7589,-1.7589,-1.7589,-1.7641,-1.7687,-1.7852,-1.8122,-1.8429,-1.875,-1.9175,-1.9628,-1.9983,-2.0395,-2.0763,-2.1224,-2.1573,-2.1979,-2.2375,-2.2636,-2.3046,-2.3347,-2.3546,-2.3845,-2.4044,-2.4152,-2.4686,-2.499,-2.503,-2.5284,-2.5489,-2.5635,-2.5684,-2.5684,-2.5684,-2.5684,-2.5684,-2.5684,-2.5684,-2.5684,-2.5635,-2.5538,-2.544,-2.5391,-2.5284,-2.5137,-2.5039,-2.5039,-2.4981,-2.4883,-2.4735,-2.4735,-2.4981,-2.4932,-2.4794,-2.4603,-2.4559,-2.4491,-2.4536,-2.4472,-2.4534,-2.4588,-2.448,-2.4304,-2.4247,-2.411,-2.3797,-2.3368,-2.3078,-2.2788,-2.2449,-2.2059,-2.1717,-2.1489,-2.1203,-2.0843,-2.0504,-1.9966,-1.9516,-1.9189,-1.87,-1.8434,-1.8183,-1.8023,-1.795,-1.7898,-1.7898,-1.795,-1.7898,-1.7898,-1.7852,-1.7852,-1.7905,-1.8003,-1.9424,-1.9424,-1.9424,-1.9424,-1.9424,-1.9424,-1.9424,-1.9403,-1.9172,-1.9025,-1.8898,-1.8738,-1.849,-1.8257,-1.821,-1.8043,-1.7776,-1.7756,-1.7689,-1.7602,-1.7589,-1.7589,-1.7589,-1.7589,-1.7589,-1.7589,-1.7589,-1.7747,-1.8016,-1.8167,-1.8489,-1.8914,-1.9331,-1.968,-1.9983,-2.0506,-2.0873,-2.1173,-2.1581,-2.192,-2.2224,-2.2585,-2.2887,-2.3088,-2.3447,-2.3655,-2.3696,-2.4192,-2.4587,-2.4735,-2.5039,-2.5245,-2.5382,-2.5489,-2.5538,-2.5538,-2.5547,-2.5538,-2.5538,-2.543,-2.5391,-2.5391,-2.5235,-2.5137,-2.5128,-2.499,-2.4883,-2.4784,-2.4735,-2.4686,-2.4489,-2.4341,-2.4291,-2.4341,-2.4381,-2.4415,-2.4313,-2.4314,-2.4484,-2.455,-2.4492,-2.4525,-2.4587,-2.4289,-2.4035,-2.3935,-2.3697,-2.336,-2.2845,-2.2562,-2.2279,-2.1938,-2.1531,-2.1253,-2.1081,-2.0795,-2.0443,-2.0223,-1.9927,-1.9605,-1.9251,-1.8598,-1.8184,-1.7954,-1.774,-1.774,-1.774,-1.7694,-1.7694,-1.7641,-1.7589,-1.7641,-1.7747,-1.7694,-1.7747,-1.9424,-1.9424,-1.9424,-1.9424,-1.9424,-1.9424,-1.9424,-1.9424,-1.9352,-1.9199,-1.8998,-1.8965,-1.8811,-1.8591,-1.8482,-1.835,-1.8055,-1.8009,-1.7949,-1.7756,-1.7669,-1.7635,-1.7595,-1.7589,-1.7589,-1.7589,-1.7589,-1.7747,-1.7905,-1.8016,-1.8286,-1.8764,-1.9071,-1.9428,-1.9732,-2.0205,-2.0565,-2.0814,-2.1121,-2.142,-2.1674,-2.2173,-2.2476,-2.2535,-2.3038,-2.3347,-2.3406,-2.3696,-2.4044,-2.4489,-2.4784,-2.4883,-2.4932,-2.5128,-2.5284,-2.5284,-2.5284,-2.5284,-2.5235,-2.5088,-2.499,-2.499,-2.4932,-2.4892,-2.4883,-2.4784,-2.4637,-2.444,-2.4381,-2.4233,-2.3895,-2.3868,-2.3786,-2.3545,-2.379,-2.3907,-2.3983,-2.4252,-2.4465,-2.4675,-2.4518,-2.4267,-2.4582,-2.4133,-2.3656,-2.3287,-2.307,-2.2675,-2.2286,-2.2059,-2.1782,-2.1432,-2.1131,-2.0845,-2.0615,-2.0443,-2.0155,-1.9883,-1.9688,-1.9516,-1.9166,-1.8556,-1.7996,-1.7775,-1.7635,-1.7635,-1.7589,-1.7589,-1.7589,-1.7589,-1.7589,-1.7589,-1.7589,-1.7589,-1.7641,-1.9424,-1.9424,-1.9424,-1.9424,-1.9424,-1.9424,-1.9424,-1.9424,-1.9424,-1.9319,-1.9252,-1.9252,-1.9057,-1.8849,-1.8765,-1.8651,-1.8437,-1.837,-1.835,-1.8223,-1.7962,-1.7789,-1.7629,-1.7589,-1.7589,-1.7589,-1.7589,-1.7635,-1.7687,-1.7905,-1.8069,-1.8233,-1.8757,-1.9123,-1.9428,-1.9739,-2.0034,-2.0344,-2.0763,-2.1027,-2.1173,-2.1615,-2.1979,-2.2232,-2.2577,-2.2837,-2.3097,-2.3347,-2.3845,-2.444,-2.4538,-2.4686,-2.4833,-2.4941,-2.4981,-2.503,-2.503,-2.4981,-2.4981,-2.4941,-2.4892,-2.4883,-2.4677,-2.4578,-2.4587,-2.4291,-2.4093,-2.3945,-2.3845,-2.3664,-2.355,-2.3723,-2.3716,-2.3609,-2.3719,-2.3856,-2.3957,-2.412,-2.4244,-2.4068,-2.4031,-2.4058,-2.3975,-2.3632,-2.3183,-2.2958,-2.2619,-2.2222,-2.1831,-2.166,-2.1489,-2.1074,-2.0723,-2.0436,-2.0213,-2.004,-1.9809,-1.9584,-1.9445,-1.9344,-1.8994,-1.8465,-1.8016,-1.7669,-1.7655,-1.7589,-1.7589,-1.7589,-1.7589,-1.7589,-1.7589,-1.7589,-1.7589,-1.7589,-1.7589,-1.9424,-1.9424,-1.9424,-1.9424,-1.9424,-1.9424,-1.9424,-1.9424,-1.9424,-1.9424,-1.9424,-1.9424,-1.9294,-1.9138,-1.9114,-1.8951,-1.8704,-1.8671,-1.8597,-1.8457,-1.8303,-1.7996,-1.7689,-1.7589,-1.7589,-1.7589,-1.7589,-1.7589,-1.7635,-1.774,-1.7852,-1.8023,-1.8338,-1.8705,-1.913,-1.9376,-1.968,-1.9983,-2.0344,-2.0609,-2.0771,-2.1121,-2.1471,-2.1776,-2.2021,-2.2333,-2.2745,-2.3097,-2.3546,-2.4044,-2.4242,-2.4341,-2.4587,-2.4686,-2.4726,-2.4735,-2.4735,-2.4735,-2.4686,-2.4637,-2.4538,-2.444,-2.4291,-2.4143,-2.4044,-2.3755,-2.3655,-2.3596,-2.3589,-2.3476,-2.3361,-2.3384,-2.345,-2.3465,-2.3602,-2.3674,-2.3682,-2.3921,-2.3998,-2.3806,-2.3653,-2.3528,-2.352,-2.2965,-2.2626,-2.24,-2.2165,-2.171,-2.136,-2.1303,-2.1139,-2.073,-2.0436,-2.0155,-1.9931,-1.9815,-1.97,-1.9475,-1.9403,-1.9252,-1.8958,-1.8482,-1.8176,-1.7856,-1.7702,-1.7589,-1.7589,-1.7589,-1.7589,-1.7589,-1.7589,-1.7589,-1.7589,-1.7589,-1.7589,-1.9424,-1.9424,-1.9424,-1.9424,-1.9424,-1.9424,-1.9424,-1.9424,-1.9424,-1.9424,-1.9424,-1.9424,-1.9366,-1.9424,-1.9319,-1.9212,-1.8971,-1.8971,-1.8784,-1.8644,-1.8497,-1.8263,-1.7829,-1.7796,-1.7742,-1.7695,-1.7635,-1.7615,-1.7602,-1.7635,-1.7747,-1.7911,-1.8016,-1.8286,-1.8705,-1.9071,-1.9376,-1.9576,-1.9931,-2.0197,-2.0411,-2.066,-2.0968,-2.1318,-2.1674,-2.1979,-2.2333,-2.2686,-2.3046,-2.3646,-2.3705,-2.3904,-2.4093,-2.4282,-2.4332,-2.4332,-2.4341,-2.4341,-2.4341,-2.4192,-2.4003,-2.3854,-2.3805,-2.3696,-2.3514,-2.3409,-2.3379,-2.3379,-2.3628,-2.3479,-2.327,-2.2989,-2.3029,-2.3209,-2.3283,-2.3236,-2.3247,-2.354,-2.3801,-2.3689,-2.3183,-2.2958,-2.2788,-2.2456,-2.2002,-2.1888,-2.1603,-2.1246,-2.096,-2.0845,-2.0673,-2.0335,-2.0046,-1.9873,-1.97,-1.9591,-1.954,-1.9424,-1.9424,-1.9343,-1.9078,-1.8724,-1.8335,-1.8096,-1.7789,-1.7629,-1.7589,-1.7589,-1.7589,-1.7589,-1.7589,-1.7589,-1.7589,-1.7589,-1.7589,-1.9424,-1.9424,-1.9424,-1.9424,-1.9424,-1.9424,-1.9424,-1.9424,-1.9424,-1.9424,-1.9424,-1.9424,-1.9424,-1.9424,-1.9424,-1.9325,-1.9252,-1.9232,-1.9112,-1.8858,-1.8831,-1.8644,-1.835,-1.8297,-1.8163,-1.8009,-1.7949,-1.7829,-1.7669,-1.7662,-1.7648,-1.7728,-1.7966,-1.8076,-1.83,-1.8719,-1.8974,-1.9175,-1.9532,-1.9776,-1.9887,-2.0189,-2.0506,-2.0917,-2.142,-2.1725,-2.1827,-2.1928,-2.2232,-2.2728,-2.3188,-2.3447,-2.3596,-2.3646,-2.3696,-2.3696,-2.3696,-2.3646,-2.3646,-2.3655,-2.3555,-2.3497,-2.3491,-2.3456,-2.3423,-2.3251,-2.3177,-2.316,-2.307,-2.3126,-2.3162,-2.3015,-2.2907,-2.2935,-2.2863,-2.2654,-2.2517,-2.2846,-2.3006,-2.2683,-2.2456,-2.2279,-2.2286,-2.2002,-2.1611,-2.1382,-2.1089,-2.0788,-2.0558,-2.0385,-2.022,-1.9989,-1.9873,-1.97,-1.9591,-1.9482,-1.9482,-1.9424,-1.9424,-1.9417,-1.9152,-1.8818,-1.8444,-1.811,-1.7789,-1.7675,-1.7595,-1.7589,-1.7589,-1.7589,-1.7589,-1.7589,-1.7589,-1.7589,-1.7536,-1.9424,-1.9424,-1.9424,-1.9424,-1.9424,-1.9424,-1.9424,-1.9424,-1.9424,-1.9424,-1.9424,-1.9424,-1.9424,-1.9424,-1.9424,-1.9424,-1.9424,-1.9424,-1.9285,-1.9145,-1.9125,-1.9045,-1.8951,-1.8858,-1.8698,-1.833,-1.825,-1.8136,-1.8043,-1.7996,-1.8043,-1.7989,-1.8043,-1.8103,-1.8187,-1.8429,-1.8548,-1.8757,-1.9071,-1.9376,-1.9532,-1.9776,-2.0086,-2.0557,-2.1019,-2.1318,-2.1326,-2.1623,-2.1827,-2.2131,-2.2434,-2.2887,-2.3297,-2.3406,-2.3406,-2.3406,-2.3406,-2.3406,-2.3406,-2.3406,-2.3297,-2.3014,-2.3153,-2.3106,-2.2997,-2.2901,-2.2938,-2.2942,-2.2926,-2.2893,-2.295,-2.2672,-2.2583,-2.2548,-2.2449,-2.2173,-2.1896,-2.223,-2.2505,-2.2116,-2.1888,-2.1717,-2.1603,-2.1375,-2.1089,-2.0744,-2.0737,-2.0443,-2.0213,-2.0046,-1.9873,-1.9758,-1.9642,-1.9533,-1.9482,-1.9424,-1.9424,-1.9424,-1.9424,-1.9424,-1.9343,-1.8885,-1.8457,-1.817,-1.7909,-1.7662,-1.7589,-1.7589,-1.7589,-1.7582,-1.7582,-1.7589,-1.7589,-1.7529,-1.743,-1.9424,-1.9424,-1.9424,-1.9424,-1.9424,-1.9424,-1.9424,-1.9424,-1.9424,-1.9424,-1.9424,-1.9424,-1.9424,-1.9424,-1.9424,-1.9424,-1.9424,-1.9424,-1.9383,-1.9383,-1.937,-1.9357,-1.9336,-1.9232,-1.9085,-1.8644,-1.8571,-1.8524,-1.8457,-1.849,-1.8377,-1.8417,-1.8243,-1.8232,-1.8374,-1.8317,-1.8381,-1.8621,-1.8861,-1.9089,-1.9255,-1.9479,-1.9732,-2.0086,-2.0506,-2.0755,-2.0858,-2.1113,-2.1463,-2.1573,-2.1573,-2.2165,-2.2906,-2.3155,-2.3138,-2.3097,-2.2996,-2.3007,-2.3094,-2.3136,-2.2993,-2.2537,-2.2834,-2.2866,-2.2601,-2.2621,-2.2712,-2.2706,-2.2691,-2.2609,-2.2523,-2.2176,-2.1964,-2.1945,-2.1881,-2.1603,-2.1318,-2.1539,-2.1653,-2.1653,-2.131,-2.1081,-2.0967,-2.0737,-2.045,-2.022,-2.022,-2.0104,-1.9873,-1.9707,-1.9591,-1.9591,-1.9533,-1.9475,-1.9424,-1.9185,-1.9243,-1.9185,-1.9249,-1.9191,-1.9145,-1.8595,-1.82,-1.8268,-1.8083,-1.7782,-1.7589,-1.7589,-1.7589,-1.7582,-1.7477,-1.743,-1.7424,-1.7477,-1.7318,-1.9424,-1.9424,-1.9424,-1.9424,-1.9424,-1.9424,-1.9424,-1.9424,-1.9424,-1.9424,-1.9424,-1.9424,-1.9424,-1.9424,-1.9424,-1.9424,-1.9424,-1.9424,-1.9424,-1.9424,-1.9424,-1.9424,-1.9424,-1.9424,-1.9279,-1.9192,-1.8985,-1.8751,-1.8591,-1.8497,-1.8597,-1.8517,-1.845,-1.8472,-1.8569,-1.8618,-1.8625,-1.8666,-1.8865,-1.9042,-1.9159,-1.9235,-1.9426,-1.9784,-2.0208,-2.0341,-2.0295,-2.0367,-2.0542,-2.0968,-2.1019,-2.1556,-2.2175,-2.2188,-2.213,-2.2232,-2.2249,-2.2426,-2.2611,-2.2567,-2.263,-2.2681,-2.2805,-2.2785,-2.2663,-2.256,-2.2472,-2.2364,-2.2291,-2.2209,-2.2157,-2.1653,-2.1375,-2.1261,-2.1024,-2.0673,-2.0558,-2.0565,-2.068,-2.0615,-2.05,-2.0443,-2.0385,-2.027,-1.9982,-1.9809,-1.97,-1.9584,-1.9417,-1.9359,-1.9366,-1.9366,-1.9424,-1.9424,-1.9424,-1.912,-1.8939,-1.8887,-1.8887,-1.8713,-1.8513,-1.8076,-1.7843,-1.8046,-1.7914,-1.7589,-1.7477,-1.7529,-1.743,-1.7272,-1.7219,-1.7166,-1.716,-1.71,-1.6948,-1.9424,-1.9424,-1.9424,-1.9424,-1.9424,-1.9424,-1.9424,-1.9424,-1.9424,-1.9424,-1.9424,-1.9424,-1.9424,-1.9424,-1.9424,-1.9424,-1.9424,-1.9424,-1.9424,-1.9424,-1.9424,-1.9424,-1.9424,-1.9424,-1.9424,-1.9383,-1.9199,-1.9085,-1.8958,-1.8965,-1.8975,-1.8911,-1.8811,-1.8718,-1.8664,-1.8648,-1.8732,-1.8727,-1.8837,-1.8966,-1.9129,-1.9184,-1.9509,-1.9762,-2.0112,-2.034,-2.0393,-2.0552,-2.0718,-2.0945,-2.0991,-2.1235,-2.1494,-2.1629,-2.1659,-2.2086,-2.2174,-2.23,-2.2481,-2.2523,-2.2552,-2.2363,-2.2495,-2.2445,-2.2268,-2.219,-2.2154,-2.2007,-2.1779,-2.1539,-2.136,-2.096,-2.0795,-2.068,-2.045,-2.0213,-2.004,-1.9873,-1.9751,-1.9693,-1.9866,-1.9982,-1.9982,-1.9809,-1.9577,-1.9345,-1.9178,-1.9062,-1.8952,-1.8952,-1.9017,-1.901,-1.901,-1.901,-1.901,-1.8829,-1.8648,-1.8596,-1.848,-1.8363,-1.8134,-1.7793,-1.7703,-1.7847,-1.7594,-1.7086,-1.7153,-1.7047,-1.7001,-1.7008,-1.6955,-1.6895,-1.6783,-1.6677,-1.6577,-1.9424,-1.9424,-1.9424,-1.9424,-1.9424,-1.9424,-1.9424,-1.9424,-1.9424,-1.9424,-1.9424,-1.9424,-1.9424,-1.9424,-1.9424,-1.9424,-1.9424,-1.9424,-1.9424,-1.9424,-1.9424,-1.9424,-1.9424,-1.9424,-1.9424,-1.9424,-1.9345,-1.9424,-1.9357,-1.935,-1.9397,-1.9316,-1.9085,-1.9011,-1.8965,-1.8901,-1.8691,-1.8707,-1.8751,-1.8884,-1.9043,-1.9415,-1.969,-1.969,-2.0121,-2.0303,-2.0367,-2.0522,-2.0747,-2.0862,-2.0939,-2.1101,-2.1185,-2.12,-2.1666,-2.2427,-2.2546,-2.2497,-2.2508,-2.2463,-2.2233,-2.2119,-2.223,-2.2055,-2.191,-2.1854,-2.1744,-2.1439,-2.1203,-2.091,-2.073,-2.0378,-2.0213,-2.0104,-2.004,-1.9866,-1.9519,-1.9294,-1.9062,-1.9113,-1.9345,-1.9345,-1.9287,-1.9287,-1.8997,-1.8939,-1.8829,-1.8771,-1.8655,-1.8596,-1.8596,-1.8538,-1.8538,-1.8538,-1.8538,-1.8492,-1.8363,-1.8305,-1.8188,-1.8012,-1.7807,-1.7609,-1.7485,-1.7266,-1.6677,-1.6205,-1.6411,-1.6677,-1.6736,-1.6736,-1.6683,-1.6577,-1.6411,-1.6258,-1.6158,-1.9424,-1.9424,-1.9424,-1.9424,-1.9424,-1.9424,-1.9424,-1.9424,-1.9424,-1.9424,-1.9424,-1.9424,-1.9424,-1.9424,-1.9424,-1.9424,-1.9424,-1.9424,-1.9424,-1.9424,-1.9424,-1.9424,-1.9424,-1.9424,-1.9424,-1.9424,-1.9424,-1.9424,-1.9424,-1.9424,-1.9424,-1.9397,-1.9319,-1.9299,-1.9296,-1.9172,-1.9323,-1.9199,-1.9048,-1.8926,-1.8953,-1.9244,-1.9416,-1.9457,-1.9575,-1.9761,-2.0024,-2.0204,-2.0278,-2.0632,-2.0657,-2.0988,-2.142,-2.1544,-2.1727,-2.1879,-2.1694,-2.1449,-2.1766,-2.1938,-2.1921,-2.1915,-2.2027,-2.2096,-2.1741,-2.1408,-2.1089,-2.0507,-2.045,-2.0385,-2.022,-1.9989,-1.9758,-1.9461,-1.9287,-1.9055,-1.8706,-1.8648,-1.848,-1.8363,-1.8473,-1.8473,-1.8415,-1.848,-1.848,-1.8421,-1.8421,-1.8363,-1.8305,-1.8246,-1.8129,-1.8071,-1.8012,-1.7954,-1.783,-1.7843,-1.7843,-1.7901,-1.7778,-1.7584,-1.7295,-1.7014,-1.6678,-1.6303,-1.5747,-1.5678,-1.6039,-1.6305,-1.6471,-1.6365,-1.6158,-1.6051,-1.5998,-1.5891,-1.5737,-1.9424,-1.9424,-1.9424,-1.9424,-1.9424,-1.9424,-1.9424,-1.9424,-1.9424,-1.9424,-1.9424,-1.9424,-1.9424,-1.9424,-1.9424,-1.9424,-1.9424,-1.9424,-1.9424,-1.9424,-1.9424,-1.9424,-1.9424,-1.9424,-1.9424,-1.9424,-1.9424,-1.9424,-1.9424,-1.9424,-1.9424,-1.9424,-1.9424,-1.941,-1.9424,-1.9424,-1.9417,-1.9377,-1.929,-1.9176,-1.9239,-1.9419,-1.9582,-1.9575,-1.9737,-1.99,-2.0019,-2.0104,-2.016,-2.0435,-2.0435,-2.0647,-2.0989,-2.109,-2.1171,-2.1222,-2.1053,-2.1253,-2.1759,-2.1823,-2.1745,-2.1593,-2.1546,-2.1417,-2.1139,-2.0852,-2.0622,-2.0328,-1.9924,-1.9758,-1.9642,-1.9294,-1.9004,-1.8771,-1.8648,-1.8532,-1.824,-1.8006,-1.783,-1.7713,-1.7602,-1.7596,-1.7713,-1.7895,-1.7954,-1.8018,-1.7895,-1.7837,-1.783,-1.783,-1.7661,-1.7491,-1.7432,-1.7426,-1.7185,-1.7073,-1.7073,-1.7132,-1.7073,-1.6885,-1.6675,-1.6344,-1.6061,-1.5739,-1.5404,-1.5463,-1.5791,-1.5779,-1.5725,-1.5678,-1.5577,-1.5571,-1.5571,-1.541,-1.5256,-1.9424,-1.9424,-1.9424,-1.9424,-1.9424,-1.9424,-1.9424,-1.9424,-1.9424,-1.9424,-1.9424,-1.9424,-1.9424,-1.9424,-1.9424,-1.9424,-1.9424,-1.9424,-1.9424,-1.9424,-1.9424,-1.9424,-1.9424,-1.9424,-1.9424,-1.9424,-1.9424,-1.9424,-1.9424,-1.9424,-1.9424,-1.9424,-1.9424,-1.9424,-1.9424,-1.9424,-1.9424,-1.9417,-1.941,-1.9383,-1.9435,-1.955,-1.9673,-1.9737,-1.9924,-2.0097,-2.0155,-2.0134,-2.0127,-2.0286,-2.0322,-2.0422,-2.0623,-2.0623,-2.0687,-2.0716,-2.063,-2.0823,-2.1252,-2.1437,-2.1368,-2.1146,-2.0917,-2.0802,-2.0335,-2.0104,-1.9982,-1.9859,-1.941,-1.912,-1.9004,-1.8655,-1.848,-1.8305,-1.8188,-1.8071,-1.7889,-1.7537,-1.7244,-1.7185,-1.7009,-1.6832,-1.7015,-1.7309,-1.7491,-1.755,-1.7432,-1.7309,-1.7303,-1.7303,-1.7185,-1.702,-1.6956,-1.6891,-1.6773,-1.6537,-1.6478,-1.6419,-1.6419,-1.6364,-1.6217,-1.5869,-1.5468,-1.5199,-1.493,-1.4672,-1.46,-1.4821,-1.5041,-1.5148,-1.5256,-1.5148,-1.5089,-1.4934,-1.4665,-1.9424,-1.9424,-1.9424,-1.9424,-1.9424,-1.9424,-1.9424,-1.9424,-1.9424,-1.9424,-1.9424,-1.9424,-1.9424,-1.9424,-1.9424,-1.9424,-1.9424,-1.9424,-1.9424,-1.9424,-1.9424,-1.9424,-1.9424,-1.9424,-1.9424,-1.9424,-1.9424,-1.9424,-1.9424,-1.9424,-1.9424,-1.9424,-1.9424,-1.9424,-1.9424,-1.9424,-1.9424,-1.9424,-1.9424,-1.9424,-1.9424,-1.9482,-1.9482,-1.9482,-1.9475,-1.9591,-1.9815,-1.9815,-1.9931,-2.0155,-2.0155,-2.0213,-2.027,-2.0328,-2.0328,-2.0328,-2.0328,-2.045,-2.0565,-2.0673,-2.05,-2.0385,-2.027,-2.0162,-1.9809,-1.9526,-1.9294,-1.9107,-1.8713,-1.848,-1.848,-1.8363,-1.7889,-1.7713,-1.7479,-1.7303,-1.7126,-1.6832,-1.6596,-1.6537,-1.636,-1.6129,-1.607,-1.6307,-1.6838,-1.6956,-1.7015,-1.6897,-1.6773,-1.6773,-1.6655,-1.6537,-1.6478,-1.6473,-1.6414,-1.6242,-1.5946,-1.5946,-1.5946,-1.5968,-1.5935,-1.5528,-1.4923,-1.453,-1.4184,-1.3795,-1.3581,-1.4067,-1.4504,-1.488,-1.4934,-1.4611,-1.4498,-1.439,-1.4013,-1.9424,-1.9424,-1.9424,-1.9424,-1.9424,-1.9424,-1.9424,-1.9424,-1.9424,-1.9424,-1.9424,-1.9424,-1.9424,-1.9424,-1.9424,-1.9424,-1.9424,-1.9424,-1.9424,-1.9424,-1.9424,-1.9424,-1.9424,-1.9424,-1.9424,-1.9424,-1.9424,-1.9424,-1.9424,-1.9424,-1.9424,-1.9424,-1.9424,-1.9424,-1.9424,-1.9424,-1.9424,-1.9424,-1.9424,-1.9424,-1.9424,-1.9424,-1.9424,-1.9424,-1.9424,-1.9424,-1.9533,-1.9533,-1.9649,-1.97,-1.9764,-1.9873,-1.9989,-1.9989,-1.9989,-1.9982,-1.9989,-1.9873,-1.9822,-1.9989,-2.0213,-1.9931,-1.9693,-1.9397,-1.9287,-1.8946,-1.8771,-1.8473,-1.8123,-1.783,-1.783,-1.7479,-1.7067,-1.695,-1.6773,-1.6596,-1.636,-1.6065,-1.5887,-1.5828,-1.5537,-1.5186,-1.5186,-1.5304,-1.5893,-1.636,-1.6419,-1.6478,-1.6301,-1.6183,-1.6065,-1.5887,-1.5828,-1.565,-1.565,-1.5477,-1.5359,-1.5418,-1.5472,-1.5328,-1.5245,-1.4797,-1.4241,-1.385,-1.3575,-1.3296,-1.331,-1.364,-1.3964,-1.418,-1.4126,-1.3856,-1.3802,-1.3797,-1.3472,-1.9424,-1.9424,-1.9424,-1.9424,-1.9424,-1.9424,-1.9424,-1.9424,-1.9424,-1.9424,-1.9424,-1.9424,-1.9424,-1.9424,-1.9424,-1.9424,-1.9424,-1.9424,-1.9424,-1.9424,-1.9424,-1.9424,-1.9424,-1.9424,-1.9424,-1.9424,-1.9424,-1.9424,-1.9424,-1.9424,-1.9424,-1.9424,-1.9424,-1.9424,-1.9424,-1.9424,-1.9424,-1.9424,-1.9424,-1.9424,-1.9424,-1.9424,-1.9424,-1.9424,-1.9424,-1.9424,-1.9424,-1.9424,-1.9424,-1.9482,-1.9482,-1.9533,-1.9591,-1.9649,-1.9642,-1.9577,-1.9519,-1.941,-1.9352,-1.9526,-1.9693,-1.9352,-1.9055,-1.8816,-1.8642,-1.8357,-1.8123,-1.8064,-1.7596,-1.7185,-1.7185,-1.6891,-1.6478,-1.6366,-1.6248,-1.6065,-1.5655,-1.5359,-1.524,-1.5121,-1.4828,-1.4714,-1.4709,-1.4769,-1.5002,-1.5477,-1.5537,-1.5596,-1.5537,-1.5477,-1.5418,-1.5299,-1.518,-1.4948,-1.4714,-1.4828,-1.4942,-1.4942,-1.4891,-1.4504,-1.4268,-1.3896,-1.3497,-1.3012,-1.2801,-1.2831,-1.2822,-1.2767,-1.3044,-1.3369,-1.3315,-1.3261,-1.293,-1.2871,-1.2822,-1.9424,-1.9424,-1.9424,-1.9424,-1.9424,-1.9424,-1.9424,-1.9424,-1.9424,-1.9424,-1.9424,-1.9424,-1.9424,-1.9424,-1.9424,-1.9424,-1.9424,-1.9424,-1.9424,-1.9424,-1.9424,-1.9424,-1.9424,-1.9424,-1.9424,-1.9424,-1.9424,-1.9424,-1.9424,-1.9424,-1.9424,-1.9424,-1.9424,-1.9424,-1.9424,-1.9424,-1.9424,-1.9424,-1.9424,-1.9424,-1.9424,-1.9424,-1.9424,-1.9424,-1.9424,-1.9424,-1.9424,-1.9424,-1.9424,-1.9424,-1.9307,-1.9359,-1.9359,-1.9366,-1.9243,-1.8997,-1.8997,-1.8765,-1.8538,-1.8765,-1.8765,-1.8648,-1.8473,-1.8357,-1.824,-1.7889,-1.7479,-1.742,-1.6891,-1.6596,-1.6478,-1.6419,-1.6005,-1.5774,-1.5655,-1.5418,-1.5007,-1.4709,-1.4585,-1.4282,-1.4411,-1.4535,-1.4411,-1.4351,-1.4351,-1.4471,-1.459,-1.465,-1.4764,-1.4644,-1.4585,-1.4466,-1.4346,-1.4167,-1.4047,-1.4291,-1.4471,-1.453,-1.4272,-1.3854,-1.3553,-1.3227,-1.2796,-1.2192,-1.2114,-1.2223,-1.1951,-1.1732,-1.2114,-1.2495,-1.2718,-1.2713,-1.2332,-1.211,-1.2114,-1.9424,-1.9424,-1.9424,-1.9424,-1.9424,-1.9424,-1.9424,-1.9424,-1.9424,-1.9424,-1.9424,-1.9424,-1.9424,-1.9424,-1.9424,-1.9424,-1.9424,-1.9424,-1.9424,-1.9424,-1.9424,-1.9424,-1.9424,-1.9424,-1.9424,-1.9424,-1.9424,-1.9424,-1.9424,-1.9424,-1.9424,-1.9424,-1.9424,-1.9424,-1.9424,-1.9424,-1.9424,-1.9424,-1.9424,-1.9424,-1.9424,-1.9424,-1.9424,-1.9424,-1.9424,-1.9366,-1.9366,-1.9366,-1.9307,-1.9307,-1.9185,-1.9062,-1.9004,-1.8946,-1.8713,-1.859,-1.859,-1.8421,-1.8135,-1.8129,-1.8123,-1.8129,-1.8006,-1.7772,-1.7772,-1.7185,-1.695,-1.6714,-1.6242,-1.5946,-1.5893,-1.5418,-1.5067,-1.5007,-1.4888,-1.4585,-1.4291,-1.4107,-1.3863,-1.3439,-1.3324,-1.3444,-1.3444,-1.3504,-1.3564,-1.3569,-1.3688,-1.3928,-1.4043,-1.3803,-1.3684,-1.3564,-1.3444,-1.3324,-1.3384,-1.3624,-1.3684,-1.3624,-1.3374,-1.3013,-1.2718,-1.2577,-1.221,-1.1757,-1.1658,-1.1573,-1.1404,-1.124,-1.135,-1.1618,-1.1787,-1.1951,-1.1732,-1.1623,-1.1787,-1.9424,-1.9424,-1.9424,-1.9424,-1.9424,-1.9424,-1.9424,-1.9424,-1.9424,-1.9424,-1.9424,-1.9424,-1.9424,-1.9424,-1.9424,-1.9424,-1.9424,-1.9424,-1.9424,-1.9424,-1.9424,-1.9424,-1.9424,-1.9424,-1.9424,-1.9424,-1.9424,-1.9424,-1.9424,-1.9424,-1.9424,-1.9424,-1.9424,-1.9424,-1.9424,-1.9424,-1.9424,-1.9424,-1.9424,-1.9424,-1.9424,-1.9424,-1.9424,-1.9366,-1.9307,-1.9185,-1.9185,-1.9127,-1.9068,-1.901,-1.8887,-1.8706,-1.8648,-1.8532,-1.8363,-1.8305,-1.8012,-1.7778,-1.7426,-1.7309,-1.7361,-1.7537,-1.7303,-1.7185,-1.7067,-1.6537,-1.6307,-1.6011,-1.5596,-1.5359,-1.518,-1.465,-1.453,-1.4471,-1.4167,-1.3928,-1.3564,-1.3384,-1.3264,-1.2779,-1.2599,-1.2599,-1.2479,-1.2539,-1.2659,-1.2724,-1.2788,-1.3029,-1.3324,-1.3144,-1.2964,-1.2904,-1.2904,-1.29,-1.29,-1.296,-1.29,-1.2715,-1.253,-1.2337,-1.2162,-1.2073,-1.1668,-1.1296,-1.1122,-1.097,-1.0911,-1.0857,-1.0802,-1.0747,-1.0747,-1.0857,-1.0966,-1.1076,-1.1131,-1.9424,-1.9424,-1.9424,-1.9424,-1.9424,-1.9424,-1.9424,-1.9424,-1.9424,-1.9424,-1.9424,-1.9424,-1.9424,-1.9424,-1.9424,-1.9424,-1.9424,-1.9424,-1.9424,-1.9424,-1.9424,-1.9424,-1.9424,-1.9424,-1.9424,-1.9424,-1.9424,-1.9424,-1.9424,-1.9424,-1.9424,-1.9424,-1.9424,-1.9366,-1.9366,-1.9301,-1.9366,-1.9366,-1.9424,-1.9366,-1.9301,-1.9307,-1.9249,-1.9127,-1.9004,-1.8939,-1.8823,-1.8713,-1.8538,-1.848,-1.8428,-1.8428,-1.8363,-1.8363,-1.82,-1.7849,-1.7321,-1.702,-1.672,-1.6655,-1.6478,-1.6655,-1.6419,-1.6419,-1.6301,-1.5952,-1.5655,-1.5359,-1.5067,-1.4769,-1.453,-1.4351,-1.4167,-1.3928,-1.3684,-1.3324,-1.29,-1.2719,-1.2659,-1.2479,-1.2359,-1.2298,-1.1997,-1.1997,-1.1937,-1.1881,-1.1945,-1.2062,-1.2359,-1.2668,-1.2543,-1.2543,-1.2543,-1.2539,-1.2539,-1.2354,-1.2174,-1.2053,-1.2153,-1.2009,-1.1825,-1.1474,-1.1118,-1.0735,-1.0469,-1.0312,-1.0366,-1.0202,-0.9981,-0.9981,-1.0036,-1.0143,-1.0363,-1.0257,-1.0257,-1.9424,-1.9424,-1.9424,-1.9424,-1.9424,-1.9424,-1.9424,-1.9424,-1.9424,-1.9424,-1.9424,-1.9424,-1.9424,-1.9424,-1.9424,-1.9424,-1.9424,-1.9424,-1.9424,-1.9424,-1.9366,-1.9366,-1.9366,-1.9366,-1.9366,-1.9366,-1.9366,-1.9307,-1.9366,-1.9366,-1.9366,-1.9424,-1.9307,-1.9243,-1.912,-1.9055,-1.9185,-1.9249,-1.9307,-1.9185,-1.9062,-1.9062,-1.8952,-1.8771,-1.8648,-1.859,-1.8473,-1.8415,-1.8357,-1.8305,-1.82,-1.8142,-1.8142,-1.7667,-1.7256,-1.6956,-1.672,-1.6596,-1.6425,-1.607,-1.5833,-1.5715,-1.5477,-1.5542,-1.5483,-1.5304,-1.4888,-1.4709,-1.4471,-1.4167,-1.3928,-1.3748,-1.3569,-1.3264,-1.3024,-1.2779,-1.2359,-1.2178,-1.2118,-1.1877,-1.1816,-1.1696,-1.1454,-1.1394,-1.1333,-1.116,-1.116,-1.1337,-1.1514,-1.182,-1.2005,-1.2062,-1.2001,-1.2001,-1.1816,-1.1635,-1.1511,-1.1386,-1.1491,-1.1463,-1.1082,-1.0762,-1.0455,-1.0208,-0.9968,-0.9871,-0.9926,-0.9706,-0.9482,-0.9485,-0.9596,-0.9651,-0.9702,-0.9596,-0.9541,-1.9424,-1.9424,-1.9424,-1.9424,-1.9424,-1.9424,-1.9424,-1.9424,-1.9424,-1.9424,-1.9424,-1.9424,-1.9424,-1.9424,-1.9424,-1.9424,-1.9424,-1.9424,-1.9359,-1.9178,-1.9185,-1.9068,-1.9068,-1.901,-1.8952,-1.901,-1.901,-1.8894,-1.901,-1.9017,-1.901,-1.8952,-1.901,-1.8894,-1.8771,-1.8706,-1.8765,-1.8894,-1.8952,-1.8887,-1.8771,-1.8706,-1.8532,-1.8421,-1.8305,-1.8246,-1.8188,-1.8129,-1.8006,-1.7895,-1.7673,-1.7556,-1.7432,-1.702,-1.6608,-1.6307,-1.6129,-1.5893,-1.5655,-1.5364,-1.5245,-1.5067,-1.4644,-1.4525,-1.4585,-1.4466,-1.4286,-1.4167,-1.3808,-1.3504,-1.3324,-1.3149,-1.2844,-1.2539,-1.2359,-1.2174,-1.1937,-1.1756,-1.1454,-1.1212,-1.1031,-1.097,-1.0849,-1.0793,-1.0793,-1.0914,-1.0914,-1.0974,-1.1091,-1.1212,-1.1337,-1.1398,-1.1398,-1.1337,-1.1156,-1.1091,-1.1031,-1.097,-1.1027,-1.0898,-1.0409,-1.0241,-1.0126,-0.9868,-0.9555,-0.943,-0.9316,-0.9206,-0.9096,-0.9096,-0.8933,-0.8875,-0.893,-0.904,-0.8985,-1.9307,-1.9307,-1.9307,-1.9249,-1.9307,-1.9307,-1.9307,-1.9307,-1.9249,-1.9307,-1.9301,-1.9372,-1.9307,-1.9185,-1.9185,-1.9185,-1.9185,-1.9185,-1.9062,-1.8874,-1.8881,-1.8771,-1.8596,-1.8421,-1.8596,-1.848,-1.848,-1.8596,-1.848,-1.8538,-1.8596,-1.8421,-1.848,-1.848,-1.8421,-1.8363,-1.8363,-1.8305,-1.8305,-1.8246,-1.8363,-1.8363,-1.8363,-1.8188,-1.8018,-1.7849,-1.779,-1.755,-1.7309,-1.7079,-1.6961,-1.6844,-1.6543,-1.6425,-1.607,-1.5715,-1.5542,-1.5299,-1.5007,-1.4709,-1.459,-1.4351,-1.3992,-1.3744,-1.3684,-1.3684,-1.3629,-1.3564,-1.3264,-1.302,-1.284,-1.2599,-1.2359,-1.2057,-1.1816,-1.1631,-1.145,-1.1212,-1.097,-1.0728,-1.0607,-1.049,-1.0486,-1.0425,-1.0368,-1.0611,-1.0611,-1.0611,-1.0607,-1.0728,-1.0789,-1.0853,-1.0974,-1.0974,-1.0789,-1.0728,-1.0728,-1.0668,-1.0668,-1.0453,-1.0029,-0.9957,-0.9913,-0.9472,-0.8985,-0.8764,-0.8598,-0.8598,-0.8543,-0.8432,-0.8269,-0.81,-0.81,-0.8263,-0.8429,-1.8887,-1.8648,-1.8655,-1.8655,-1.8655,-1.8655,-1.8655,-1.8655,-1.8655,-1.8771,-1.8997,-1.8997,-1.8887,-1.8713,-1.8713,-1.8713,-1.8713,-1.8771,-1.8596,-1.8538,-1.8532,-1.848,-1.8363,-1.8298,-1.8363,-1.8421,-1.8421,-1.8305,-1.8246,-1.8305,-1.8363,-1.8363,-1.8246,-1.8129,-1.796,-1.796,-1.7895,-1.7719,-1.7543,-1.7661,-1.796,-1.796,-1.796,-1.755,-1.7262,-1.7138,-1.7015,-1.6838,-1.6714,-1.6602,-1.6655,-1.636,-1.5833,-1.5833,-1.5483,-1.5007,-1.4833,-1.465,-1.4406,-1.4112,-1.3928,-1.3688,-1.3384,-1.3084,-1.296,-1.2964,-1.2904,-1.284,-1.2719,-1.2539,-1.2298,-1.2113,-1.1872,-1.1575,-1.1273,-1.1088,-1.0906,-1.0668,-1.0425,-1.0308,-1.0186,-1.0126,-1.0122,-1.0065,-1.0004,-1.0004,-1.0004,-1.0004,-1.0061,-1.0122,-1.0365,-1.0486,-1.0728,-1.0728,-1.0547,-1.0365,-1.0304,-1.0183,-1.0061,-0.9881,-0.9658,-0.9384,-0.9133,-0.8805,-0.8484,-0.8322,-0.8211,-0.8156,-0.8045,-0.7823,-0.7715,-0.7546,-0.7435,-0.7543,-0.7765,-1.859,-1.8421,-1.8421,-1.8421,-1.8421,-1.8421,-1.8421,-1.8421,-1.8421,-1.8421,-1.8538,-1.8596,-1.8532,-1.8421,-1.8421,-1.8363,-1.8363,-1.8421,-1.8363,-1.8246,-1.8135,-1.8071,-1.8071,-1.8006,-1.7948,-1.8006,-1.7837,-1.7719,-1.7837,-1.7596,-1.7479,-1.7596,-1.7596,-1.7543,-1.7373,-1.7315,-1.7309,-1.7073,-1.6838,-1.702,-1.7373,-1.7315,-1.7197,-1.6844,-1.672,-1.6596,-1.6602,-1.6478,-1.6301,-1.607,-1.5774,-1.5537,-1.518,-1.5126,-1.4823,-1.4406,-1.4167,-1.4047,-1.3808,-1.3504,-1.3269,-1.3084,-1.284,-1.2539,-1.2298,-1.2298,-1.2298,-1.2238,-1.2057,-1.1816,-1.1696,-1.1511,-1.1329,-1.1088,-1.0789,-1.0607,-1.0425,-1.0183,-1.0065,-1.0065,-0.9943,-0.9943,-0.994,-0.994,-0.9883,-0.9883,-0.9822,-0.9761,-0.9758,-0.964,-0.9883,-1.0065,-1.0243,-1.0365,-1.0183,-1.0001,-0.994,-0.9758,-0.9579,-0.9337,-0.9085,-0.8695,-0.836,-0.8245,-0.81,-0.8048,-0.7937,-0.7715,-0.749,-0.7268,-0.7157,-0.7049,-0.6935,-0.6821,-0.6935,-1.8305,-1.8246,-1.8188,-1.8181,-1.8188,-1.8129,-1.8123,-1.8129,-1.8129,-1.796,-1.779,-1.8012,-1.8188,-1.8305,-1.8305,-1.8246,-1.8188,-1.7954,-1.796,-1.7784,-1.7732,-1.7543,-1.742,-1.7361,-1.7361,-1.7303,-1.7132,-1.7073,-1.7073,-1.6891,-1.6773,-1.6537,-1.6484,-1.6543,-1.6484,-1.6543,-1.6602,-1.6596,-1.6484,-1.6366,-1.6419,-1.6478,-1.6478,-1.6478,-1.636,-1.636,-1.6301,-1.6183,-1.5887,-1.5596,-1.5067,-1.4769,-1.459,-1.4471,-1.4107,-1.3744,-1.3569,-1.3324,-1.296,-1.2779,-1.2659,-1.2479,-1.2238,-1.1933,-1.1696,-1.1631,-1.1692,-1.1575,-1.1394,-1.1273,-1.1152,-1.097,-1.0846,-1.0664,-1.0365,-1.0183,-1.0001,-0.9822,-0.9822,-0.9761,-0.97,-0.97,-0.964,-0.97,-0.97,-0.97,-0.97,-0.97,-0.964,-0.94,-0.94,-0.9521,-0.9643,-0.964,-0.964,-0.964,-0.9579,-0.9457,-0.9255,-0.8913,-0.8568,-0.8317,-0.8048,-0.7847,-0.7768,-0.7549,-0.7382,-0.716,-0.6937,-0.6712,-0.6715,-0.6659,-0.6323,-0.6154,-0.6102,-1.7732,-1.7256,-1.7256,-1.7132,-1.6891,-1.6891,-1.6885,-1.6832,-1.6891,-1.6838,-1.6897,-1.6897,-1.7126,-1.7661,-1.7661,-1.7602,-1.7426,-1.7367,-1.7067,-1.6832,-1.7015,-1.6832,-1.6773,-1.6891,-1.6714,-1.6655,-1.6655,-1.6596,-1.6419,-1.6419,-1.6478,-1.636,-1.6419,-1.6419,-1.6425,-1.6425,-1.6307,-1.6188,-1.5952,-1.5774,-1.5952,-1.6011,-1.6124,-1.6005,-1.5774,-1.5418,-1.5121,-1.5002,-1.4883,-1.4769,-1.459,-1.4232,-1.3992,-1.3808,-1.3504,-1.314,-1.296,-1.2779,-1.2479,-1.2118,-1.1997,-1.1937,-1.1571,-1.1212,-1.1031,-1.1031,-1.1031,-1.097,-1.0849,-1.0849,-1.0728,-1.0547,-1.0425,-1.0243,-1.0061,-0.9879,-0.9761,-0.97,-0.964,-0.9518,-0.9396,-0.9339,-0.9159,-0.922,-0.922,-0.922,-0.922,-0.922,-0.9217,-0.9098,-0.8915,-0.8976,-0.9037,-0.9037,-0.9098,-0.922,-0.9159,-0.9037,-0.8878,-0.8504,-0.8234,-0.806,-0.7811,-0.7418,-0.716,-0.6882,-0.6715,-0.6659,-0.6492,-0.6325,-0.6383,-0.6272,-0.5822,-0.5541,-0.5487]}]]